<?xml version="1.0" encoding="UTF-8" standalone="no" ?>
<gpx xmlns="http://www.topografix.com/GPX/1/1" xmlns:xsi="http://www.w3.org/2001/XMLSchema-instance" xsi:schemaLocation="http://www.topografix.com/GPX/1/1 http://www.topografix.com/GPX/1/1/gpx.xsd" version="1.1" creator="VisuGPX - https://www.visugpx.com">
  <metadata>
    <name>Tellin MARCHE ADEPS 2015 (Avril)</name>
    <desc><![CDATA[Marche sympa pour se ressourcé ]]></desc>
  </metadata>
  <trk>
    <name><![CDATA[solo]]></name>
    <cmt><![CDATA[AVG 06° MAX 09° MIN 05° 
]]></cmt>
    <trkseg>
      <trkpt lat="50.08731" lon="5.22217">
        <ele>86</ele>
        <time>2015-04-06T06:49:06Z</time>
      </trkpt>
      <trkpt lat="50.08734" lon="5.22216">
        <ele>86</ele>
        <time>2015-04-06T06:49:11Z</time>
      </trkpt>
      <trkpt lat="50.08744" lon="5.22215">
        <ele>86</ele>
        <time>2015-04-06T06:49:16Z</time>
      </trkpt>
      <trkpt lat="50.08756" lon="5.22215">
        <ele>86</ele>
        <time>2015-04-06T06:49:22Z</time>
      </trkpt>
      <trkpt lat="50.08764" lon="5.22215">
        <ele>86</ele>
        <time>2015-04-06T06:49:27Z</time>
      </trkpt>
      <trkpt lat="50.08769" lon="5.22217">
        <ele>86</ele>
        <time>2015-04-06T06:49:32Z</time>
      </trkpt>
      <trkpt lat="50.08778" lon="5.22219">
        <ele>86</ele>
        <time>2015-04-06T06:49:38Z</time>
      </trkpt>
      <trkpt lat="50.08784" lon="5.22221">
        <ele>86</ele>
        <time>2015-04-06T06:49:43Z</time>
      </trkpt>
      <trkpt lat="50.08792" lon="5.22224">
        <ele>86</ele>
        <time>2015-04-06T06:49:48Z</time>
      </trkpt>
      <trkpt lat="50.08797" lon="5.2223">
        <ele>86</ele>
        <time>2015-04-06T06:49:54Z</time>
      </trkpt>
      <trkpt lat="50.08793" lon="5.22237">
        <ele>86</ele>
        <time>2015-04-06T06:49:59Z</time>
      </trkpt>
      <trkpt lat="50.08794" lon="5.22242">
        <ele>86</ele>
        <time>2015-04-06T06:50:04Z</time>
      </trkpt>
      <trkpt lat="50.08796" lon="5.22245">
        <ele>86</ele>
        <time>2015-04-06T06:50:09Z</time>
      </trkpt>
      <trkpt lat="50.08797" lon="5.22247">
        <ele>86</ele>
        <time>2015-04-06T06:50:14Z</time>
      </trkpt>
      <trkpt lat="50.08797" lon="5.22252">
        <ele>86</ele>
        <time>2015-04-06T06:50:19Z</time>
      </trkpt>
      <trkpt lat="50.08796" lon="5.2226">
        <ele>86</ele>
        <time>2015-04-06T06:50:25Z</time>
      </trkpt>
      <trkpt lat="50.08796" lon="5.22265">
        <ele>86</ele>
        <time>2015-04-06T06:50:30Z</time>
      </trkpt>
      <trkpt lat="50.08795" lon="5.22271">
        <ele>86</ele>
        <time>2015-04-06T06:50:36Z</time>
      </trkpt>
      <trkpt lat="50.08796" lon="5.22281">
        <ele>86</ele>
        <time>2015-04-06T06:50:42Z</time>
      </trkpt>
      <trkpt lat="50.08796" lon="5.22293">
        <ele>85</ele>
        <time>2015-04-06T06:50:48Z</time>
      </trkpt>
      <trkpt lat="50.08794" lon="5.22303">
        <ele>85</ele>
        <time>2015-04-06T06:50:53Z</time>
      </trkpt>
      <trkpt lat="50.08792" lon="5.22309">
        <ele>85</ele>
        <time>2015-04-06T06:50:58Z</time>
      </trkpt>
      <trkpt lat="50.08791" lon="5.22313">
        <ele>85</ele>
        <time>2015-04-06T06:51:03Z</time>
      </trkpt>
      <trkpt lat="50.08788" lon="5.22319">
        <ele>85</ele>
        <time>2015-04-06T06:51:08Z</time>
      </trkpt>
      <trkpt lat="50.08788" lon="5.22323">
        <ele>85</ele>
        <time>2015-04-06T06:51:13Z</time>
      </trkpt>
      <trkpt lat="50.08787" lon="5.22325">
        <ele>85</ele>
        <time>2015-04-06T06:51:18Z</time>
      </trkpt>
      <trkpt lat="50.08788" lon="5.22327">
        <ele>85</ele>
        <time>2015-04-06T06:51:23Z</time>
      </trkpt>
      <trkpt lat="50.08788" lon="5.22328">
        <ele>85</ele>
        <time>2015-04-06T06:51:28Z</time>
      </trkpt>
      <trkpt lat="50.08788" lon="5.2233">
        <ele>85</ele>
        <time>2015-04-06T06:51:33Z</time>
      </trkpt>
      <trkpt lat="50.08785" lon="5.22331">
        <ele>86</ele>
        <time>2015-04-06T06:51:38Z</time>
      </trkpt>
      <trkpt lat="50.08779" lon="5.2233">
        <ele>86</ele>
        <time>2015-04-06T06:51:44Z</time>
      </trkpt>
      <trkpt lat="50.08774" lon="5.22329">
        <ele>86</ele>
        <time>2015-04-06T06:51:49Z</time>
      </trkpt>
      <trkpt lat="50.08768" lon="5.22327">
        <ele>86</ele>
        <time>2015-04-06T06:51:54Z</time>
      </trkpt>
      <trkpt lat="50.08762" lon="5.22324">
        <ele>86</ele>
        <time>2015-04-06T06:52:00Z</time>
      </trkpt>
      <trkpt lat="50.08754" lon="5.22321">
        <ele>86</ele>
        <time>2015-04-06T06:52:06Z</time>
      </trkpt>
      <trkpt lat="50.08749" lon="5.22319">
        <ele>87</ele>
        <time>2015-04-06T06:52:11Z</time>
      </trkpt>
      <trkpt lat="50.08744" lon="5.22318">
        <ele>87</ele>
        <time>2015-04-06T06:52:17Z</time>
      </trkpt>
      <trkpt lat="50.0874" lon="5.22318">
        <ele>87</ele>
        <time>2015-04-06T06:52:22Z</time>
      </trkpt>
      <trkpt lat="50.08735" lon="5.22317">
        <ele>87</ele>
        <time>2015-04-06T06:52:27Z</time>
      </trkpt>
      <trkpt lat="50.08728" lon="5.22313">
        <ele>87</ele>
        <time>2015-04-06T06:52:33Z</time>
      </trkpt>
      <trkpt lat="50.08722" lon="5.2231">
        <ele>87</ele>
        <time>2015-04-06T06:52:38Z</time>
      </trkpt>
      <trkpt lat="50.08716" lon="5.22307">
        <ele>88</ele>
        <time>2015-04-06T06:52:43Z</time>
      </trkpt>
      <trkpt lat="50.0871" lon="5.22304">
        <ele>88</ele>
        <time>2015-04-06T06:52:48Z</time>
      </trkpt>
      <trkpt lat="50.08702" lon="5.223">
        <ele>89</ele>
        <time>2015-04-06T06:52:54Z</time>
      </trkpt>
      <trkpt lat="50.08695" lon="5.22299">
        <ele>89</ele>
        <time>2015-04-06T06:52:59Z</time>
      </trkpt>
      <trkpt lat="50.08691" lon="5.22298">
        <ele>89</ele>
        <time>2015-04-06T06:53:04Z</time>
      </trkpt>
      <trkpt lat="50.08688" lon="5.22298">
        <ele>90</ele>
        <time>2015-04-06T06:53:09Z</time>
      </trkpt>
      <trkpt lat="50.08683" lon="5.22296">
        <ele>90</ele>
        <time>2015-04-06T06:53:14Z</time>
      </trkpt>
      <trkpt lat="50.08677" lon="5.22294">
        <ele>89</ele>
        <time>2015-04-06T06:53:19Z</time>
      </trkpt>
      <trkpt lat="50.08672" lon="5.22292">
        <ele>90</ele>
        <time>2015-04-06T06:53:24Z</time>
      </trkpt>
      <trkpt lat="50.08667" lon="5.2229">
        <ele>90</ele>
        <time>2015-04-06T06:53:29Z</time>
      </trkpt>
      <trkpt lat="50.08665" lon="5.22291">
        <ele>90</ele>
        <time>2015-04-06T06:53:35Z</time>
      </trkpt>
      <trkpt lat="50.08664" lon="5.22291">
        <ele>90</ele>
        <time>2015-04-06T06:53:40Z</time>
      </trkpt>
      <trkpt lat="50.08663" lon="5.2229">
        <ele>90</ele>
        <time>2015-04-06T06:53:45Z</time>
      </trkpt>
      <trkpt lat="50.08658" lon="5.22287">
        <ele>91</ele>
        <time>2015-04-06T06:53:51Z</time>
      </trkpt>
      <trkpt lat="50.08652" lon="5.22286">
        <ele>91</ele>
        <time>2015-04-06T06:53:56Z</time>
      </trkpt>
      <trkpt lat="50.08646" lon="5.22287">
        <ele>91</ele>
        <time>2015-04-06T06:54:02Z</time>
      </trkpt>
      <trkpt lat="50.08639" lon="5.22285">
        <ele>91</ele>
        <time>2015-04-06T06:54:08Z</time>
      </trkpt>
      <trkpt lat="50.08633" lon="5.22285">
        <ele>91</ele>
        <time>2015-04-06T06:54:13Z</time>
      </trkpt>
      <trkpt lat="50.08626" lon="5.22286">
        <ele>91</ele>
        <time>2015-04-06T06:54:19Z</time>
      </trkpt>
      <trkpt lat="50.0862" lon="5.22287">
        <ele>92</ele>
        <time>2015-04-06T06:54:24Z</time>
      </trkpt>
      <trkpt lat="50.08611" lon="5.22288">
        <ele>92</ele>
        <time>2015-04-06T06:54:30Z</time>
      </trkpt>
      <trkpt lat="50.08605" lon="5.22288">
        <ele>92</ele>
        <time>2015-04-06T06:54:35Z</time>
      </trkpt>
      <trkpt lat="50.08596" lon="5.22289">
        <ele>92</ele>
        <time>2015-04-06T06:54:41Z</time>
      </trkpt>
      <trkpt lat="50.0859" lon="5.2229">
        <ele>93</ele>
        <time>2015-04-06T06:54:46Z</time>
      </trkpt>
      <trkpt lat="50.08583" lon="5.22288">
        <ele>93</ele>
        <time>2015-04-06T06:54:51Z</time>
      </trkpt>
      <trkpt lat="50.08576" lon="5.22287">
        <ele>93</ele>
        <time>2015-04-06T06:54:57Z</time>
      </trkpt>
      <trkpt lat="50.08571" lon="5.22287">
        <ele>93</ele>
        <time>2015-04-06T06:55:02Z</time>
      </trkpt>
      <trkpt lat="50.08564" lon="5.22288">
        <ele>93</ele>
        <time>2015-04-06T06:55:07Z</time>
      </trkpt>
      <trkpt lat="50.08558" lon="5.22289">
        <ele>93</ele>
        <time>2015-04-06T06:55:12Z</time>
      </trkpt>
      <trkpt lat="50.08552" lon="5.22289">
        <ele>93</ele>
        <time>2015-04-06T06:55:17Z</time>
      </trkpt>
      <trkpt lat="50.08545" lon="5.22287">
        <ele>94</ele>
        <time>2015-04-06T06:55:23Z</time>
      </trkpt>
      <trkpt lat="50.08538" lon="5.22284">
        <ele>94</ele>
        <time>2015-04-06T06:55:29Z</time>
      </trkpt>
      <trkpt lat="50.08532" lon="5.2228">
        <ele>95</ele>
        <time>2015-04-06T06:55:35Z</time>
      </trkpt>
      <trkpt lat="50.08526" lon="5.22276">
        <ele>95</ele>
        <time>2015-04-06T06:55:40Z</time>
      </trkpt>
      <trkpt lat="50.08519" lon="5.22271">
        <ele>94</ele>
        <time>2015-04-06T06:55:46Z</time>
      </trkpt>
      <trkpt lat="50.08513" lon="5.22269">
        <ele>95</ele>
        <time>2015-04-06T06:55:51Z</time>
      </trkpt>
      <trkpt lat="50.0851" lon="5.22269">
        <ele>95</ele>
        <time>2015-04-06T06:55:57Z</time>
      </trkpt>
      <trkpt lat="50.08502" lon="5.22266">
        <ele>95</ele>
        <time>2015-04-06T06:56:03Z</time>
      </trkpt>
      <trkpt lat="50.08498" lon="5.22266">
        <ele>96</ele>
        <time>2015-04-06T06:56:09Z</time>
      </trkpt>
      <trkpt lat="50.08493" lon="5.22265">
        <ele>95</ele>
        <time>2015-04-06T06:56:14Z</time>
      </trkpt>
      <trkpt lat="50.08486" lon="5.22263">
        <ele>95</ele>
        <time>2015-04-06T06:56:20Z</time>
      </trkpt>
      <trkpt lat="50.08481" lon="5.2226">
        <ele>96</ele>
        <time>2015-04-06T06:56:25Z</time>
      </trkpt>
      <trkpt lat="50.08475" lon="5.22257">
        <ele>96</ele>
        <time>2015-04-06T06:56:30Z</time>
      </trkpt>
      <trkpt lat="50.08473" lon="5.22257">
        <ele>96</ele>
        <time>2015-04-06T06:56:37Z</time>
      </trkpt>
      <trkpt lat="50.08473" lon="5.22258">
        <ele>96</ele>
        <time>2015-04-06T06:56:43Z</time>
      </trkpt>
      <trkpt lat="50.08472" lon="5.22258">
        <ele>96</ele>
        <time>2015-04-06T06:56:48Z</time>
      </trkpt>
      <trkpt lat="50.08472" lon="5.22259">
        <ele>96</ele>
        <time>2015-04-06T06:56:54Z</time>
      </trkpt>
      <trkpt lat="50.08468" lon="5.22256">
        <ele>97</ele>
        <time>2015-04-06T06:56:59Z</time>
      </trkpt>
      <trkpt lat="50.08463" lon="5.22253">
        <ele>96</ele>
        <time>2015-04-06T06:57:05Z</time>
      </trkpt>
      <trkpt lat="50.08458" lon="5.2225">
        <ele>97</ele>
        <time>2015-04-06T06:57:11Z</time>
      </trkpt>
      <trkpt lat="50.08453" lon="5.22247">
        <ele>97</ele>
        <time>2015-04-06T06:57:16Z</time>
      </trkpt>
      <trkpt lat="50.08448" lon="5.22242">
        <ele>97</ele>
        <time>2015-04-06T06:57:22Z</time>
      </trkpt>
      <trkpt lat="50.08442" lon="5.22238">
        <ele>97</ele>
        <time>2015-04-06T06:57:27Z</time>
      </trkpt>
      <trkpt lat="50.08437" lon="5.22233">
        <ele>97</ele>
        <time>2015-04-06T06:57:32Z</time>
      </trkpt>
      <trkpt lat="50.08431" lon="5.22229">
        <ele>97</ele>
        <time>2015-04-06T06:57:37Z</time>
      </trkpt>
      <trkpt lat="50.08425" lon="5.22224">
        <ele>98</ele>
        <time>2015-04-06T06:57:43Z</time>
      </trkpt>
      <trkpt lat="50.08418" lon="5.2222">
        <ele>98</ele>
        <time>2015-04-06T06:57:49Z</time>
      </trkpt>
      <trkpt lat="50.08411" lon="5.22217">
        <ele>98</ele>
        <time>2015-04-06T06:57:55Z</time>
      </trkpt>
      <trkpt lat="50.08405" lon="5.22215">
        <ele>98</ele>
        <time>2015-04-06T06:58:00Z</time>
      </trkpt>
      <trkpt lat="50.084" lon="5.22212">
        <ele>98</ele>
        <time>2015-04-06T06:58:05Z</time>
      </trkpt>
      <trkpt lat="50.08395" lon="5.22209">
        <ele>98</ele>
        <time>2015-04-06T06:58:11Z</time>
      </trkpt>
      <trkpt lat="50.08388" lon="5.22205">
        <ele>99</ele>
        <time>2015-04-06T06:58:17Z</time>
      </trkpt>
      <trkpt lat="50.08383" lon="5.22201">
        <ele>99</ele>
        <time>2015-04-06T06:58:22Z</time>
      </trkpt>
      <trkpt lat="50.08376" lon="5.22197">
        <ele>100</ele>
        <time>2015-04-06T06:58:28Z</time>
      </trkpt>
      <trkpt lat="50.08371" lon="5.22193">
        <ele>100</ele>
        <time>2015-04-06T06:58:33Z</time>
      </trkpt>
      <trkpt lat="50.08365" lon="5.22187">
        <ele>100</ele>
        <time>2015-04-06T06:58:39Z</time>
      </trkpt>
      <trkpt lat="50.0836" lon="5.22183">
        <ele>100</ele>
        <time>2015-04-06T06:58:44Z</time>
      </trkpt>
      <trkpt lat="50.08353" lon="5.22179">
        <ele>100</ele>
        <time>2015-04-06T06:58:49Z</time>
      </trkpt>
      <trkpt lat="50.08347" lon="5.22176">
        <ele>100</ele>
        <time>2015-04-06T06:58:55Z</time>
      </trkpt>
      <trkpt lat="50.0834" lon="5.22171">
        <ele>101</ele>
        <time>2015-04-06T06:59:01Z</time>
      </trkpt>
      <trkpt lat="50.08334" lon="5.22167">
        <ele>101</ele>
        <time>2015-04-06T06:59:07Z</time>
      </trkpt>
      <trkpt lat="50.08328" lon="5.22163">
        <ele>101</ele>
        <time>2015-04-06T06:59:13Z</time>
      </trkpt>
      <trkpt lat="50.08322" lon="5.22159">
        <ele>101</ele>
        <time>2015-04-06T06:59:18Z</time>
      </trkpt>
      <trkpt lat="50.08315" lon="5.22156">
        <ele>102</ele>
        <time>2015-04-06T06:59:24Z</time>
      </trkpt>
      <trkpt lat="50.08309" lon="5.22152">
        <ele>102</ele>
        <time>2015-04-06T06:59:29Z</time>
      </trkpt>
      <trkpt lat="50.08302" lon="5.22149">
        <ele>102</ele>
        <time>2015-04-06T06:59:34Z</time>
      </trkpt>
      <trkpt lat="50.08295" lon="5.22146">
        <ele>102</ele>
        <time>2015-04-06T06:59:40Z</time>
      </trkpt>
      <trkpt lat="50.0829" lon="5.22143">
        <ele>102</ele>
        <time>2015-04-06T06:59:45Z</time>
      </trkpt>
      <trkpt lat="50.08284" lon="5.22137">
        <ele>103</ele>
        <time>2015-04-06T06:59:51Z</time>
      </trkpt>
      <trkpt lat="50.08278" lon="5.22133">
        <ele>103</ele>
        <time>2015-04-06T06:59:56Z</time>
      </trkpt>
      <trkpt lat="50.08273" lon="5.22131">
        <ele>103</ele>
        <time>2015-04-06T07:00:01Z</time>
      </trkpt>
      <trkpt lat="50.08266" lon="5.22126">
        <ele>103</ele>
        <time>2015-04-06T07:00:07Z</time>
      </trkpt>
      <trkpt lat="50.08261" lon="5.22121">
        <ele>103</ele>
        <time>2015-04-06T07:00:12Z</time>
      </trkpt>
      <trkpt lat="50.08255" lon="5.22116">
        <ele>103</ele>
        <time>2015-04-06T07:00:17Z</time>
      </trkpt>
      <trkpt lat="50.08249" lon="5.22113">
        <ele>104</ele>
        <time>2015-04-06T07:00:22Z</time>
      </trkpt>
      <trkpt lat="50.08243" lon="5.22109">
        <ele>104</ele>
        <time>2015-04-06T07:00:27Z</time>
      </trkpt>
      <trkpt lat="50.08237" lon="5.22104">
        <ele>104</ele>
        <time>2015-04-06T07:00:33Z</time>
      </trkpt>
      <trkpt lat="50.08231" lon="5.221">
        <ele>104</ele>
        <time>2015-04-06T07:00:38Z</time>
      </trkpt>
      <trkpt lat="50.08223" lon="5.22096">
        <ele>105</ele>
        <time>2015-04-06T07:00:44Z</time>
      </trkpt>
      <trkpt lat="50.08215" lon="5.22092">
        <ele>105</ele>
        <time>2015-04-06T07:00:50Z</time>
      </trkpt>
      <trkpt lat="50.08206" lon="5.22089">
        <ele>106</ele>
        <time>2015-04-06T07:00:56Z</time>
      </trkpt>
      <trkpt lat="50.082" lon="5.22086">
        <ele>106</ele>
        <time>2015-04-06T07:01:01Z</time>
      </trkpt>
      <trkpt lat="50.08194" lon="5.22082">
        <ele>106</ele>
        <time>2015-04-06T07:01:06Z</time>
      </trkpt>
      <trkpt lat="50.08189" lon="5.22077">
        <ele>106</ele>
        <time>2015-04-06T07:01:11Z</time>
      </trkpt>
      <trkpt lat="50.08186" lon="5.22073">
        <ele>107</ele>
        <time>2015-04-06T07:01:17Z</time>
      </trkpt>
      <trkpt lat="50.08184" lon="5.22072">
        <ele>108</ele>
        <time>2015-04-06T07:01:22Z</time>
      </trkpt>
      <trkpt lat="50.08178" lon="5.2207">
        <ele>108</ele>
        <time>2015-04-06T07:01:28Z</time>
      </trkpt>
      <trkpt lat="50.08174" lon="5.22064">
        <ele>108</ele>
        <time>2015-04-06T07:01:33Z</time>
      </trkpt>
      <trkpt lat="50.08169" lon="5.22058">
        <ele>108</ele>
        <time>2015-04-06T07:01:39Z</time>
      </trkpt>
      <trkpt lat="50.08164" lon="5.22059">
        <ele>109</ele>
        <time>2015-04-06T07:01:44Z</time>
      </trkpt>
      <trkpt lat="50.0816" lon="5.22058">
        <ele>109</ele>
        <time>2015-04-06T07:01:49Z</time>
      </trkpt>
      <trkpt lat="50.08155" lon="5.22057">
        <ele>109</ele>
        <time>2015-04-06T07:01:54Z</time>
      </trkpt>
      <trkpt lat="50.08149" lon="5.22061">
        <ele>108</ele>
        <time>2015-04-06T07:02:00Z</time>
      </trkpt>
      <trkpt lat="50.08143" lon="5.22063">
        <ele>108</ele>
        <time>2015-04-06T07:02:05Z</time>
      </trkpt>
      <trkpt lat="50.08136" lon="5.22066">
        <ele>108</ele>
        <time>2015-04-06T07:02:11Z</time>
      </trkpt>
      <trkpt lat="50.08127" lon="5.2207">
        <ele>108</ele>
        <time>2015-04-06T07:02:16Z</time>
      </trkpt>
      <trkpt lat="50.08118" lon="5.22068">
        <ele>108</ele>
        <time>2015-04-06T07:02:22Z</time>
      </trkpt>
      <trkpt lat="50.08113" lon="5.22065">
        <ele>108</ele>
        <time>2015-04-06T07:02:27Z</time>
      </trkpt>
      <trkpt lat="50.08109" lon="5.2206">
        <ele>108</ele>
        <time>2015-04-06T07:02:33Z</time>
      </trkpt>
      <trkpt lat="50.08104" lon="5.22052">
        <ele>108</ele>
        <time>2015-04-06T07:02:39Z</time>
      </trkpt>
      <trkpt lat="50.08101" lon="5.22046">
        <ele>109</ele>
        <time>2015-04-06T07:02:44Z</time>
      </trkpt>
      <trkpt lat="50.08099" lon="5.22043">
        <ele>109</ele>
        <time>2015-04-06T07:02:49Z</time>
      </trkpt>
      <trkpt lat="50.08096" lon="5.22037">
        <ele>109</ele>
        <time>2015-04-06T07:02:54Z</time>
      </trkpt>
      <trkpt lat="50.08094" lon="5.22032">
        <ele>109</ele>
        <time>2015-04-06T07:02:59Z</time>
      </trkpt>
      <trkpt lat="50.08091" lon="5.22026">
        <ele>109</ele>
        <time>2015-04-06T07:03:05Z</time>
      </trkpt>
      <trkpt lat="50.08087" lon="5.22018">
        <ele>109</ele>
        <time>2015-04-06T07:03:10Z</time>
      </trkpt>
      <trkpt lat="50.08084" lon="5.22009">
        <ele>110</ele>
        <time>2015-04-06T07:03:15Z</time>
      </trkpt>
      <trkpt lat="50.08081" lon="5.22001">
        <ele>110</ele>
        <time>2015-04-06T07:03:20Z</time>
      </trkpt>
      <trkpt lat="50.08079" lon="5.2199">
        <ele>110</ele>
        <time>2015-04-06T07:03:26Z</time>
      </trkpt>
      <trkpt lat="50.08077" lon="5.21981">
        <ele>110</ele>
        <time>2015-04-06T07:03:31Z</time>
      </trkpt>
      <trkpt lat="50.08074" lon="5.21972">
        <ele>110</ele>
        <time>2015-04-06T07:03:36Z</time>
      </trkpt>
      <trkpt lat="50.08072" lon="5.21961">
        <ele>110</ele>
        <time>2015-04-06T07:03:41Z</time>
      </trkpt>
      <trkpt lat="50.08069" lon="5.21954">
        <ele>110</ele>
        <time>2015-04-06T07:03:46Z</time>
      </trkpt>
      <trkpt lat="50.08067" lon="5.21946">
        <ele>110</ele>
        <time>2015-04-06T07:03:51Z</time>
      </trkpt>
      <trkpt lat="50.08065" lon="5.21938">
        <ele>111</ele>
        <time>2015-04-06T07:03:56Z</time>
      </trkpt>
      <trkpt lat="50.08063" lon="5.21928">
        <ele>111</ele>
        <time>2015-04-06T07:04:02Z</time>
      </trkpt>
      <trkpt lat="50.08064" lon="5.21917">
        <ele>111</ele>
        <time>2015-04-06T07:04:08Z</time>
      </trkpt>
      <trkpt lat="50.08063" lon="5.21911">
        <ele>112</ele>
        <time>2015-04-06T07:04:13Z</time>
      </trkpt>
      <trkpt lat="50.08061" lon="5.21905">
        <ele>112</ele>
        <time>2015-04-06T07:04:18Z</time>
      </trkpt>
      <trkpt lat="50.08059" lon="5.21896">
        <ele>112</ele>
        <time>2015-04-06T07:04:24Z</time>
      </trkpt>
      <trkpt lat="50.0806" lon="5.2189">
        <ele>112</ele>
        <time>2015-04-06T07:04:30Z</time>
      </trkpt>
      <trkpt lat="50.08061" lon="5.21886">
        <ele>112</ele>
        <time>2015-04-06T07:04:36Z</time>
      </trkpt>
      <trkpt lat="50.08059" lon="5.2188">
        <ele>112</ele>
        <time>2015-04-06T07:04:41Z</time>
      </trkpt>
      <trkpt lat="50.08054" lon="5.21868">
        <ele>112</ele>
        <time>2015-04-06T07:04:47Z</time>
      </trkpt>
      <trkpt lat="50.08049" lon="5.21856">
        <ele>113</ele>
        <time>2015-04-06T07:04:53Z</time>
      </trkpt>
      <trkpt lat="50.08046" lon="5.21846">
        <ele>113</ele>
        <time>2015-04-06T07:04:58Z</time>
      </trkpt>
      <trkpt lat="50.0804" lon="5.21836">
        <ele>113</ele>
        <time>2015-04-06T07:05:03Z</time>
      </trkpt>
      <trkpt lat="50.08036" lon="5.21828">
        <ele>113</ele>
        <time>2015-04-06T07:05:08Z</time>
      </trkpt>
      <trkpt lat="50.08032" lon="5.2182">
        <ele>113</ele>
        <time>2015-04-06T07:05:14Z</time>
      </trkpt>
      <trkpt lat="50.08029" lon="5.21816">
        <ele>114</ele>
        <time>2015-04-06T07:05:19Z</time>
      </trkpt>
      <trkpt lat="50.08027" lon="5.21814">
        <ele>114</ele>
        <time>2015-04-06T07:05:25Z</time>
      </trkpt>
      <trkpt lat="50.08026" lon="5.21813">
        <ele>114</ele>
        <time>2015-04-06T07:05:30Z</time>
      </trkpt>
      <trkpt lat="50.08025" lon="5.21811">
        <ele>113</ele>
        <time>2015-04-06T07:05:36Z</time>
      </trkpt>
      <trkpt lat="50.08025" lon="5.21809">
        <ele>113</ele>
        <time>2015-04-06T07:05:41Z</time>
      </trkpt>
      <trkpt lat="50.08023" lon="5.21807">
        <ele>114</ele>
        <time>2015-04-06T07:05:47Z</time>
      </trkpt>
      <trkpt lat="50.08024" lon="5.21804">
        <ele>114</ele>
        <time>2015-04-06T07:05:52Z</time>
      </trkpt>
      <trkpt lat="50.08023" lon="5.21797">
        <ele>114</ele>
        <time>2015-04-06T07:05:58Z</time>
      </trkpt>
      <trkpt lat="50.0802" lon="5.21791">
        <ele>114</ele>
        <time>2015-04-06T07:06:03Z</time>
      </trkpt>
      <trkpt lat="50.08017" lon="5.21782">
        <ele>114</ele>
        <time>2015-04-06T07:06:09Z</time>
      </trkpt>
      <trkpt lat="50.08014" lon="5.21774">
        <ele>114</ele>
        <time>2015-04-06T07:06:14Z</time>
      </trkpt>
      <trkpt lat="50.08012" lon="5.21767">
        <ele>115</ele>
        <time>2015-04-06T07:06:19Z</time>
      </trkpt>
      <trkpt lat="50.08009" lon="5.21759">
        <ele>115</ele>
        <time>2015-04-06T07:06:24Z</time>
      </trkpt>
      <trkpt lat="50.08006" lon="5.21749">
        <ele>115</ele>
        <time>2015-04-06T07:06:30Z</time>
      </trkpt>
      <trkpt lat="50.08003" lon="5.21741">
        <ele>115</ele>
        <time>2015-04-06T07:06:35Z</time>
      </trkpt>
      <trkpt lat="50.08001" lon="5.21733">
        <ele>115</ele>
        <time>2015-04-06T07:06:40Z</time>
      </trkpt>
      <trkpt lat="50.07999" lon="5.21723">
        <ele>115</ele>
        <time>2015-04-06T07:06:46Z</time>
      </trkpt>
      <trkpt lat="50.07997" lon="5.21715">
        <ele>115</ele>
        <time>2015-04-06T07:06:52Z</time>
      </trkpt>
      <trkpt lat="50.07994" lon="5.21706">
        <ele>115</ele>
        <time>2015-04-06T07:06:57Z</time>
      </trkpt>
      <trkpt lat="50.07991" lon="5.217">
        <ele>116</ele>
        <time>2015-04-06T07:07:02Z</time>
      </trkpt>
      <trkpt lat="50.07987" lon="5.21692">
        <ele>116</ele>
        <time>2015-04-06T07:07:07Z</time>
      </trkpt>
      <trkpt lat="50.07982" lon="5.21683">
        <ele>117</ele>
        <time>2015-04-06T07:07:13Z</time>
      </trkpt>
      <trkpt lat="50.07976" lon="5.21673">
        <ele>116</ele>
        <time>2015-04-06T07:07:18Z</time>
      </trkpt>
      <trkpt lat="50.0797" lon="5.21663">
        <ele>116</ele>
        <time>2015-04-06T07:07:23Z</time>
      </trkpt>
      <trkpt lat="50.07965" lon="5.21655">
        <ele>117</ele>
        <time>2015-04-06T07:07:28Z</time>
      </trkpt>
      <trkpt lat="50.07961" lon="5.21648">
        <ele>117</ele>
        <time>2015-04-06T07:07:33Z</time>
      </trkpt>
      <trkpt lat="50.07957" lon="5.21642">
        <ele>117</ele>
        <time>2015-04-06T07:07:38Z</time>
      </trkpt>
      <trkpt lat="50.07953" lon="5.21633">
        <ele>117</ele>
        <time>2015-04-06T07:07:43Z</time>
      </trkpt>
      <trkpt lat="50.07948" lon="5.21626">
        <ele>117</ele>
        <time>2015-04-06T07:07:48Z</time>
      </trkpt>
      <trkpt lat="50.07943" lon="5.2162">
        <ele>118</ele>
        <time>2015-04-06T07:07:53Z</time>
      </trkpt>
      <trkpt lat="50.07938" lon="5.21615">
        <ele>118</ele>
        <time>2015-04-06T07:07:58Z</time>
      </trkpt>
      <trkpt lat="50.07931" lon="5.21608">
        <ele>119</ele>
        <time>2015-04-06T07:08:04Z</time>
      </trkpt>
      <trkpt lat="50.07924" lon="5.21601">
        <ele>119</ele>
        <time>2015-04-06T07:08:10Z</time>
      </trkpt>
      <trkpt lat="50.07919" lon="5.21595">
        <ele>119</ele>
        <time>2015-04-06T07:08:15Z</time>
      </trkpt>
      <trkpt lat="50.07913" lon="5.21589">
        <ele>119</ele>
        <time>2015-04-06T07:08:20Z</time>
      </trkpt>
      <trkpt lat="50.07907" lon="5.2158">
        <ele>119</ele>
        <time>2015-04-06T07:08:26Z</time>
      </trkpt>
      <trkpt lat="50.07901" lon="5.21573">
        <ele>119</ele>
        <time>2015-04-06T07:08:32Z</time>
      </trkpt>
      <trkpt lat="50.07896" lon="5.21567">
        <ele>119</ele>
        <time>2015-04-06T07:08:37Z</time>
      </trkpt>
      <trkpt lat="50.07891" lon="5.21561">
        <ele>119</ele>
        <time>2015-04-06T07:08:42Z</time>
      </trkpt>
      <trkpt lat="50.07887" lon="5.21556">
        <ele>119</ele>
        <time>2015-04-06T07:08:47Z</time>
      </trkpt>
      <trkpt lat="50.07881" lon="5.21552">
        <ele>119</ele>
        <time>2015-04-06T07:08:53Z</time>
      </trkpt>
      <trkpt lat="50.07876" lon="5.21552">
        <ele>120</ele>
        <time>2015-04-06T07:08:58Z</time>
      </trkpt>
      <trkpt lat="50.07871" lon="5.21553">
        <ele>120</ele>
        <time>2015-04-06T07:09:03Z</time>
      </trkpt>
      <trkpt lat="50.07868" lon="5.21554">
        <ele>120</ele>
        <time>2015-04-06T07:09:08Z</time>
      </trkpt>
      <trkpt lat="50.07862" lon="5.21554">
        <ele>120</ele>
        <time>2015-04-06T07:09:13Z</time>
      </trkpt>
      <trkpt lat="50.07855" lon="5.21555">
        <ele>121</ele>
        <time>2015-04-06T07:09:18Z</time>
      </trkpt>
      <trkpt lat="50.07849" lon="5.21555">
        <ele>121</ele>
        <time>2015-04-06T07:09:23Z</time>
      </trkpt>
      <trkpt lat="50.07841" lon="5.21555">
        <ele>122</ele>
        <time>2015-04-06T07:09:28Z</time>
      </trkpt>
      <trkpt lat="50.07835" lon="5.21554">
        <ele>122</ele>
        <time>2015-04-06T07:09:33Z</time>
      </trkpt>
      <trkpt lat="50.07828" lon="5.21552">
        <ele>122</ele>
        <time>2015-04-06T07:09:38Z</time>
      </trkpt>
      <trkpt lat="50.07822" lon="5.21549">
        <ele>123</ele>
        <time>2015-04-06T07:09:43Z</time>
      </trkpt>
      <trkpt lat="50.07818" lon="5.21544">
        <ele>123</ele>
        <time>2015-04-06T07:09:49Z</time>
      </trkpt>
      <trkpt lat="50.07815" lon="5.21538">
        <ele>124</ele>
        <time>2015-04-06T07:09:54Z</time>
      </trkpt>
      <trkpt lat="50.07811" lon="5.21533">
        <ele>125</ele>
        <time>2015-04-06T07:09:59Z</time>
      </trkpt>
      <trkpt lat="50.07808" lon="5.21532">
        <ele>126</ele>
        <time>2015-04-06T07:10:04Z</time>
      </trkpt>
      <trkpt lat="50.07802" lon="5.2153">
        <ele>126</ele>
        <time>2015-04-06T07:10:10Z</time>
      </trkpt>
      <trkpt lat="50.07801" lon="5.21529">
        <ele>127</ele>
        <time>2015-04-06T07:10:16Z</time>
      </trkpt>
      <trkpt lat="50.07798" lon="5.21528">
        <ele>127</ele>
        <time>2015-04-06T07:10:22Z</time>
      </trkpt>
      <trkpt lat="50.07793" lon="5.21524">
        <ele>128</ele>
        <time>2015-04-06T07:10:27Z</time>
      </trkpt>
      <trkpt lat="50.07788" lon="5.21519">
        <ele>129</ele>
        <time>2015-04-06T07:10:32Z</time>
      </trkpt>
      <trkpt lat="50.07784" lon="5.21515">
        <ele>130</ele>
        <time>2015-04-06T07:10:37Z</time>
      </trkpt>
      <trkpt lat="50.07779" lon="5.2151">
        <ele>131</ele>
        <time>2015-04-06T07:10:42Z</time>
      </trkpt>
      <trkpt lat="50.07773" lon="5.21506">
        <ele>132</ele>
        <time>2015-04-06T07:10:48Z</time>
      </trkpt>
      <trkpt lat="50.07766" lon="5.21502">
        <ele>133</ele>
        <time>2015-04-06T07:10:54Z</time>
      </trkpt>
      <trkpt lat="50.07761" lon="5.21498">
        <ele>134</ele>
        <time>2015-04-06T07:10:59Z</time>
      </trkpt>
      <trkpt lat="50.07756" lon="5.21495">
        <ele>135</ele>
        <time>2015-04-06T07:11:04Z</time>
      </trkpt>
      <trkpt lat="50.07749" lon="5.21491">
        <ele>136</ele>
        <time>2015-04-06T07:11:09Z</time>
      </trkpt>
      <trkpt lat="50.07742" lon="5.21487">
        <ele>137</ele>
        <time>2015-04-06T07:11:14Z</time>
      </trkpt>
      <trkpt lat="50.07736" lon="5.21483">
        <ele>139</ele>
        <time>2015-04-06T07:11:19Z</time>
      </trkpt>
      <trkpt lat="50.07731" lon="5.21479">
        <ele>140</ele>
        <time>2015-04-06T07:11:24Z</time>
      </trkpt>
      <trkpt lat="50.07724" lon="5.21474">
        <ele>141</ele>
        <time>2015-04-06T07:11:29Z</time>
      </trkpt>
      <trkpt lat="50.07719" lon="5.21465">
        <ele>142</ele>
        <time>2015-04-06T07:11:35Z</time>
      </trkpt>
      <trkpt lat="50.07718" lon="5.2146">
        <ele>143</ele>
        <time>2015-04-06T07:11:41Z</time>
      </trkpt>
      <trkpt lat="50.07713" lon="5.21454">
        <ele>144</ele>
        <time>2015-04-06T07:11:47Z</time>
      </trkpt>
      <trkpt lat="50.07708" lon="5.21449">
        <ele>144</ele>
        <time>2015-04-06T07:11:52Z</time>
      </trkpt>
      <trkpt lat="50.07709" lon="5.21445">
        <ele>145</ele>
        <time>2015-04-06T07:11:57Z</time>
      </trkpt>
      <trkpt lat="50.07708" lon="5.21443">
        <ele>145</ele>
        <time>2015-04-06T07:12:03Z</time>
      </trkpt>
      <trkpt lat="50.07708" lon="5.21443">
        <ele>146</ele>
        <time>2015-04-06T07:12:08Z</time>
      </trkpt>
      <trkpt lat="50.07707" lon="5.21443">
        <ele>145</ele>
        <time>2015-04-06T07:12:14Z</time>
      </trkpt>
      <trkpt lat="50.07706" lon="5.21443">
        <ele>145</ele>
        <time>2015-04-06T07:12:20Z</time>
      </trkpt>
      <trkpt lat="50.07706" lon="5.21443">
        <ele>146</ele>
        <time>2015-04-06T07:12:25Z</time>
      </trkpt>
      <trkpt lat="50.07705" lon="5.21443">
        <ele>145</ele>
        <time>2015-04-06T07:12:30Z</time>
      </trkpt>
      <trkpt lat="50.07702" lon="5.21442">
        <ele>146</ele>
        <time>2015-04-06T07:12:35Z</time>
      </trkpt>
      <trkpt lat="50.07698" lon="5.21438">
        <ele>146</ele>
        <time>2015-04-06T07:12:40Z</time>
      </trkpt>
      <trkpt lat="50.07696" lon="5.21433">
        <ele>147</ele>
        <time>2015-04-06T07:12:46Z</time>
      </trkpt>
      <trkpt lat="50.07693" lon="5.21431">
        <ele>148</ele>
        <time>2015-04-06T07:12:51Z</time>
      </trkpt>
      <trkpt lat="50.07689" lon="5.21425">
        <ele>149</ele>
        <time>2015-04-06T07:12:57Z</time>
      </trkpt>
      <trkpt lat="50.07687" lon="5.21418">
        <ele>149</ele>
        <time>2015-04-06T07:13:02Z</time>
      </trkpt>
      <trkpt lat="50.07684" lon="5.2141">
        <ele>150</ele>
        <time>2015-04-06T07:13:07Z</time>
      </trkpt>
      <trkpt lat="50.07683" lon="5.21403">
        <ele>151</ele>
        <time>2015-04-06T07:13:12Z</time>
      </trkpt>
      <trkpt lat="50.0768" lon="5.21394">
        <ele>152</ele>
        <time>2015-04-06T07:13:18Z</time>
      </trkpt>
      <trkpt lat="50.07678" lon="5.21386">
        <ele>153</ele>
        <time>2015-04-06T07:13:23Z</time>
      </trkpt>
      <trkpt lat="50.07675" lon="5.21377">
        <ele>155</ele>
        <time>2015-04-06T07:13:29Z</time>
      </trkpt>
      <trkpt lat="50.07673" lon="5.2137">
        <ele>156</ele>
        <time>2015-04-06T07:13:34Z</time>
      </trkpt>
      <trkpt lat="50.07669" lon="5.21363">
        <ele>156</ele>
        <time>2015-04-06T07:13:40Z</time>
      </trkpt>
      <trkpt lat="50.07666" lon="5.21357">
        <ele>157</ele>
        <time>2015-04-06T07:13:45Z</time>
      </trkpt>
      <trkpt lat="50.07663" lon="5.21351">
        <ele>157</ele>
        <time>2015-04-06T07:13:50Z</time>
      </trkpt>
      <trkpt lat="50.07659" lon="5.21345">
        <ele>158</ele>
        <time>2015-04-06T07:13:55Z</time>
      </trkpt>
      <trkpt lat="50.07654" lon="5.21339">
        <ele>159</ele>
        <time>2015-04-06T07:14:01Z</time>
      </trkpt>
      <trkpt lat="50.07649" lon="5.21333">
        <ele>160</ele>
        <time>2015-04-06T07:14:06Z</time>
      </trkpt>
      <trkpt lat="50.07645" lon="5.21327">
        <ele>161</ele>
        <time>2015-04-06T07:14:11Z</time>
      </trkpt>
      <trkpt lat="50.07639" lon="5.21321">
        <ele>162</ele>
        <time>2015-04-06T07:14:17Z</time>
      </trkpt>
      <trkpt lat="50.07634" lon="5.21315">
        <ele>162</ele>
        <time>2015-04-06T07:14:22Z</time>
      </trkpt>
      <trkpt lat="50.07627" lon="5.2131">
        <ele>163</ele>
        <time>2015-04-06T07:14:28Z</time>
      </trkpt>
      <trkpt lat="50.07621" lon="5.21303">
        <ele>164</ele>
        <time>2015-04-06T07:14:33Z</time>
      </trkpt>
      <trkpt lat="50.07616" lon="5.21301">
        <ele>164</ele>
        <time>2015-04-06T07:14:39Z</time>
      </trkpt>
      <trkpt lat="50.07611" lon="5.21297">
        <ele>164</ele>
        <time>2015-04-06T07:14:44Z</time>
      </trkpt>
      <trkpt lat="50.07605" lon="5.21293">
        <ele>164</ele>
        <time>2015-04-06T07:14:49Z</time>
      </trkpt>
      <trkpt lat="50.07598" lon="5.21289">
        <ele>165</ele>
        <time>2015-04-06T07:14:55Z</time>
      </trkpt>
      <trkpt lat="50.07593" lon="5.21285">
        <ele>166</ele>
        <time>2015-04-06T07:15:00Z</time>
      </trkpt>
      <trkpt lat="50.07586" lon="5.21281">
        <ele>167</ele>
        <time>2015-04-06T07:15:06Z</time>
      </trkpt>
      <trkpt lat="50.07585" lon="5.21279">
        <ele>167</ele>
        <time>2015-04-06T07:15:11Z</time>
      </trkpt>
      <trkpt lat="50.07583" lon="5.21278">
        <ele>167</ele>
        <time>2015-04-06T07:15:16Z</time>
      </trkpt>
      <trkpt lat="50.07578" lon="5.21274">
        <ele>167</ele>
        <time>2015-04-06T07:15:22Z</time>
      </trkpt>
      <trkpt lat="50.07573" lon="5.21271">
        <ele>168</ele>
        <time>2015-04-06T07:15:27Z</time>
      </trkpt>
      <trkpt lat="50.07567" lon="5.21268">
        <ele>169</ele>
        <time>2015-04-06T07:15:33Z</time>
      </trkpt>
      <trkpt lat="50.0756" lon="5.21267">
        <ele>170</ele>
        <time>2015-04-06T07:15:39Z</time>
      </trkpt>
      <trkpt lat="50.07554" lon="5.21266">
        <ele>171</ele>
        <time>2015-04-06T07:15:44Z</time>
      </trkpt>
      <trkpt lat="50.07552" lon="5.21265">
        <ele>171</ele>
        <time>2015-04-06T07:15:49Z</time>
      </trkpt>
      <trkpt lat="50.07551" lon="5.21266">
        <ele>172</ele>
        <time>2015-04-06T07:15:55Z</time>
      </trkpt>
      <trkpt lat="50.0755" lon="5.2127">
        <ele>172</ele>
        <time>2015-04-06T07:16:01Z</time>
      </trkpt>
      <trkpt lat="50.07544" lon="5.21271">
        <ele>172</ele>
        <time>2015-04-06T07:16:07Z</time>
      </trkpt>
      <trkpt lat="50.07539" lon="5.2127">
        <ele>172</ele>
        <time>2015-04-06T07:16:12Z</time>
      </trkpt>
      <trkpt lat="50.07535" lon="5.21269">
        <ele>173</ele>
        <time>2015-04-06T07:16:17Z</time>
      </trkpt>
      <trkpt lat="50.07533" lon="5.21269">
        <ele>174</ele>
        <time>2015-04-06T07:16:22Z</time>
      </trkpt>
      <trkpt lat="50.07529" lon="5.21269">
        <ele>174</ele>
        <time>2015-04-06T07:16:28Z</time>
      </trkpt>
      <trkpt lat="50.07524" lon="5.2127">
        <ele>175</ele>
        <time>2015-04-06T07:16:33Z</time>
      </trkpt>
      <trkpt lat="50.07518" lon="5.21271">
        <ele>176</ele>
        <time>2015-04-06T07:16:39Z</time>
      </trkpt>
      <trkpt lat="50.07513" lon="5.2127">
        <ele>177</ele>
        <time>2015-04-06T07:16:44Z</time>
      </trkpt>
      <trkpt lat="50.07507" lon="5.21271">
        <ele>178</ele>
        <time>2015-04-06T07:16:49Z</time>
      </trkpt>
      <trkpt lat="50.07502" lon="5.21272">
        <ele>179</ele>
        <time>2015-04-06T07:16:55Z</time>
      </trkpt>
      <trkpt lat="50.07498" lon="5.21275">
        <ele>180</ele>
        <time>2015-04-06T07:17:01Z</time>
      </trkpt>
      <trkpt lat="50.07495" lon="5.21277">
        <ele>180</ele>
        <time>2015-04-06T07:17:07Z</time>
      </trkpt>
      <trkpt lat="50.07492" lon="5.21281">
        <ele>181</ele>
        <time>2015-04-06T07:17:12Z</time>
      </trkpt>
      <trkpt lat="50.07489" lon="5.21283">
        <ele>181</ele>
        <time>2015-04-06T07:17:17Z</time>
      </trkpt>
      <trkpt lat="50.07487" lon="5.21285">
        <ele>182</ele>
        <time>2015-04-06T07:17:23Z</time>
      </trkpt>
      <trkpt lat="50.07486" lon="5.21286">
        <ele>182</ele>
        <time>2015-04-06T07:17:28Z</time>
      </trkpt>
      <trkpt lat="50.07485" lon="5.21285">
        <ele>181</ele>
        <time>2015-04-06T07:17:33Z</time>
      </trkpt>
      <trkpt lat="50.07485" lon="5.21287">
        <ele>181</ele>
        <time>2015-04-06T07:17:40Z</time>
      </trkpt>
      <trkpt lat="50.07485" lon="5.21288">
        <ele>181</ele>
        <time>2015-04-06T07:17:47Z</time>
      </trkpt>
      <trkpt lat="50.07485" lon="5.21288">
        <ele>181</ele>
        <time>2015-04-06T07:17:54Z</time>
      </trkpt>
      <trkpt lat="50.07484" lon="5.21288">
        <ele>181</ele>
        <time>2015-04-06T07:18:00Z</time>
      </trkpt>
      <trkpt lat="50.07484" lon="5.21288">
        <ele>181</ele>
        <time>2015-04-06T07:18:05Z</time>
      </trkpt>
      <trkpt lat="50.07483" lon="5.21288">
        <ele>181</ele>
        <time>2015-04-06T07:18:11Z</time>
      </trkpt>
      <trkpt lat="50.07483" lon="5.21287">
        <ele>181</ele>
        <time>2015-04-06T07:18:17Z</time>
      </trkpt>
      <trkpt lat="50.07484" lon="5.21287">
        <ele>181</ele>
        <time>2015-04-06T07:18:22Z</time>
      </trkpt>
      <trkpt lat="50.07483" lon="5.21286">
        <ele>180</ele>
        <time>2015-04-06T07:18:28Z</time>
      </trkpt>
      <trkpt lat="50.07484" lon="5.21286">
        <ele>182</ele>
        <time>2015-04-06T07:18:34Z</time>
      </trkpt>
      <trkpt lat="50.07484" lon="5.21286">
        <ele>182</ele>
        <time>2015-04-06T07:18:39Z</time>
      </trkpt>
      <trkpt lat="50.07484" lon="5.21287">
        <ele>182</ele>
        <time>2015-04-06T07:18:45Z</time>
      </trkpt>
      <trkpt lat="50.07482" lon="5.21287">
        <ele>182</ele>
        <time>2015-04-06T07:18:50Z</time>
      </trkpt>
      <trkpt lat="50.07477" lon="5.21287">
        <ele>182</ele>
        <time>2015-04-06T07:18:56Z</time>
      </trkpt>
      <trkpt lat="50.07473" lon="5.21288">
        <ele>184</ele>
        <time>2015-04-06T07:19:01Z</time>
      </trkpt>
      <trkpt lat="50.07468" lon="5.21288">
        <ele>184</ele>
        <time>2015-04-06T07:19:06Z</time>
      </trkpt>
      <trkpt lat="50.07461" lon="5.21287">
        <ele>186</ele>
        <time>2015-04-06T07:19:12Z</time>
      </trkpt>
      <trkpt lat="50.07456" lon="5.21288">
        <ele>187</ele>
        <time>2015-04-06T07:19:17Z</time>
      </trkpt>
      <trkpt lat="50.0745" lon="5.2129">
        <ele>188</ele>
        <time>2015-04-06T07:19:23Z</time>
      </trkpt>
      <trkpt lat="50.07443" lon="5.21291">
        <ele>188</ele>
        <time>2015-04-06T07:19:28Z</time>
      </trkpt>
      <trkpt lat="50.07437" lon="5.21292">
        <ele>189</ele>
        <time>2015-04-06T07:19:33Z</time>
      </trkpt>
      <trkpt lat="50.07431" lon="5.21293">
        <ele>190</ele>
        <time>2015-04-06T07:19:39Z</time>
      </trkpt>
      <trkpt lat="50.07425" lon="5.21294">
        <ele>192</ele>
        <time>2015-04-06T07:19:44Z</time>
      </trkpt>
      <trkpt lat="50.07419" lon="5.21296">
        <ele>192</ele>
        <time>2015-04-06T07:19:49Z</time>
      </trkpt>
      <trkpt lat="50.07413" lon="5.21298">
        <ele>193</ele>
        <time>2015-04-06T07:19:54Z</time>
      </trkpt>
      <trkpt lat="50.07407" lon="5.21299">
        <ele>194</ele>
        <time>2015-04-06T07:19:59Z</time>
      </trkpt>
      <trkpt lat="50.07401" lon="5.21301">
        <ele>194</ele>
        <time>2015-04-06T07:20:04Z</time>
      </trkpt>
      <trkpt lat="50.07394" lon="5.21304">
        <ele>195</ele>
        <time>2015-04-06T07:20:10Z</time>
      </trkpt>
      <trkpt lat="50.07387" lon="5.21308">
        <ele>196</ele>
        <time>2015-04-06T07:20:16Z</time>
      </trkpt>
      <trkpt lat="50.07381" lon="5.2131">
        <ele>196</ele>
        <time>2015-04-06T07:20:21Z</time>
      </trkpt>
      <trkpt lat="50.07375" lon="5.21313">
        <ele>197</ele>
        <time>2015-04-06T07:20:26Z</time>
      </trkpt>
      <trkpt lat="50.07367" lon="5.21316">
        <ele>197</ele>
        <time>2015-04-06T07:20:31Z</time>
      </trkpt>
      <trkpt lat="50.07361" lon="5.21319">
        <ele>197</ele>
        <time>2015-04-06T07:20:36Z</time>
      </trkpt>
      <trkpt lat="50.07355" lon="5.2132">
        <ele>197</ele>
        <time>2015-04-06T07:20:41Z</time>
      </trkpt>
      <trkpt lat="50.07347" lon="5.21322">
        <ele>197</ele>
        <time>2015-04-06T07:20:47Z</time>
      </trkpt>
      <trkpt lat="50.07342" lon="5.21323">
        <ele>198</ele>
        <time>2015-04-06T07:20:52Z</time>
      </trkpt>
      <trkpt lat="50.07336" lon="5.21324">
        <ele>198</ele>
        <time>2015-04-06T07:20:57Z</time>
      </trkpt>
      <trkpt lat="50.07328" lon="5.21324">
        <ele>198</ele>
        <time>2015-04-06T07:21:03Z</time>
      </trkpt>
      <trkpt lat="50.07322" lon="5.21323">
        <ele>198</ele>
        <time>2015-04-06T07:21:08Z</time>
      </trkpt>
      <trkpt lat="50.07315" lon="5.21322">
        <ele>198</ele>
        <time>2015-04-06T07:21:14Z</time>
      </trkpt>
      <trkpt lat="50.07309" lon="5.21321">
        <ele>198</ele>
        <time>2015-04-06T07:21:19Z</time>
      </trkpt>
      <trkpt lat="50.07304" lon="5.2132">
        <ele>198</ele>
        <time>2015-04-06T07:21:24Z</time>
      </trkpt>
      <trkpt lat="50.07297" lon="5.21319">
        <ele>198</ele>
        <time>2015-04-06T07:21:30Z</time>
      </trkpt>
      <trkpt lat="50.07291" lon="5.21318">
        <ele>198</ele>
        <time>2015-04-06T07:21:35Z</time>
      </trkpt>
      <trkpt lat="50.07283" lon="5.21318">
        <ele>198</ele>
        <time>2015-04-06T07:21:41Z</time>
      </trkpt>
      <trkpt lat="50.07277" lon="5.21317">
        <ele>198</ele>
        <time>2015-04-06T07:21:46Z</time>
      </trkpt>
      <trkpt lat="50.07272" lon="5.21315">
        <ele>199</ele>
        <time>2015-04-06T07:21:51Z</time>
      </trkpt>
      <trkpt lat="50.07266" lon="5.21314">
        <ele>198</ele>
        <time>2015-04-06T07:21:56Z</time>
      </trkpt>
      <trkpt lat="50.07258" lon="5.21314">
        <ele>199</ele>
        <time>2015-04-06T07:22:02Z</time>
      </trkpt>
      <trkpt lat="50.07251" lon="5.21313">
        <ele>199</ele>
        <time>2015-04-06T07:22:07Z</time>
      </trkpt>
      <trkpt lat="50.07244" lon="5.21311">
        <ele>199</ele>
        <time>2015-04-06T07:22:13Z</time>
      </trkpt>
      <trkpt lat="50.07238" lon="5.21309">
        <ele>199</ele>
        <time>2015-04-06T07:22:18Z</time>
      </trkpt>
      <trkpt lat="50.07232" lon="5.21309">
        <ele>199</ele>
        <time>2015-04-06T07:22:23Z</time>
      </trkpt>
      <trkpt lat="50.07225" lon="5.21308">
        <ele>199</ele>
        <time>2015-04-06T07:22:28Z</time>
      </trkpt>
      <trkpt lat="50.07218" lon="5.21306">
        <ele>200</ele>
        <time>2015-04-06T07:22:34Z</time>
      </trkpt>
      <trkpt lat="50.07211" lon="5.21306">
        <ele>200</ele>
        <time>2015-04-06T07:22:39Z</time>
      </trkpt>
      <trkpt lat="50.07204" lon="5.21308">
        <ele>200</ele>
        <time>2015-04-06T07:22:44Z</time>
      </trkpt>
      <trkpt lat="50.07197" lon="5.21309">
        <ele>200</ele>
        <time>2015-04-06T07:22:49Z</time>
      </trkpt>
      <trkpt lat="50.0719" lon="5.2131">
        <ele>201</ele>
        <time>2015-04-06T07:22:55Z</time>
      </trkpt>
      <trkpt lat="50.07187" lon="5.21312">
        <ele>201</ele>
        <time>2015-04-06T07:23:00Z</time>
      </trkpt>
      <trkpt lat="50.07186" lon="5.21315">
        <ele>200</ele>
        <time>2015-04-06T07:23:05Z</time>
      </trkpt>
      <trkpt lat="50.07183" lon="5.21317">
        <ele>200</ele>
        <time>2015-04-06T07:23:11Z</time>
      </trkpt>
      <trkpt lat="50.07178" lon="5.21318">
        <ele>201</ele>
        <time>2015-04-06T07:23:16Z</time>
      </trkpt>
      <trkpt lat="50.07173" lon="5.21318">
        <ele>202</ele>
        <time>2015-04-06T07:23:22Z</time>
      </trkpt>
      <trkpt lat="50.07166" lon="5.21321">
        <ele>202</ele>
        <time>2015-04-06T07:23:28Z</time>
      </trkpt>
      <trkpt lat="50.07159" lon="5.21323">
        <ele>203</ele>
        <time>2015-04-06T07:23:34Z</time>
      </trkpt>
      <trkpt lat="50.07152" lon="5.21327">
        <ele>203</ele>
        <time>2015-04-06T07:23:40Z</time>
      </trkpt>
      <trkpt lat="50.07146" lon="5.2133">
        <ele>204</ele>
        <time>2015-04-06T07:23:45Z</time>
      </trkpt>
      <trkpt lat="50.07139" lon="5.21334">
        <ele>205</ele>
        <time>2015-04-06T07:23:51Z</time>
      </trkpt>
      <trkpt lat="50.07134" lon="5.21337">
        <ele>206</ele>
        <time>2015-04-06T07:23:56Z</time>
      </trkpt>
      <trkpt lat="50.07129" lon="5.2134">
        <ele>206</ele>
        <time>2015-04-06T07:24:01Z</time>
      </trkpt>
      <trkpt lat="50.07123" lon="5.21343">
        <ele>207</ele>
        <time>2015-04-06T07:24:07Z</time>
      </trkpt>
      <trkpt lat="50.07116" lon="5.21348">
        <ele>207</ele>
        <time>2015-04-06T07:24:13Z</time>
      </trkpt>
      <trkpt lat="50.07111" lon="5.2135">
        <ele>208</ele>
        <time>2015-04-06T07:24:19Z</time>
      </trkpt>
      <trkpt lat="50.07104" lon="5.21355">
        <ele>208</ele>
        <time>2015-04-06T07:24:25Z</time>
      </trkpt>
      <trkpt lat="50.071" lon="5.21358">
        <ele>209</ele>
        <time>2015-04-06T07:24:30Z</time>
      </trkpt>
      <trkpt lat="50.07093" lon="5.21362">
        <ele>209</ele>
        <time>2015-04-06T07:24:36Z</time>
      </trkpt>
      <trkpt lat="50.07086" lon="5.21367">
        <ele>209</ele>
        <time>2015-04-06T07:24:42Z</time>
      </trkpt>
      <trkpt lat="50.0708" lon="5.2137">
        <ele>210</ele>
        <time>2015-04-06T07:24:47Z</time>
      </trkpt>
      <trkpt lat="50.07076" lon="5.21376">
        <ele>210</ele>
        <time>2015-04-06T07:24:53Z</time>
      </trkpt>
      <trkpt lat="50.07073" lon="5.21379">
        <ele>210</ele>
        <time>2015-04-06T07:24:58Z</time>
      </trkpt>
      <trkpt lat="50.07067" lon="5.21383">
        <ele>211</ele>
        <time>2015-04-06T07:25:04Z</time>
      </trkpt>
      <trkpt lat="50.07061" lon="5.21386">
        <ele>210</ele>
        <time>2015-04-06T07:25:10Z</time>
      </trkpt>
      <trkpt lat="50.07055" lon="5.21388">
        <ele>211</ele>
        <time>2015-04-06T07:25:15Z</time>
      </trkpt>
      <trkpt lat="50.07047" lon="5.2139">
        <ele>212</ele>
        <time>2015-04-06T07:25:21Z</time>
      </trkpt>
      <trkpt lat="50.07041" lon="5.21391">
        <ele>212</ele>
        <time>2015-04-06T07:25:26Z</time>
      </trkpt>
      <trkpt lat="50.07035" lon="5.21392">
        <ele>212</ele>
        <time>2015-04-06T07:25:31Z</time>
      </trkpt>
      <trkpt lat="50.07028" lon="5.21394">
        <ele>213</ele>
        <time>2015-04-06T07:25:37Z</time>
      </trkpt>
      <trkpt lat="50.07021" lon="5.21396">
        <ele>213</ele>
        <time>2015-04-06T07:25:43Z</time>
      </trkpt>
      <trkpt lat="50.07015" lon="5.21398">
        <ele>213</ele>
        <time>2015-04-06T07:25:48Z</time>
      </trkpt>
      <trkpt lat="50.07009" lon="5.21399">
        <ele>214</ele>
        <time>2015-04-06T07:25:53Z</time>
      </trkpt>
      <trkpt lat="50.07001" lon="5.21402">
        <ele>214</ele>
        <time>2015-04-06T07:25:59Z</time>
      </trkpt>
      <trkpt lat="50.06995" lon="5.21403">
        <ele>215</ele>
        <time>2015-04-06T07:26:05Z</time>
      </trkpt>
      <trkpt lat="50.06992" lon="5.21403">
        <ele>215</ele>
        <time>2015-04-06T07:26:10Z</time>
      </trkpt>
      <trkpt lat="50.0699" lon="5.21402">
        <ele>215</ele>
        <time>2015-04-06T07:26:16Z</time>
      </trkpt>
      <trkpt lat="50.06988" lon="5.21398">
        <ele>215</ele>
        <time>2015-04-06T07:26:22Z</time>
      </trkpt>
      <trkpt lat="50.06987" lon="5.21393">
        <ele>215</ele>
        <time>2015-04-06T07:26:28Z</time>
      </trkpt>
      <trkpt lat="50.06985" lon="5.2139">
        <ele>215</ele>
        <time>2015-04-06T07:26:33Z</time>
      </trkpt>
      <trkpt lat="50.06981" lon="5.2139">
        <ele>216</ele>
        <time>2015-04-06T07:26:39Z</time>
      </trkpt>
      <trkpt lat="50.06979" lon="5.2139">
        <ele>216</ele>
        <time>2015-04-06T07:26:45Z</time>
      </trkpt>
      <trkpt lat="50.06974" lon="5.21391">
        <ele>217</ele>
        <time>2015-04-06T07:26:51Z</time>
      </trkpt>
      <trkpt lat="50.06967" lon="5.21394">
        <ele>217</ele>
        <time>2015-04-06T07:26:57Z</time>
      </trkpt>
      <trkpt lat="50.06961" lon="5.21398">
        <ele>218</ele>
        <time>2015-04-06T07:27:02Z</time>
      </trkpt>
      <trkpt lat="50.06953" lon="5.21404">
        <ele>218</ele>
        <time>2015-04-06T07:27:08Z</time>
      </trkpt>
      <trkpt lat="50.06944" lon="5.21409">
        <ele>219</ele>
        <time>2015-04-06T07:27:14Z</time>
      </trkpt>
      <trkpt lat="50.06937" lon="5.21412">
        <ele>220</ele>
        <time>2015-04-06T07:27:20Z</time>
      </trkpt>
      <trkpt lat="50.06932" lon="5.21418">
        <ele>220</ele>
        <time>2015-04-06T07:27:25Z</time>
      </trkpt>
      <trkpt lat="50.06928" lon="5.2142">
        <ele>220</ele>
        <time>2015-04-06T07:27:30Z</time>
      </trkpt>
      <trkpt lat="50.06923" lon="5.21424">
        <ele>221</ele>
        <time>2015-04-06T07:27:35Z</time>
      </trkpt>
      <trkpt lat="50.06918" lon="5.21426">
        <ele>222</ele>
        <time>2015-04-06T07:27:40Z</time>
      </trkpt>
      <trkpt lat="50.06911" lon="5.21428">
        <ele>222</ele>
        <time>2015-04-06T07:27:46Z</time>
      </trkpt>
      <trkpt lat="50.06905" lon="5.2143">
        <ele>223</ele>
        <time>2015-04-06T07:27:51Z</time>
      </trkpt>
      <trkpt lat="50.069" lon="5.21433">
        <ele>223</ele>
        <time>2015-04-06T07:27:56Z</time>
      </trkpt>
      <trkpt lat="50.06892" lon="5.21438">
        <ele>224</ele>
        <time>2015-04-06T07:28:02Z</time>
      </trkpt>
      <trkpt lat="50.06887" lon="5.21443">
        <ele>225</ele>
        <time>2015-04-06T07:28:08Z</time>
      </trkpt>
      <trkpt lat="50.06884" lon="5.21445">
        <ele>224</ele>
        <time>2015-04-06T07:28:14Z</time>
      </trkpt>
      <trkpt lat="50.06882" lon="5.21448">
        <ele>224</ele>
        <time>2015-04-06T07:28:20Z</time>
      </trkpt>
      <trkpt lat="50.06881" lon="5.2145">
        <ele>224</ele>
        <time>2015-04-06T07:28:26Z</time>
      </trkpt>
      <trkpt lat="50.06879" lon="5.21451">
        <ele>225</ele>
        <time>2015-04-06T07:28:32Z</time>
      </trkpt>
      <trkpt lat="50.06872" lon="5.21454">
        <ele>225</ele>
        <time>2015-04-06T07:28:38Z</time>
      </trkpt>
      <trkpt lat="50.06865" lon="5.21455">
        <ele>226</ele>
        <time>2015-04-06T07:28:44Z</time>
      </trkpt>
      <trkpt lat="50.0686" lon="5.21457">
        <ele>226</ele>
        <time>2015-04-06T07:28:49Z</time>
      </trkpt>
      <trkpt lat="50.06854" lon="5.2146">
        <ele>227</ele>
        <time>2015-04-06T07:28:54Z</time>
      </trkpt>
      <trkpt lat="50.06847" lon="5.21463">
        <ele>228</ele>
        <time>2015-04-06T07:29:00Z</time>
      </trkpt>
      <trkpt lat="50.06842" lon="5.21467">
        <ele>228</ele>
        <time>2015-04-06T07:29:06Z</time>
      </trkpt>
      <trkpt lat="50.06838" lon="5.2147">
        <ele>228</ele>
        <time>2015-04-06T07:29:11Z</time>
      </trkpt>
      <trkpt lat="50.06834" lon="5.21472">
        <ele>229</ele>
        <time>2015-04-06T07:29:17Z</time>
      </trkpt>
      <trkpt lat="50.06829" lon="5.21474">
        <ele>229</ele>
        <time>2015-04-06T07:29:23Z</time>
      </trkpt>
      <trkpt lat="50.06823" lon="5.21476">
        <ele>229</ele>
        <time>2015-04-06T07:29:29Z</time>
      </trkpt>
      <trkpt lat="50.06818" lon="5.21479">
        <ele>230</ele>
        <time>2015-04-06T07:29:34Z</time>
      </trkpt>
      <trkpt lat="50.06811" lon="5.21481">
        <ele>230</ele>
        <time>2015-04-06T07:29:40Z</time>
      </trkpt>
      <trkpt lat="50.06805" lon="5.21484">
        <ele>231</ele>
        <time>2015-04-06T07:29:46Z</time>
      </trkpt>
      <trkpt lat="50.06798" lon="5.21487">
        <ele>232</ele>
        <time>2015-04-06T07:29:52Z</time>
      </trkpt>
      <trkpt lat="50.06792" lon="5.21489">
        <ele>232</ele>
        <time>2015-04-06T07:29:58Z</time>
      </trkpt>
      <trkpt lat="50.06785" lon="5.21491">
        <ele>233</ele>
        <time>2015-04-06T07:30:03Z</time>
      </trkpt>
      <trkpt lat="50.06779" lon="5.21492">
        <ele>233</ele>
        <time>2015-04-06T07:30:09Z</time>
      </trkpt>
      <trkpt lat="50.06773" lon="5.21493">
        <ele>234</ele>
        <time>2015-04-06T07:30:14Z</time>
      </trkpt>
      <trkpt lat="50.06768" lon="5.21495">
        <ele>234</ele>
        <time>2015-04-06T07:30:19Z</time>
      </trkpt>
      <trkpt lat="50.06762" lon="5.21496">
        <ele>234</ele>
        <time>2015-04-06T07:30:25Z</time>
      </trkpt>
      <trkpt lat="50.06755" lon="5.21499">
        <ele>235</ele>
        <time>2015-04-06T07:30:31Z</time>
      </trkpt>
      <trkpt lat="50.0675" lon="5.21501">
        <ele>235</ele>
        <time>2015-04-06T07:30:37Z</time>
      </trkpt>
      <trkpt lat="50.06749" lon="5.21502">
        <ele>235</ele>
        <time>2015-04-06T07:30:42Z</time>
      </trkpt>
      <trkpt lat="50.06749" lon="5.21504">
        <ele>235</ele>
        <time>2015-04-06T07:30:47Z</time>
      </trkpt>
      <trkpt lat="50.06751" lon="5.21504">
        <ele>235</ele>
        <time>2015-04-06T07:30:53Z</time>
      </trkpt>
      <trkpt lat="50.06752" lon="5.21505">
        <ele>236</ele>
        <time>2015-04-06T07:30:58Z</time>
      </trkpt>
      <trkpt lat="50.06754" lon="5.21506">
        <ele>235</ele>
        <time>2015-04-06T07:31:03Z</time>
      </trkpt>
      <trkpt lat="50.06754" lon="5.21509">
        <ele>235</ele>
        <time>2015-04-06T07:31:09Z</time>
      </trkpt>
      <trkpt lat="50.06749" lon="5.2151">
        <ele>236</ele>
        <time>2015-04-06T07:31:14Z</time>
      </trkpt>
      <trkpt lat="50.06742" lon="5.21511">
        <ele>236</ele>
        <time>2015-04-06T07:31:20Z</time>
      </trkpt>
      <trkpt lat="50.06735" lon="5.21511">
        <ele>236</ele>
        <time>2015-04-06T07:31:26Z</time>
      </trkpt>
      <trkpt lat="50.06727" lon="5.21513">
        <ele>237</ele>
        <time>2015-04-06T07:31:32Z</time>
      </trkpt>
      <trkpt lat="50.06721" lon="5.21515">
        <ele>237</ele>
        <time>2015-04-06T07:31:37Z</time>
      </trkpt>
      <trkpt lat="50.06715" lon="5.21516">
        <ele>236</ele>
        <time>2015-04-06T07:31:42Z</time>
      </trkpt>
      <trkpt lat="50.06707" lon="5.21518">
        <ele>237</ele>
        <time>2015-04-06T07:31:48Z</time>
      </trkpt>
      <trkpt lat="50.06699" lon="5.2152">
        <ele>237</ele>
        <time>2015-04-06T07:31:54Z</time>
      </trkpt>
      <trkpt lat="50.06693" lon="5.21522">
        <ele>236</ele>
        <time>2015-04-06T07:31:59Z</time>
      </trkpt>
      <trkpt lat="50.06687" lon="5.21523">
        <ele>237</ele>
        <time>2015-04-06T07:32:04Z</time>
      </trkpt>
      <trkpt lat="50.0668" lon="5.21525">
        <ele>237</ele>
        <time>2015-04-06T07:32:10Z</time>
      </trkpt>
      <trkpt lat="50.06673" lon="5.21526">
        <ele>237</ele>
        <time>2015-04-06T07:32:15Z</time>
      </trkpt>
      <trkpt lat="50.06665" lon="5.21529">
        <ele>237</ele>
        <time>2015-04-06T07:32:21Z</time>
      </trkpt>
      <trkpt lat="50.06657" lon="5.21531">
        <ele>237</ele>
        <time>2015-04-06T07:32:27Z</time>
      </trkpt>
      <trkpt lat="50.06651" lon="5.21533">
        <ele>237</ele>
        <time>2015-04-06T07:32:33Z</time>
      </trkpt>
      <trkpt lat="50.06649" lon="5.21532">
        <ele>237</ele>
        <time>2015-04-06T07:32:39Z</time>
      </trkpt>
      <trkpt lat="50.06648" lon="5.21532">
        <ele>238</ele>
        <time>2015-04-06T07:32:44Z</time>
      </trkpt>
      <trkpt lat="50.06647" lon="5.21533">
        <ele>237</ele>
        <time>2015-04-06T07:32:50Z</time>
      </trkpt>
      <trkpt lat="50.06647" lon="5.21533">
        <ele>238</ele>
        <time>2015-04-06T07:32:55Z</time>
      </trkpt>
      <trkpt lat="50.06648" lon="5.21533">
        <ele>237</ele>
        <time>2015-04-06T07:33:01Z</time>
      </trkpt>
      <trkpt lat="50.06648" lon="5.21537">
        <ele>237</ele>
        <time>2015-04-06T07:33:06Z</time>
      </trkpt>
      <trkpt lat="50.06649" lon="5.21545">
        <ele>237</ele>
        <time>2015-04-06T07:33:12Z</time>
      </trkpt>
      <trkpt lat="50.0665" lon="5.21555">
        <ele>237</ele>
        <time>2015-04-06T07:33:18Z</time>
      </trkpt>
      <trkpt lat="50.06651" lon="5.21563">
        <ele>237</ele>
        <time>2015-04-06T07:33:23Z</time>
      </trkpt>
      <trkpt lat="50.06652" lon="5.21575">
        <ele>237</ele>
        <time>2015-04-06T07:33:29Z</time>
      </trkpt>
      <trkpt lat="50.06651" lon="5.21585">
        <ele>237</ele>
        <time>2015-04-06T07:33:34Z</time>
      </trkpt>
      <trkpt lat="50.06651" lon="5.21593">
        <ele>237</ele>
        <time>2015-04-06T07:33:39Z</time>
      </trkpt>
      <trkpt lat="50.0665" lon="5.21605">
        <ele>237</ele>
        <time>2015-04-06T07:33:45Z</time>
      </trkpt>
      <trkpt lat="50.06649" lon="5.21617">
        <ele>237</ele>
        <time>2015-04-06T07:33:51Z</time>
      </trkpt>
      <trkpt lat="50.06647" lon="5.21628">
        <ele>237</ele>
        <time>2015-04-06T07:33:56Z</time>
      </trkpt>
      <trkpt lat="50.06646" lon="5.21641">
        <ele>237</ele>
        <time>2015-04-06T07:34:02Z</time>
      </trkpt>
      <trkpt lat="50.06646" lon="5.21652">
        <ele>237</ele>
        <time>2015-04-06T07:34:07Z</time>
      </trkpt>
      <trkpt lat="50.06645" lon="5.21664">
        <ele>237</ele>
        <time>2015-04-06T07:34:13Z</time>
      </trkpt>
      <trkpt lat="50.06644" lon="5.21673">
        <ele>237</ele>
        <time>2015-04-06T07:34:18Z</time>
      </trkpt>
      <trkpt lat="50.06644" lon="5.21683">
        <ele>237</ele>
        <time>2015-04-06T07:34:23Z</time>
      </trkpt>
      <trkpt lat="50.06644" lon="5.21694">
        <ele>237</ele>
        <time>2015-04-06T07:34:29Z</time>
      </trkpt>
      <trkpt lat="50.06643" lon="5.21703">
        <ele>237</ele>
        <time>2015-04-06T07:34:34Z</time>
      </trkpt>
      <trkpt lat="50.06643" lon="5.21712">
        <ele>237</ele>
        <time>2015-04-06T07:34:39Z</time>
      </trkpt>
      <trkpt lat="50.06643" lon="5.21724">
        <ele>237</ele>
        <time>2015-04-06T07:34:45Z</time>
      </trkpt>
      <trkpt lat="50.06642" lon="5.21735">
        <ele>238</ele>
        <time>2015-04-06T07:34:50Z</time>
      </trkpt>
      <trkpt lat="50.06641" lon="5.21745">
        <ele>238</ele>
        <time>2015-04-06T07:34:55Z</time>
      </trkpt>
      <trkpt lat="50.0664" lon="5.21757">
        <ele>238</ele>
        <time>2015-04-06T07:35:01Z</time>
      </trkpt>
      <trkpt lat="50.0664" lon="5.21769">
        <ele>238</ele>
        <time>2015-04-06T07:35:07Z</time>
      </trkpt>
      <trkpt lat="50.06639" lon="5.2178">
        <ele>238</ele>
        <time>2015-04-06T07:35:13Z</time>
      </trkpt>
      <trkpt lat="50.06639" lon="5.21788">
        <ele>238</ele>
        <time>2015-04-06T07:35:18Z</time>
      </trkpt>
      <trkpt lat="50.06638" lon="5.21798">
        <ele>239</ele>
        <time>2015-04-06T07:35:23Z</time>
      </trkpt>
      <trkpt lat="50.06637" lon="5.21808">
        <ele>239</ele>
        <time>2015-04-06T07:35:28Z</time>
      </trkpt>
      <trkpt lat="50.06636" lon="5.21821">
        <ele>238</ele>
        <time>2015-04-06T07:35:34Z</time>
      </trkpt>
      <trkpt lat="50.06635" lon="5.21831">
        <ele>239</ele>
        <time>2015-04-06T07:35:39Z</time>
      </trkpt>
      <trkpt lat="50.06635" lon="5.21843">
        <ele>239</ele>
        <time>2015-04-06T07:35:45Z</time>
      </trkpt>
      <trkpt lat="50.06635" lon="5.21852">
        <ele>240</ele>
        <time>2015-04-06T07:35:50Z</time>
      </trkpt>
      <trkpt lat="50.06635" lon="5.21864">
        <ele>240</ele>
        <time>2015-04-06T07:35:56Z</time>
      </trkpt>
      <trkpt lat="50.06635" lon="5.21871">
        <ele>240</ele>
        <time>2015-04-06T07:36:01Z</time>
      </trkpt>
      <trkpt lat="50.06635" lon="5.2188">
        <ele>240</ele>
        <time>2015-04-06T07:36:06Z</time>
      </trkpt>
      <trkpt lat="50.06635" lon="5.21889">
        <ele>241</ele>
        <time>2015-04-06T07:36:12Z</time>
      </trkpt>
      <trkpt lat="50.06636" lon="5.21896">
        <ele>241</ele>
        <time>2015-04-06T07:36:17Z</time>
      </trkpt>
      <trkpt lat="50.06634" lon="5.21906">
        <ele>241</ele>
        <time>2015-04-06T07:36:23Z</time>
      </trkpt>
      <trkpt lat="50.06633" lon="5.21916">
        <ele>241</ele>
        <time>2015-04-06T07:36:28Z</time>
      </trkpt>
      <trkpt lat="50.06632" lon="5.21926">
        <ele>242</ele>
        <time>2015-04-06T07:36:34Z</time>
      </trkpt>
      <trkpt lat="50.0663" lon="5.21935">
        <ele>242</ele>
        <time>2015-04-06T07:36:39Z</time>
      </trkpt>
      <trkpt lat="50.06628" lon="5.21945">
        <ele>242</ele>
        <time>2015-04-06T07:36:45Z</time>
      </trkpt>
      <trkpt lat="50.06626" lon="5.21959">
        <ele>242</ele>
        <time>2015-04-06T07:36:51Z</time>
      </trkpt>
      <trkpt lat="50.06625" lon="5.21969">
        <ele>242</ele>
        <time>2015-04-06T07:36:56Z</time>
      </trkpt>
      <trkpt lat="50.06624" lon="5.21976">
        <ele>243</ele>
        <time>2015-04-06T07:37:02Z</time>
      </trkpt>
      <trkpt lat="50.06623" lon="5.21988">
        <ele>243</ele>
        <time>2015-04-06T07:37:08Z</time>
      </trkpt>
      <trkpt lat="50.06622" lon="5.21997">
        <ele>243</ele>
        <time>2015-04-06T07:37:13Z</time>
      </trkpt>
      <trkpt lat="50.06622" lon="5.22001">
        <ele>243</ele>
        <time>2015-04-06T07:37:19Z</time>
      </trkpt>
      <trkpt lat="50.06621" lon="5.22011">
        <ele>243</ele>
        <time>2015-04-06T07:37:25Z</time>
      </trkpt>
      <trkpt lat="50.0662" lon="5.2202">
        <ele>244</ele>
        <time>2015-04-06T07:37:30Z</time>
      </trkpt>
      <trkpt lat="50.0662" lon="5.2203">
        <ele>244</ele>
        <time>2015-04-06T07:37:36Z</time>
      </trkpt>
      <trkpt lat="50.06621" lon="5.22039">
        <ele>244</ele>
        <time>2015-04-06T07:37:41Z</time>
      </trkpt>
      <trkpt lat="50.0662" lon="5.22051">
        <ele>244</ele>
        <time>2015-04-06T07:37:47Z</time>
      </trkpt>
      <trkpt lat="50.06621" lon="5.2206">
        <ele>244</ele>
        <time>2015-04-06T07:37:52Z</time>
      </trkpt>
      <trkpt lat="50.06621" lon="5.2207">
        <ele>244</ele>
        <time>2015-04-06T07:37:58Z</time>
      </trkpt>
      <trkpt lat="50.06622" lon="5.22073">
        <ele>244</ele>
        <time>2015-04-06T07:38:03Z</time>
      </trkpt>
      <trkpt lat="50.06622" lon="5.22067">
        <ele>244</ele>
        <time>2015-04-06T07:38:09Z</time>
      </trkpt>
      <trkpt lat="50.06622" lon="5.22058">
        <ele>244</ele>
        <time>2015-04-06T07:38:15Z</time>
      </trkpt>
      <trkpt lat="50.06622" lon="5.22049">
        <ele>244</ele>
        <time>2015-04-06T07:38:21Z</time>
      </trkpt>
      <trkpt lat="50.06623" lon="5.22042">
        <ele>244</ele>
        <time>2015-04-06T07:38:27Z</time>
      </trkpt>
      <trkpt lat="50.06622" lon="5.22042">
        <ele>244</ele>
        <time>2015-04-06T07:38:33Z</time>
      </trkpt>
      <trkpt lat="50.06623" lon="5.22043">
        <ele>244</ele>
        <time>2015-04-06T07:38:39Z</time>
      </trkpt>
      <trkpt lat="50.06623" lon="5.22047">
        <ele>244</ele>
        <time>2015-04-06T07:38:45Z</time>
      </trkpt>
      <trkpt lat="50.06623" lon="5.22055">
        <ele>244</ele>
        <time>2015-04-06T07:38:50Z</time>
      </trkpt>
      <trkpt lat="50.06624" lon="5.22065">
        <ele>244</ele>
        <time>2015-04-06T07:38:56Z</time>
      </trkpt>
      <trkpt lat="50.06624" lon="5.22074">
        <ele>245</ele>
        <time>2015-04-06T07:39:01Z</time>
      </trkpt>
      <trkpt lat="50.06625" lon="5.22082">
        <ele>245</ele>
        <time>2015-04-06T07:39:06Z</time>
      </trkpt>
      <trkpt lat="50.06626" lon="5.22093">
        <ele>245</ele>
        <time>2015-04-06T07:39:12Z</time>
      </trkpt>
      <trkpt lat="50.06628" lon="5.22103">
        <ele>245</ele>
        <time>2015-04-06T07:39:18Z</time>
      </trkpt>
      <trkpt lat="50.06629" lon="5.22114">
        <ele>245</ele>
        <time>2015-04-06T07:39:24Z</time>
      </trkpt>
      <trkpt lat="50.06631" lon="5.22123">
        <ele>245</ele>
        <time>2015-04-06T07:39:29Z</time>
      </trkpt>
      <trkpt lat="50.06631" lon="5.22136">
        <ele>245</ele>
        <time>2015-04-06T07:39:35Z</time>
      </trkpt>
      <trkpt lat="50.06633" lon="5.22145">
        <ele>245</ele>
        <time>2015-04-06T07:39:40Z</time>
      </trkpt>
      <trkpt lat="50.06635" lon="5.22156">
        <ele>245</ele>
        <time>2015-04-06T07:39:46Z</time>
      </trkpt>
      <trkpt lat="50.06638" lon="5.22167">
        <ele>246</ele>
        <time>2015-04-06T07:39:52Z</time>
      </trkpt>
      <trkpt lat="50.06641" lon="5.22176">
        <ele>246</ele>
        <time>2015-04-06T07:39:57Z</time>
      </trkpt>
      <trkpt lat="50.06642" lon="5.22186">
        <ele>246</ele>
        <time>2015-04-06T07:40:03Z</time>
      </trkpt>
      <trkpt lat="50.06643" lon="5.22192">
        <ele>246</ele>
        <time>2015-04-06T07:40:08Z</time>
      </trkpt>
      <trkpt lat="50.06644" lon="5.22194">
        <ele>246</ele>
        <time>2015-04-06T07:40:13Z</time>
      </trkpt>
      <trkpt lat="50.06644" lon="5.22198">
        <ele>246</ele>
        <time>2015-04-06T07:40:19Z</time>
      </trkpt>
      <trkpt lat="50.06644" lon="5.22197">
        <ele>246</ele>
        <time>2015-04-06T07:40:24Z</time>
      </trkpt>
      <trkpt lat="50.06647" lon="5.22205">
        <ele>246</ele>
        <time>2015-04-06T07:40:30Z</time>
      </trkpt>
      <trkpt lat="50.0665" lon="5.22215">
        <ele>246</ele>
        <time>2015-04-06T07:40:36Z</time>
      </trkpt>
      <trkpt lat="50.06653" lon="5.22224">
        <ele>246</ele>
        <time>2015-04-06T07:40:41Z</time>
      </trkpt>
      <trkpt lat="50.06655" lon="5.22229">
        <ele>247</ele>
        <time>2015-04-06T07:40:47Z</time>
      </trkpt>
      <trkpt lat="50.06657" lon="5.22231">
        <ele>247</ele>
        <time>2015-04-06T07:40:52Z</time>
      </trkpt>
      <trkpt lat="50.06659" lon="5.22239">
        <ele>247</ele>
        <time>2015-04-06T07:40:58Z</time>
      </trkpt>
      <trkpt lat="50.0666" lon="5.22246">
        <ele>247</ele>
        <time>2015-04-06T07:41:03Z</time>
      </trkpt>
      <trkpt lat="50.06661" lon="5.22253">
        <ele>247</ele>
        <time>2015-04-06T07:41:09Z</time>
      </trkpt>
      <trkpt lat="50.06663" lon="5.22261">
        <ele>247</ele>
        <time>2015-04-06T07:41:14Z</time>
      </trkpt>
      <trkpt lat="50.06667" lon="5.2227">
        <ele>247</ele>
        <time>2015-04-06T07:41:19Z</time>
      </trkpt>
      <trkpt lat="50.0667" lon="5.22279">
        <ele>247</ele>
        <time>2015-04-06T07:41:25Z</time>
      </trkpt>
      <trkpt lat="50.06672" lon="5.22287">
        <ele>248</ele>
        <time>2015-04-06T07:41:30Z</time>
      </trkpt>
      <trkpt lat="50.06674" lon="5.22298">
        <ele>247</ele>
        <time>2015-04-06T07:41:36Z</time>
      </trkpt>
      <trkpt lat="50.06673" lon="5.22305">
        <ele>247</ele>
        <time>2015-04-06T07:41:42Z</time>
      </trkpt>
      <trkpt lat="50.06675" lon="5.22308">
        <ele>247</ele>
        <time>2015-04-06T07:41:47Z</time>
      </trkpt>
      <trkpt lat="50.06677" lon="5.22318">
        <ele>247</ele>
        <time>2015-04-06T07:41:53Z</time>
      </trkpt>
      <trkpt lat="50.06678" lon="5.22326">
        <ele>247</ele>
        <time>2015-04-06T07:41:58Z</time>
      </trkpt>
      <trkpt lat="50.06679" lon="5.22334">
        <ele>247</ele>
        <time>2015-04-06T07:42:04Z</time>
      </trkpt>
      <trkpt lat="50.0668" lon="5.22341">
        <ele>247</ele>
        <time>2015-04-06T07:42:09Z</time>
      </trkpt>
      <trkpt lat="50.06681" lon="5.22349">
        <ele>247</ele>
        <time>2015-04-06T07:42:14Z</time>
      </trkpt>
      <trkpt lat="50.06682" lon="5.22357">
        <ele>247</ele>
        <time>2015-04-06T07:42:20Z</time>
      </trkpt>
      <trkpt lat="50.06683" lon="5.22365">
        <ele>247</ele>
        <time>2015-04-06T07:42:26Z</time>
      </trkpt>
      <trkpt lat="50.06684" lon="5.22368">
        <ele>247</ele>
        <time>2015-04-06T07:42:32Z</time>
      </trkpt>
      <trkpt lat="50.06685" lon="5.22375">
        <ele>247</ele>
        <time>2015-04-06T07:42:37Z</time>
      </trkpt>
      <trkpt lat="50.06686" lon="5.22381">
        <ele>247</ele>
        <time>2015-04-06T07:42:42Z</time>
      </trkpt>
      <trkpt lat="50.06688" lon="5.2239">
        <ele>246</ele>
        <time>2015-04-06T07:42:48Z</time>
      </trkpt>
      <trkpt lat="50.06688" lon="5.22398">
        <ele>246</ele>
        <time>2015-04-06T07:42:53Z</time>
      </trkpt>
      <trkpt lat="50.06689" lon="5.22407">
        <ele>246</ele>
        <time>2015-04-06T07:42:59Z</time>
      </trkpt>
      <trkpt lat="50.06689" lon="5.22415">
        <ele>246</ele>
        <time>2015-04-06T07:43:04Z</time>
      </trkpt>
      <trkpt lat="50.06689" lon="5.22424">
        <ele>245</ele>
        <time>2015-04-06T07:43:09Z</time>
      </trkpt>
      <trkpt lat="50.06689" lon="5.22428">
        <ele>245</ele>
        <time>2015-04-06T07:43:15Z</time>
      </trkpt>
      <trkpt lat="50.0669" lon="5.22434">
        <ele>245</ele>
        <time>2015-04-06T07:43:20Z</time>
      </trkpt>
      <trkpt lat="50.0669" lon="5.22439">
        <ele>245</ele>
        <time>2015-04-06T07:43:27Z</time>
      </trkpt>
      <trkpt lat="50.0669" lon="5.22441">
        <ele>245</ele>
        <time>2015-04-06T07:43:32Z</time>
      </trkpt>
      <trkpt lat="50.06689" lon="5.22443">
        <ele>245</ele>
        <time>2015-04-06T07:43:38Z</time>
      </trkpt>
      <trkpt lat="50.06689" lon="5.22442">
        <ele>245</ele>
        <time>2015-04-06T07:43:44Z</time>
      </trkpt>
      <trkpt lat="50.0669" lon="5.22443">
        <ele>246</ele>
        <time>2015-04-06T07:43:50Z</time>
      </trkpt>
      <trkpt lat="50.06689" lon="5.22442">
        <ele>245</ele>
        <time>2015-04-06T07:43:55Z</time>
      </trkpt>
      <trkpt lat="50.06691" lon="5.22452">
        <ele>245</ele>
        <time>2015-04-06T07:44:01Z</time>
      </trkpt>
      <trkpt lat="50.0669" lon="5.22461">
        <ele>245</ele>
        <time>2015-04-06T07:44:07Z</time>
      </trkpt>
      <trkpt lat="50.0669" lon="5.22469">
        <ele>245</ele>
        <time>2015-04-06T07:44:12Z</time>
      </trkpt>
      <trkpt lat="50.0669" lon="5.22478">
        <ele>244</ele>
        <time>2015-04-06T07:44:18Z</time>
      </trkpt>
      <trkpt lat="50.06689" lon="5.22486">
        <ele>244</ele>
        <time>2015-04-06T07:44:23Z</time>
      </trkpt>
      <trkpt lat="50.06689" lon="5.22495">
        <ele>244</ele>
        <time>2015-04-06T07:44:29Z</time>
      </trkpt>
      <trkpt lat="50.06688" lon="5.22504">
        <ele>244</ele>
        <time>2015-04-06T07:44:34Z</time>
      </trkpt>
      <trkpt lat="50.06687" lon="5.22511">
        <ele>244</ele>
        <time>2015-04-06T07:44:39Z</time>
      </trkpt>
      <trkpt lat="50.06686" lon="5.22519">
        <ele>243</ele>
        <time>2015-04-06T07:44:44Z</time>
      </trkpt>
      <trkpt lat="50.06684" lon="5.22528">
        <ele>242</ele>
        <time>2015-04-06T07:44:50Z</time>
      </trkpt>
      <trkpt lat="50.06682" lon="5.22537">
        <ele>241</ele>
        <time>2015-04-06T07:44:55Z</time>
      </trkpt>
      <trkpt lat="50.06681" lon="5.22545">
        <ele>240</ele>
        <time>2015-04-06T07:45:01Z</time>
      </trkpt>
      <trkpt lat="50.06679" lon="5.22556">
        <ele>239</ele>
        <time>2015-04-06T07:45:07Z</time>
      </trkpt>
      <trkpt lat="50.06677" lon="5.22563">
        <ele>239</ele>
        <time>2015-04-06T07:45:12Z</time>
      </trkpt>
      <trkpt lat="50.06675" lon="5.22571">
        <ele>238</ele>
        <time>2015-04-06T07:45:17Z</time>
      </trkpt>
      <trkpt lat="50.06672" lon="5.22581">
        <ele>238</ele>
        <time>2015-04-06T07:45:23Z</time>
      </trkpt>
      <trkpt lat="50.06668" lon="5.22595">
        <ele>236</ele>
        <time>2015-04-06T07:45:29Z</time>
      </trkpt>
      <trkpt lat="50.06666" lon="5.22602">
        <ele>235</ele>
        <time>2015-04-06T07:45:35Z</time>
      </trkpt>
      <trkpt lat="50.06664" lon="5.2261">
        <ele>236</ele>
        <time>2015-04-06T07:45:41Z</time>
      </trkpt>
      <trkpt lat="50.06663" lon="5.22617">
        <ele>236</ele>
        <time>2015-04-06T07:45:46Z</time>
      </trkpt>
      <trkpt lat="50.06661" lon="5.22626">
        <ele>235</ele>
        <time>2015-04-06T07:45:52Z</time>
      </trkpt>
      <trkpt lat="50.06659" lon="5.22635">
        <ele>234</ele>
        <time>2015-04-06T07:45:57Z</time>
      </trkpt>
      <trkpt lat="50.06656" lon="5.22646">
        <ele>234</ele>
        <time>2015-04-06T07:46:03Z</time>
      </trkpt>
      <trkpt lat="50.06654" lon="5.22654">
        <ele>233</ele>
        <time>2015-04-06T07:46:08Z</time>
      </trkpt>
      <trkpt lat="50.06652" lon="5.22661">
        <ele>231</ele>
        <time>2015-04-06T07:46:13Z</time>
      </trkpt>
      <trkpt lat="50.06649" lon="5.2267">
        <ele>231</ele>
        <time>2015-04-06T07:46:18Z</time>
      </trkpt>
      <trkpt lat="50.06647" lon="5.22678">
        <ele>230</ele>
        <time>2015-04-06T07:46:23Z</time>
      </trkpt>
      <trkpt lat="50.06645" lon="5.22687">
        <ele>229</ele>
        <time>2015-04-06T07:46:28Z</time>
      </trkpt>
      <trkpt lat="50.06643" lon="5.22697">
        <ele>228</ele>
        <time>2015-04-06T07:46:34Z</time>
      </trkpt>
      <trkpt lat="50.06642" lon="5.22706">
        <ele>227</ele>
        <time>2015-04-06T07:46:39Z</time>
      </trkpt>
      <trkpt lat="50.06641" lon="5.22712">
        <ele>227</ele>
        <time>2015-04-06T07:46:45Z</time>
      </trkpt>
      <trkpt lat="50.06642" lon="5.22717">
        <ele>226</ele>
        <time>2015-04-06T07:46:51Z</time>
      </trkpt>
      <trkpt lat="50.06644" lon="5.22721">
        <ele>226</ele>
        <time>2015-04-06T07:46:56Z</time>
      </trkpt>
      <trkpt lat="50.06643" lon="5.22728">
        <ele>227</ele>
        <time>2015-04-06T07:47:02Z</time>
      </trkpt>
      <trkpt lat="50.06639" lon="5.22736">
        <ele>226</ele>
        <time>2015-04-06T07:47:08Z</time>
      </trkpt>
      <trkpt lat="50.06636" lon="5.22744">
        <ele>225</ele>
        <time>2015-04-06T07:47:14Z</time>
      </trkpt>
      <trkpt lat="50.06633" lon="5.22751">
        <ele>225</ele>
        <time>2015-04-06T07:47:19Z</time>
      </trkpt>
      <trkpt lat="50.0663" lon="5.2276">
        <ele>224</ele>
        <time>2015-04-06T07:47:24Z</time>
      </trkpt>
      <trkpt lat="50.06626" lon="5.2277">
        <ele>224</ele>
        <time>2015-04-06T07:47:30Z</time>
      </trkpt>
      <trkpt lat="50.06623" lon="5.22781">
        <ele>223</ele>
        <time>2015-04-06T07:47:36Z</time>
      </trkpt>
      <trkpt lat="50.06621" lon="5.2279">
        <ele>223</ele>
        <time>2015-04-06T07:47:42Z</time>
      </trkpt>
      <trkpt lat="50.06618" lon="5.22799">
        <ele>222</ele>
        <time>2015-04-06T07:47:48Z</time>
      </trkpt>
      <trkpt lat="50.06616" lon="5.22807">
        <ele>222</ele>
        <time>2015-04-06T07:47:53Z</time>
      </trkpt>
      <trkpt lat="50.06613" lon="5.22815">
        <ele>221</ele>
        <time>2015-04-06T07:47:59Z</time>
      </trkpt>
      <trkpt lat="50.06612" lon="5.2282">
        <ele>221</ele>
        <time>2015-04-06T07:48:04Z</time>
      </trkpt>
      <trkpt lat="50.0661" lon="5.22826">
        <ele>221</ele>
        <time>2015-04-06T07:48:10Z</time>
      </trkpt>
      <trkpt lat="50.06608" lon="5.22833">
        <ele>220</ele>
        <time>2015-04-06T07:48:15Z</time>
      </trkpt>
      <trkpt lat="50.06605" lon="5.22841">
        <ele>220</ele>
        <time>2015-04-06T07:48:21Z</time>
      </trkpt>
      <trkpt lat="50.06603" lon="5.2285">
        <ele>219</ele>
        <time>2015-04-06T07:48:27Z</time>
      </trkpt>
      <trkpt lat="50.06601" lon="5.22857">
        <ele>219</ele>
        <time>2015-04-06T07:48:32Z</time>
      </trkpt>
      <trkpt lat="50.06601" lon="5.22861">
        <ele>219</ele>
        <time>2015-04-06T07:48:37Z</time>
      </trkpt>
      <trkpt lat="50.06599" lon="5.22868">
        <ele>218</ele>
        <time>2015-04-06T07:48:43Z</time>
      </trkpt>
      <trkpt lat="50.06596" lon="5.22874">
        <ele>218</ele>
        <time>2015-04-06T07:48:48Z</time>
      </trkpt>
      <trkpt lat="50.06594" lon="5.22882">
        <ele>218</ele>
        <time>2015-04-06T07:48:53Z</time>
      </trkpt>
      <trkpt lat="50.06592" lon="5.22891">
        <ele>218</ele>
        <time>2015-04-06T07:48:59Z</time>
      </trkpt>
      <trkpt lat="50.0659" lon="5.22899">
        <ele>217</ele>
        <time>2015-04-06T07:49:04Z</time>
      </trkpt>
      <trkpt lat="50.06588" lon="5.22908">
        <ele>216</ele>
        <time>2015-04-06T07:49:10Z</time>
      </trkpt>
      <trkpt lat="50.06586" lon="5.22913">
        <ele>216</ele>
        <time>2015-04-06T07:49:16Z</time>
      </trkpt>
      <trkpt lat="50.06582" lon="5.22921">
        <ele>216</ele>
        <time>2015-04-06T07:49:22Z</time>
      </trkpt>
      <trkpt lat="50.06581" lon="5.22927">
        <ele>215</ele>
        <time>2015-04-06T07:49:27Z</time>
      </trkpt>
      <trkpt lat="50.0658" lon="5.22934">
        <ele>215</ele>
        <time>2015-04-06T07:49:33Z</time>
      </trkpt>
      <trkpt lat="50.0658" lon="5.22943">
        <ele>214</ele>
        <time>2015-04-06T07:49:39Z</time>
      </trkpt>
      <trkpt lat="50.06577" lon="5.22953">
        <ele>213</ele>
        <time>2015-04-06T07:49:45Z</time>
      </trkpt>
      <trkpt lat="50.06577" lon="5.22961">
        <ele>213</ele>
        <time>2015-04-06T07:49:50Z</time>
      </trkpt>
      <trkpt lat="50.06575" lon="5.22971">
        <ele>213</ele>
        <time>2015-04-06T07:49:56Z</time>
      </trkpt>
      <trkpt lat="50.06573" lon="5.2298">
        <ele>212</ele>
        <time>2015-04-06T07:50:01Z</time>
      </trkpt>
      <trkpt lat="50.0657" lon="5.22988">
        <ele>212</ele>
        <time>2015-04-06T07:50:06Z</time>
      </trkpt>
      <trkpt lat="50.06567" lon="5.23">
        <ele>210</ele>
        <time>2015-04-06T07:50:12Z</time>
      </trkpt>
      <trkpt lat="50.06565" lon="5.23009">
        <ele>210</ele>
        <time>2015-04-06T07:50:17Z</time>
      </trkpt>
      <trkpt lat="50.06561" lon="5.23018">
        <ele>209</ele>
        <time>2015-04-06T07:50:22Z</time>
      </trkpt>
      <trkpt lat="50.06557" lon="5.23031">
        <ele>208</ele>
        <time>2015-04-06T07:50:28Z</time>
      </trkpt>
      <trkpt lat="50.06554" lon="5.23043">
        <ele>208</ele>
        <time>2015-04-06T07:50:34Z</time>
      </trkpt>
      <trkpt lat="50.06551" lon="5.23054">
        <ele>207</ele>
        <time>2015-04-06T07:50:40Z</time>
      </trkpt>
      <trkpt lat="50.0655" lon="5.23064">
        <ele>206</ele>
        <time>2015-04-06T07:50:45Z</time>
      </trkpt>
      <trkpt lat="50.06549" lon="5.23073">
        <ele>206</ele>
        <time>2015-04-06T07:50:51Z</time>
      </trkpt>
      <trkpt lat="50.06548" lon="5.23082">
        <ele>205</ele>
        <time>2015-04-06T07:50:56Z</time>
      </trkpt>
      <trkpt lat="50.06547" lon="5.23093">
        <ele>205</ele>
        <time>2015-04-06T07:51:02Z</time>
      </trkpt>
      <trkpt lat="50.06546" lon="5.23103">
        <ele>204</ele>
        <time>2015-04-06T07:51:08Z</time>
      </trkpt>
      <trkpt lat="50.06545" lon="5.2311">
        <ele>204</ele>
        <time>2015-04-06T07:51:14Z</time>
      </trkpt>
      <trkpt lat="50.06544" lon="5.23116">
        <ele>203</ele>
        <time>2015-04-06T07:51:19Z</time>
      </trkpt>
      <trkpt lat="50.06543" lon="5.23125">
        <ele>203</ele>
        <time>2015-04-06T07:51:25Z</time>
      </trkpt>
      <trkpt lat="50.06542" lon="5.23132">
        <ele>202</ele>
        <time>2015-04-06T07:51:30Z</time>
      </trkpt>
      <trkpt lat="50.06541" lon="5.23142">
        <ele>202</ele>
        <time>2015-04-06T07:51:36Z</time>
      </trkpt>
      <trkpt lat="50.06539" lon="5.23152">
        <ele>201</ele>
        <time>2015-04-06T07:51:42Z</time>
      </trkpt>
      <trkpt lat="50.06537" lon="5.23162">
        <ele>200</ele>
        <time>2015-04-06T07:51:48Z</time>
      </trkpt>
      <trkpt lat="50.06536" lon="5.2317">
        <ele>200</ele>
        <time>2015-04-06T07:51:53Z</time>
      </trkpt>
      <trkpt lat="50.06534" lon="5.23179">
        <ele>199</ele>
        <time>2015-04-06T07:51:59Z</time>
      </trkpt>
      <trkpt lat="50.06533" lon="5.23188">
        <ele>198</ele>
        <time>2015-04-06T07:52:04Z</time>
      </trkpt>
      <trkpt lat="50.06532" lon="5.23198">
        <ele>197</ele>
        <time>2015-04-06T07:52:09Z</time>
      </trkpt>
      <trkpt lat="50.0653" lon="5.23207">
        <ele>196</ele>
        <time>2015-04-06T07:52:15Z</time>
      </trkpt>
      <trkpt lat="50.06527" lon="5.23216">
        <ele>195</ele>
        <time>2015-04-06T07:52:21Z</time>
      </trkpt>
      <trkpt lat="50.06525" lon="5.23223">
        <ele>194</ele>
        <time>2015-04-06T07:52:26Z</time>
      </trkpt>
      <trkpt lat="50.06523" lon="5.23229">
        <ele>193</ele>
        <time>2015-04-06T07:52:31Z</time>
      </trkpt>
      <trkpt lat="50.0652" lon="5.23239">
        <ele>192</ele>
        <time>2015-04-06T07:52:37Z</time>
      </trkpt>
      <trkpt lat="50.06517" lon="5.23249">
        <ele>191</ele>
        <time>2015-04-06T07:52:43Z</time>
      </trkpt>
      <trkpt lat="50.06513" lon="5.23259">
        <ele>190</ele>
        <time>2015-04-06T07:52:49Z</time>
      </trkpt>
      <trkpt lat="50.0651" lon="5.23266">
        <ele>188</ele>
        <time>2015-04-06T07:52:54Z</time>
      </trkpt>
      <trkpt lat="50.06506" lon="5.23276">
        <ele>187</ele>
        <time>2015-04-06T07:53:00Z</time>
      </trkpt>
      <trkpt lat="50.06504" lon="5.23282">
        <ele>186</ele>
        <time>2015-04-06T07:53:05Z</time>
      </trkpt>
      <trkpt lat="50.06501" lon="5.23291">
        <ele>185</ele>
        <time>2015-04-06T07:53:11Z</time>
      </trkpt>
      <trkpt lat="50.06498" lon="5.23298">
        <ele>184</ele>
        <time>2015-04-06T07:53:16Z</time>
      </trkpt>
      <trkpt lat="50.06495" lon="5.23306">
        <ele>184</ele>
        <time>2015-04-06T07:53:22Z</time>
      </trkpt>
      <trkpt lat="50.06493" lon="5.23313">
        <ele>183</ele>
        <time>2015-04-06T07:53:27Z</time>
      </trkpt>
      <trkpt lat="50.06487" lon="5.2332">
        <ele>182</ele>
        <time>2015-04-06T07:53:33Z</time>
      </trkpt>
      <trkpt lat="50.06483" lon="5.23327">
        <ele>182</ele>
        <time>2015-04-06T07:53:38Z</time>
      </trkpt>
      <trkpt lat="50.06479" lon="5.23335">
        <ele>181</ele>
        <time>2015-04-06T07:53:44Z</time>
      </trkpt>
      <trkpt lat="50.06475" lon="5.23341">
        <ele>180</ele>
        <time>2015-04-06T07:53:49Z</time>
      </trkpt>
      <trkpt lat="50.06472" lon="5.23348">
        <ele>179</ele>
        <time>2015-04-06T07:53:54Z</time>
      </trkpt>
      <trkpt lat="50.06469" lon="5.23355">
        <ele>178</ele>
        <time>2015-04-06T07:54:00Z</time>
      </trkpt>
      <trkpt lat="50.06467" lon="5.23362">
        <ele>177</ele>
        <time>2015-04-06T07:54:05Z</time>
      </trkpt>
      <trkpt lat="50.06464" lon="5.23368">
        <ele>176</ele>
        <time>2015-04-06T07:54:11Z</time>
      </trkpt>
      <trkpt lat="50.06462" lon="5.23374">
        <ele>175</ele>
        <time>2015-04-06T07:54:17Z</time>
      </trkpt>
      <trkpt lat="50.06461" lon="5.23379">
        <ele>174</ele>
        <time>2015-04-06T07:54:22Z</time>
      </trkpt>
      <trkpt lat="50.06459" lon="5.23385">
        <ele>173</ele>
        <time>2015-04-06T07:54:28Z</time>
      </trkpt>
      <trkpt lat="50.06456" lon="5.23392">
        <ele>172</ele>
        <time>2015-04-06T07:54:33Z</time>
      </trkpt>
      <trkpt lat="50.06455" lon="5.23399">
        <ele>171</ele>
        <time>2015-04-06T07:54:39Z</time>
      </trkpt>
      <trkpt lat="50.06453" lon="5.23407">
        <ele>170</ele>
        <time>2015-04-06T07:54:44Z</time>
      </trkpt>
      <trkpt lat="50.06451" lon="5.23416">
        <ele>168</ele>
        <time>2015-04-06T07:54:50Z</time>
      </trkpt>
      <trkpt lat="50.06449" lon="5.23424">
        <ele>167</ele>
        <time>2015-04-06T07:54:56Z</time>
      </trkpt>
      <trkpt lat="50.06447" lon="5.23434">
        <ele>166</ele>
        <time>2015-04-06T07:55:02Z</time>
      </trkpt>
      <trkpt lat="50.06446" lon="5.23442">
        <ele>165</ele>
        <time>2015-04-06T07:55:07Z</time>
      </trkpt>
      <trkpt lat="50.06445" lon="5.23451">
        <ele>164</ele>
        <time>2015-04-06T07:55:13Z</time>
      </trkpt>
      <trkpt lat="50.06446" lon="5.23458">
        <ele>163</ele>
        <time>2015-04-06T07:55:18Z</time>
      </trkpt>
      <trkpt lat="50.06446" lon="5.23463">
        <ele>162</ele>
        <time>2015-04-06T07:55:23Z</time>
      </trkpt>
      <trkpt lat="50.06447" lon="5.23471">
        <ele>162</ele>
        <time>2015-04-06T07:55:29Z</time>
      </trkpt>
      <trkpt lat="50.06448" lon="5.23478">
        <ele>161</ele>
        <time>2015-04-06T07:55:34Z</time>
      </trkpt>
      <trkpt lat="50.0645" lon="5.23484">
        <ele>160</ele>
        <time>2015-04-06T07:55:39Z</time>
      </trkpt>
      <trkpt lat="50.06452" lon="5.23488">
        <ele>159</ele>
        <time>2015-04-06T07:55:44Z</time>
      </trkpt>
      <trkpt lat="50.06457" lon="5.23492">
        <ele>158</ele>
        <time>2015-04-06T07:55:50Z</time>
      </trkpt>
      <trkpt lat="50.06461" lon="5.23495">
        <ele>157</ele>
        <time>2015-04-06T07:55:56Z</time>
      </trkpt>
      <trkpt lat="50.06462" lon="5.235">
        <ele>156</ele>
        <time>2015-04-06T07:56:02Z</time>
      </trkpt>
      <trkpt lat="50.06461" lon="5.23506">
        <ele>155</ele>
        <time>2015-04-06T07:56:08Z</time>
      </trkpt>
      <trkpt lat="50.06461" lon="5.23511">
        <ele>154</ele>
        <time>2015-04-06T07:56:14Z</time>
      </trkpt>
      <trkpt lat="50.06458" lon="5.23516">
        <ele>154</ele>
        <time>2015-04-06T07:56:19Z</time>
      </trkpt>
      <trkpt lat="50.06453" lon="5.2352">
        <ele>152</ele>
        <time>2015-04-06T07:56:25Z</time>
      </trkpt>
      <trkpt lat="50.06447" lon="5.23523">
        <ele>151</ele>
        <time>2015-04-06T07:56:31Z</time>
      </trkpt>
      <trkpt lat="50.06444" lon="5.23524">
        <ele>151</ele>
        <time>2015-04-06T07:56:37Z</time>
      </trkpt>
      <trkpt lat="50.06441" lon="5.23527">
        <ele>151</ele>
        <time>2015-04-06T07:56:43Z</time>
      </trkpt>
      <trkpt lat="50.06438" lon="5.23529">
        <ele>151</ele>
        <time>2015-04-06T07:56:49Z</time>
      </trkpt>
      <trkpt lat="50.06435" lon="5.23528">
        <ele>151</ele>
        <time>2015-04-06T07:56:55Z</time>
      </trkpt>
      <trkpt lat="50.06431" lon="5.23528">
        <ele>151</ele>
        <time>2015-04-06T07:57:01Z</time>
      </trkpt>
      <trkpt lat="50.06429" lon="5.23528">
        <ele>151</ele>
        <time>2015-04-06T07:57:07Z</time>
      </trkpt>
      <trkpt lat="50.06426" lon="5.23527">
        <ele>151</ele>
        <time>2015-04-06T07:57:12Z</time>
      </trkpt>
      <trkpt lat="50.06422" lon="5.23525">
        <ele>151</ele>
        <time>2015-04-06T07:57:18Z</time>
      </trkpt>
      <trkpt lat="50.06419" lon="5.23523">
        <ele>151</ele>
        <time>2015-04-06T07:57:24Z</time>
      </trkpt>
      <trkpt lat="50.06417" lon="5.23523">
        <ele>150</ele>
        <time>2015-04-06T07:57:29Z</time>
      </trkpt>
      <trkpt lat="50.06414" lon="5.23524">
        <ele>149</ele>
        <time>2015-04-06T07:57:34Z</time>
      </trkpt>
      <trkpt lat="50.06413" lon="5.23525">
        <ele>150</ele>
        <time>2015-04-06T07:57:40Z</time>
      </trkpt>
      <trkpt lat="50.0641" lon="5.23528">
        <ele>149</ele>
        <time>2015-04-06T07:57:45Z</time>
      </trkpt>
      <trkpt lat="50.06408" lon="5.23532">
        <ele>149</ele>
        <time>2015-04-06T07:57:50Z</time>
      </trkpt>
      <trkpt lat="50.06407" lon="5.23538">
        <ele>149</ele>
        <time>2015-04-06T07:57:56Z</time>
      </trkpt>
      <trkpt lat="50.06406" lon="5.23543">
        <ele>150</ele>
        <time>2015-04-06T07:58:01Z</time>
      </trkpt>
      <trkpt lat="50.06408" lon="5.23552">
        <ele>150</ele>
        <time>2015-04-06T07:58:07Z</time>
      </trkpt>
      <trkpt lat="50.06409" lon="5.23559">
        <ele>150</ele>
        <time>2015-04-06T07:58:12Z</time>
      </trkpt>
      <trkpt lat="50.06412" lon="5.23565">
        <ele>150</ele>
        <time>2015-04-06T07:58:17Z</time>
      </trkpt>
      <trkpt lat="50.06413" lon="5.23577">
        <ele>152</ele>
        <time>2015-04-06T07:58:23Z</time>
      </trkpt>
      <trkpt lat="50.06411" lon="5.23585">
        <ele>152</ele>
        <time>2015-04-06T07:58:28Z</time>
      </trkpt>
      <trkpt lat="50.06408" lon="5.2359">
        <ele>152</ele>
        <time>2015-04-06T07:58:34Z</time>
      </trkpt>
      <trkpt lat="50.06407" lon="5.23592">
        <ele>152</ele>
        <time>2015-04-06T07:58:40Z</time>
      </trkpt>
      <trkpt lat="50.06406" lon="5.23596">
        <ele>153</ele>
        <time>2015-04-06T07:58:45Z</time>
      </trkpt>
      <trkpt lat="50.06408" lon="5.23599">
        <ele>153</ele>
        <time>2015-04-06T07:58:51Z</time>
      </trkpt>
      <trkpt lat="50.06409" lon="5.23601">
        <ele>153</ele>
        <time>2015-04-06T07:58:56Z</time>
      </trkpt>
      <trkpt lat="50.06411" lon="5.23602">
        <ele>153</ele>
        <time>2015-04-06T07:59:02Z</time>
      </trkpt>
      <trkpt lat="50.06413" lon="5.23603">
        <ele>152</ele>
        <time>2015-04-06T07:59:08Z</time>
      </trkpt>
      <trkpt lat="50.06414" lon="5.23609">
        <ele>152</ele>
        <time>2015-04-06T07:59:13Z</time>
      </trkpt>
      <trkpt lat="50.06416" lon="5.23616">
        <ele>152</ele>
        <time>2015-04-06T07:59:19Z</time>
      </trkpt>
      <trkpt lat="50.06417" lon="5.23622">
        <ele>152</ele>
        <time>2015-04-06T07:59:24Z</time>
      </trkpt>
      <trkpt lat="50.06417" lon="5.23629">
        <ele>152</ele>
        <time>2015-04-06T07:59:30Z</time>
      </trkpt>
      <trkpt lat="50.06417" lon="5.23631">
        <ele>152</ele>
        <time>2015-04-06T07:59:36Z</time>
      </trkpt>
      <trkpt lat="50.06416" lon="5.23634">
        <ele>152</ele>
        <time>2015-04-06T07:59:42Z</time>
      </trkpt>
      <trkpt lat="50.06416" lon="5.23635">
        <ele>152</ele>
        <time>2015-04-06T07:59:48Z</time>
      </trkpt>
      <trkpt lat="50.06416" lon="5.23637">
        <ele>151</ele>
        <time>2015-04-06T07:59:53Z</time>
      </trkpt>
      <trkpt lat="50.06417" lon="5.23638">
        <ele>151</ele>
        <time>2015-04-06T07:59:58Z</time>
      </trkpt>
      <trkpt lat="50.06417" lon="5.23643">
        <ele>152</ele>
        <time>2015-04-06T08:00:03Z</time>
      </trkpt>
      <trkpt lat="50.06417" lon="5.23648">
        <ele>152</ele>
        <time>2015-04-06T08:00:09Z</time>
      </trkpt>
      <trkpt lat="50.06417" lon="5.23649">
        <ele>152</ele>
        <time>2015-04-06T08:00:14Z</time>
      </trkpt>
      <trkpt lat="50.06417" lon="5.23648">
        <ele>151</ele>
        <time>2015-04-06T08:00:20Z</time>
      </trkpt>
      <trkpt lat="50.06417" lon="5.2365">
        <ele>151</ele>
        <time>2015-04-06T08:00:26Z</time>
      </trkpt>
      <trkpt lat="50.06416" lon="5.23655">
        <ele>152</ele>
        <time>2015-04-06T08:00:31Z</time>
      </trkpt>
      <trkpt lat="50.06414" lon="5.23663">
        <ele>152</ele>
        <time>2015-04-06T08:00:37Z</time>
      </trkpt>
      <trkpt lat="50.06413" lon="5.2367">
        <ele>153</ele>
        <time>2015-04-06T08:00:43Z</time>
      </trkpt>
      <trkpt lat="50.06411" lon="5.23679">
        <ele>153</ele>
        <time>2015-04-06T08:00:49Z</time>
      </trkpt>
      <trkpt lat="50.06411" lon="5.23686">
        <ele>153</ele>
        <time>2015-04-06T08:00:54Z</time>
      </trkpt>
      <trkpt lat="50.06411" lon="5.23696">
        <ele>154</ele>
        <time>2015-04-06T08:01:00Z</time>
      </trkpt>
      <trkpt lat="50.06409" lon="5.23704">
        <ele>153</ele>
        <time>2015-04-06T08:01:05Z</time>
      </trkpt>
      <trkpt lat="50.06408" lon="5.23713">
        <ele>154</ele>
        <time>2015-04-06T08:01:10Z</time>
      </trkpt>
      <trkpt lat="50.06407" lon="5.23721">
        <ele>154</ele>
        <time>2015-04-06T08:01:15Z</time>
      </trkpt>
      <trkpt lat="50.06405" lon="5.2373">
        <ele>154</ele>
        <time>2015-04-06T08:01:20Z</time>
      </trkpt>
      <trkpt lat="50.06403" lon="5.23742">
        <ele>154</ele>
        <time>2015-04-06T08:01:26Z</time>
      </trkpt>
      <trkpt lat="50.06401" lon="5.23753">
        <ele>154</ele>
        <time>2015-04-06T08:01:32Z</time>
      </trkpt>
      <trkpt lat="50.064" lon="5.23762">
        <ele>154</ele>
        <time>2015-04-06T08:01:37Z</time>
      </trkpt>
      <trkpt lat="50.06399" lon="5.23771">
        <ele>154</ele>
        <time>2015-04-06T08:01:42Z</time>
      </trkpt>
      <trkpt lat="50.06396" lon="5.2378">
        <ele>154</ele>
        <time>2015-04-06T08:01:47Z</time>
      </trkpt>
      <trkpt lat="50.06394" lon="5.23791">
        <ele>154</ele>
        <time>2015-04-06T08:01:53Z</time>
      </trkpt>
      <trkpt lat="50.06393" lon="5.23801">
        <ele>155</ele>
        <time>2015-04-06T08:01:58Z</time>
      </trkpt>
      <trkpt lat="50.06391" lon="5.23812">
        <ele>155</ele>
        <time>2015-04-06T08:02:04Z</time>
      </trkpt>
      <trkpt lat="50.06388" lon="5.23822">
        <ele>155</ele>
        <time>2015-04-06T08:02:09Z</time>
      </trkpt>
      <trkpt lat="50.06385" lon="5.23832">
        <ele>155</ele>
        <time>2015-04-06T08:02:15Z</time>
      </trkpt>
      <trkpt lat="50.06383" lon="5.23842">
        <ele>155</ele>
        <time>2015-04-06T08:02:21Z</time>
      </trkpt>
      <trkpt lat="50.06379" lon="5.23852">
        <ele>156</ele>
        <time>2015-04-06T08:02:27Z</time>
      </trkpt>
      <trkpt lat="50.06378" lon="5.2386">
        <ele>156</ele>
        <time>2015-04-06T08:02:32Z</time>
      </trkpt>
      <trkpt lat="50.06379" lon="5.23868">
        <ele>156</ele>
        <time>2015-04-06T08:02:38Z</time>
      </trkpt>
      <trkpt lat="50.06379" lon="5.23873">
        <ele>156</ele>
        <time>2015-04-06T08:02:44Z</time>
      </trkpt>
      <trkpt lat="50.06379" lon="5.2388">
        <ele>156</ele>
        <time>2015-04-06T08:02:49Z</time>
      </trkpt>
      <trkpt lat="50.06377" lon="5.23889">
        <ele>156</ele>
        <time>2015-04-06T08:02:55Z</time>
      </trkpt>
      <trkpt lat="50.06375" lon="5.23895">
        <ele>156</ele>
        <time>2015-04-06T08:03:00Z</time>
      </trkpt>
      <trkpt lat="50.06371" lon="5.23904">
        <ele>157</ele>
        <time>2015-04-06T08:03:06Z</time>
      </trkpt>
      <trkpt lat="50.06368" lon="5.2391">
        <ele>157</ele>
        <time>2015-04-06T08:03:11Z</time>
      </trkpt>
      <trkpt lat="50.06363" lon="5.23918">
        <ele>157</ele>
        <time>2015-04-06T08:03:17Z</time>
      </trkpt>
      <trkpt lat="50.06361" lon="5.23925">
        <ele>157</ele>
        <time>2015-04-06T08:03:22Z</time>
      </trkpt>
      <trkpt lat="50.06358" lon="5.23934">
        <ele>157</ele>
        <time>2015-04-06T08:03:28Z</time>
      </trkpt>
      <trkpt lat="50.06355" lon="5.23942">
        <ele>157</ele>
        <time>2015-04-06T08:03:33Z</time>
      </trkpt>
      <trkpt lat="50.06351" lon="5.2395">
        <ele>157</ele>
        <time>2015-04-06T08:03:38Z</time>
      </trkpt>
      <trkpt lat="50.06347" lon="5.2396">
        <ele>158</ele>
        <time>2015-04-06T08:03:44Z</time>
      </trkpt>
      <trkpt lat="50.06344" lon="5.23969">
        <ele>158</ele>
        <time>2015-04-06T08:03:49Z</time>
      </trkpt>
      <trkpt lat="50.06339" lon="5.23977">
        <ele>158</ele>
        <time>2015-04-06T08:03:54Z</time>
      </trkpt>
      <trkpt lat="50.06335" lon="5.23984">
        <ele>158</ele>
        <time>2015-04-06T08:03:59Z</time>
      </trkpt>
      <trkpt lat="50.06332" lon="5.23993">
        <ele>158</ele>
        <time>2015-04-06T08:04:04Z</time>
      </trkpt>
      <trkpt lat="50.06329" lon="5.24001">
        <ele>158</ele>
        <time>2015-04-06T08:04:09Z</time>
      </trkpt>
      <trkpt lat="50.06325" lon="5.24009">
        <ele>158</ele>
        <time>2015-04-06T08:04:15Z</time>
      </trkpt>
      <trkpt lat="50.06321" lon="5.24017">
        <ele>158</ele>
        <time>2015-04-06T08:04:20Z</time>
      </trkpt>
      <trkpt lat="50.06318" lon="5.24025">
        <ele>158</ele>
        <time>2015-04-06T08:04:25Z</time>
      </trkpt>
      <trkpt lat="50.06315" lon="5.24034">
        <ele>158</ele>
        <time>2015-04-06T08:04:31Z</time>
      </trkpt>
      <trkpt lat="50.06313" lon="5.24044">
        <ele>158</ele>
        <time>2015-04-06T08:04:37Z</time>
      </trkpt>
      <trkpt lat="50.06311" lon="5.24053">
        <ele>158</ele>
        <time>2015-04-06T08:04:43Z</time>
      </trkpt>
      <trkpt lat="50.06308" lon="5.24062">
        <ele>157</ele>
        <time>2015-04-06T08:04:49Z</time>
      </trkpt>
      <trkpt lat="50.06306" lon="5.24069">
        <ele>157</ele>
        <time>2015-04-06T08:04:54Z</time>
      </trkpt>
      <trkpt lat="50.06303" lon="5.24077">
        <ele>157</ele>
        <time>2015-04-06T08:05:00Z</time>
      </trkpt>
      <trkpt lat="50.063" lon="5.24084">
        <ele>157</ele>
        <time>2015-04-06T08:05:05Z</time>
      </trkpt>
      <trkpt lat="50.06296" lon="5.24089">
        <ele>157</ele>
        <time>2015-04-06T08:05:10Z</time>
      </trkpt>
      <trkpt lat="50.06292" lon="5.24097">
        <ele>157</ele>
        <time>2015-04-06T08:05:16Z</time>
      </trkpt>
      <trkpt lat="50.06291" lon="5.24103">
        <ele>156</ele>
        <time>2015-04-06T08:05:21Z</time>
      </trkpt>
      <trkpt lat="50.0629" lon="5.24112">
        <ele>156</ele>
        <time>2015-04-06T08:05:27Z</time>
      </trkpt>
      <trkpt lat="50.06289" lon="5.24118">
        <ele>155</ele>
        <time>2015-04-06T08:05:32Z</time>
      </trkpt>
      <trkpt lat="50.06288" lon="5.24124">
        <ele>154</ele>
        <time>2015-04-06T08:05:37Z</time>
      </trkpt>
      <trkpt lat="50.06286" lon="5.2413">
        <ele>154</ele>
        <time>2015-04-06T08:05:42Z</time>
      </trkpt>
      <trkpt lat="50.06285" lon="5.24137">
        <ele>154</ele>
        <time>2015-04-06T08:05:47Z</time>
      </trkpt>
      <trkpt lat="50.06282" lon="5.24147">
        <ele>155</ele>
        <time>2015-04-06T08:05:53Z</time>
      </trkpt>
      <trkpt lat="50.06279" lon="5.24152">
        <ele>156</ele>
        <time>2015-04-06T08:05:59Z</time>
      </trkpt>
      <trkpt lat="50.06275" lon="5.24155">
        <ele>156</ele>
        <time>2015-04-06T08:06:04Z</time>
      </trkpt>
      <trkpt lat="50.06271" lon="5.2416">
        <ele>156</ele>
        <time>2015-04-06T08:06:10Z</time>
      </trkpt>
      <trkpt lat="50.06269" lon="5.24166">
        <ele>156</ele>
        <time>2015-04-06T08:06:15Z</time>
      </trkpt>
      <trkpt lat="50.06268" lon="5.24172">
        <ele>156</ele>
        <time>2015-04-06T08:06:20Z</time>
      </trkpt>
      <trkpt lat="50.06268" lon="5.2418">
        <ele>156</ele>
        <time>2015-04-06T08:06:26Z</time>
      </trkpt>
      <trkpt lat="50.06267" lon="5.24189">
        <ele>156</ele>
        <time>2015-04-06T08:06:32Z</time>
      </trkpt>
      <trkpt lat="50.06267" lon="5.24195">
        <ele>156</ele>
        <time>2015-04-06T08:06:38Z</time>
      </trkpt>
      <trkpt lat="50.06267" lon="5.24201">
        <ele>155</ele>
        <time>2015-04-06T08:06:44Z</time>
      </trkpt>
      <trkpt lat="50.06266" lon="5.24208">
        <ele>155</ele>
        <time>2015-04-06T08:06:49Z</time>
      </trkpt>
      <trkpt lat="50.06263" lon="5.24215">
        <ele>155</ele>
        <time>2015-04-06T08:06:55Z</time>
      </trkpt>
      <trkpt lat="50.06261" lon="5.24222">
        <ele>155</ele>
        <time>2015-04-06T08:07:00Z</time>
      </trkpt>
      <trkpt lat="50.06258" lon="5.24232">
        <ele>156</ele>
        <time>2015-04-06T08:07:05Z</time>
      </trkpt>
      <trkpt lat="50.06259" lon="5.24242">
        <ele>155</ele>
        <time>2015-04-06T08:07:11Z</time>
      </trkpt>
      <trkpt lat="50.06259" lon="5.24251">
        <ele>155</ele>
        <time>2015-04-06T08:07:16Z</time>
      </trkpt>
      <trkpt lat="50.06257" lon="5.24261">
        <ele>155</ele>
        <time>2015-04-06T08:07:22Z</time>
      </trkpt>
      <trkpt lat="50.06256" lon="5.2427">
        <ele>155</ele>
        <time>2015-04-06T08:07:27Z</time>
      </trkpt>
      <trkpt lat="50.06254" lon="5.2428">
        <ele>155</ele>
        <time>2015-04-06T08:07:32Z</time>
      </trkpt>
      <trkpt lat="50.06254" lon="5.24289">
        <ele>155</ele>
        <time>2015-04-06T08:07:37Z</time>
      </trkpt>
      <trkpt lat="50.06252" lon="5.24299">
        <ele>155</ele>
        <time>2015-04-06T08:07:43Z</time>
      </trkpt>
      <trkpt lat="50.06249" lon="5.24308">
        <ele>154</ele>
        <time>2015-04-06T08:07:49Z</time>
      </trkpt>
      <trkpt lat="50.06248" lon="5.24319">
        <ele>154</ele>
        <time>2015-04-06T08:07:55Z</time>
      </trkpt>
      <trkpt lat="50.06247" lon="5.24328">
        <ele>155</ele>
        <time>2015-04-06T08:08:00Z</time>
      </trkpt>
      <trkpt lat="50.06245" lon="5.24337">
        <ele>154</ele>
        <time>2015-04-06T08:08:06Z</time>
      </trkpt>
      <trkpt lat="50.06242" lon="5.24348">
        <ele>154</ele>
        <time>2015-04-06T08:08:12Z</time>
      </trkpt>
      <trkpt lat="50.06242" lon="5.24357">
        <ele>154</ele>
        <time>2015-04-06T08:08:18Z</time>
      </trkpt>
      <trkpt lat="50.0624" lon="5.24369">
        <ele>154</ele>
        <time>2015-04-06T08:08:24Z</time>
      </trkpt>
      <trkpt lat="50.06239" lon="5.2438">
        <ele>153</ele>
        <time>2015-04-06T08:08:30Z</time>
      </trkpt>
      <trkpt lat="50.06238" lon="5.24389">
        <ele>153</ele>
        <time>2015-04-06T08:08:35Z</time>
      </trkpt>
      <trkpt lat="50.06237" lon="5.24398">
        <ele>153</ele>
        <time>2015-04-06T08:08:40Z</time>
      </trkpt>
      <trkpt lat="50.06236" lon="5.24406">
        <ele>153</ele>
        <time>2015-04-06T08:08:45Z</time>
      </trkpt>
      <trkpt lat="50.06235" lon="5.24414">
        <ele>153</ele>
        <time>2015-04-06T08:08:50Z</time>
      </trkpt>
      <trkpt lat="50.06232" lon="5.24423">
        <ele>153</ele>
        <time>2015-04-06T08:08:55Z</time>
      </trkpt>
      <trkpt lat="50.0623" lon="5.24434">
        <ele>153</ele>
        <time>2015-04-06T08:09:00Z</time>
      </trkpt>
      <trkpt lat="50.06226" lon="5.24444">
        <ele>152</ele>
        <time>2015-04-06T08:09:06Z</time>
      </trkpt>
      <trkpt lat="50.06222" lon="5.24455">
        <ele>152</ele>
        <time>2015-04-06T08:09:12Z</time>
      </trkpt>
      <trkpt lat="50.06219" lon="5.24464">
        <ele>152</ele>
        <time>2015-04-06T08:09:17Z</time>
      </trkpt>
      <trkpt lat="50.06219" lon="5.24473">
        <ele>151</ele>
        <time>2015-04-06T08:09:23Z</time>
      </trkpt>
      <trkpt lat="50.06218" lon="5.24481">
        <ele>151</ele>
        <time>2015-04-06T08:09:28Z</time>
      </trkpt>
      <trkpt lat="50.06218" lon="5.2449">
        <ele>151</ele>
        <time>2015-04-06T08:09:33Z</time>
      </trkpt>
      <trkpt lat="50.06215" lon="5.245">
        <ele>150</ele>
        <time>2015-04-06T08:09:39Z</time>
      </trkpt>
      <trkpt lat="50.06213" lon="5.2451">
        <ele>150</ele>
        <time>2015-04-06T08:09:44Z</time>
      </trkpt>
      <trkpt lat="50.06211" lon="5.2452">
        <ele>150</ele>
        <time>2015-04-06T08:09:50Z</time>
      </trkpt>
      <trkpt lat="50.0621" lon="5.2453">
        <ele>150</ele>
        <time>2015-04-06T08:09:56Z</time>
      </trkpt>
      <trkpt lat="50.06206" lon="5.24539">
        <ele>150</ele>
        <time>2015-04-06T08:10:01Z</time>
      </trkpt>
      <trkpt lat="50.06203" lon="5.24546">
        <ele>150</ele>
        <time>2015-04-06T08:10:06Z</time>
      </trkpt>
      <trkpt lat="50.06199" lon="5.24556">
        <ele>150</ele>
        <time>2015-04-06T08:10:12Z</time>
      </trkpt>
      <trkpt lat="50.06196" lon="5.24566">
        <ele>149</ele>
        <time>2015-04-06T08:10:17Z</time>
      </trkpt>
      <trkpt lat="50.06193" lon="5.24577">
        <ele>149</ele>
        <time>2015-04-06T08:10:23Z</time>
      </trkpt>
      <trkpt lat="50.0619" lon="5.24587">
        <ele>149</ele>
        <time>2015-04-06T08:10:28Z</time>
      </trkpt>
      <trkpt lat="50.06185" lon="5.24597">
        <ele>148</ele>
        <time>2015-04-06T08:10:34Z</time>
      </trkpt>
      <trkpt lat="50.06181" lon="5.24608">
        <ele>148</ele>
        <time>2015-04-06T08:10:40Z</time>
      </trkpt>
      <trkpt lat="50.06178" lon="5.24617">
        <ele>147</ele>
        <time>2015-04-06T08:10:45Z</time>
      </trkpt>
      <trkpt lat="50.06174" lon="5.24627">
        <ele>147</ele>
        <time>2015-04-06T08:10:50Z</time>
      </trkpt>
      <trkpt lat="50.0617" lon="5.24637">
        <ele>147</ele>
        <time>2015-04-06T08:10:56Z</time>
      </trkpt>
      <trkpt lat="50.06166" lon="5.24646">
        <ele>146</ele>
        <time>2015-04-06T08:11:01Z</time>
      </trkpt>
      <trkpt lat="50.06161" lon="5.24656">
        <ele>146</ele>
        <time>2015-04-06T08:11:07Z</time>
      </trkpt>
      <trkpt lat="50.06156" lon="5.24665">
        <ele>145</ele>
        <time>2015-04-06T08:11:12Z</time>
      </trkpt>
      <trkpt lat="50.06151" lon="5.24676">
        <ele>145</ele>
        <time>2015-04-06T08:11:18Z</time>
      </trkpt>
      <trkpt lat="50.06147" lon="5.24686">
        <ele>144</ele>
        <time>2015-04-06T08:11:24Z</time>
      </trkpt>
      <trkpt lat="50.06142" lon="5.24695">
        <ele>144</ele>
        <time>2015-04-06T08:11:29Z</time>
      </trkpt>
      <trkpt lat="50.06136" lon="5.24706">
        <ele>143</ele>
        <time>2015-04-06T08:11:35Z</time>
      </trkpt>
      <trkpt lat="50.0613" lon="5.24716">
        <ele>142</ele>
        <time>2015-04-06T08:11:40Z</time>
      </trkpt>
      <trkpt lat="50.06124" lon="5.24726">
        <ele>142</ele>
        <time>2015-04-06T08:11:46Z</time>
      </trkpt>
      <trkpt lat="50.06121" lon="5.24734">
        <ele>141</ele>
        <time>2015-04-06T08:11:51Z</time>
      </trkpt>
      <trkpt lat="50.06116" lon="5.24743">
        <ele>141</ele>
        <time>2015-04-06T08:11:57Z</time>
      </trkpt>
      <trkpt lat="50.06113" lon="5.24749">
        <ele>141</ele>
        <time>2015-04-06T08:12:02Z</time>
      </trkpt>
      <trkpt lat="50.06109" lon="5.24757">
        <ele>140</ele>
        <time>2015-04-06T08:12:08Z</time>
      </trkpt>
      <trkpt lat="50.06105" lon="5.24764">
        <ele>140</ele>
        <time>2015-04-06T08:12:13Z</time>
      </trkpt>
      <trkpt lat="50.061" lon="5.2477">
        <ele>140</ele>
        <time>2015-04-06T08:12:18Z</time>
      </trkpt>
      <trkpt lat="50.06094" lon="5.24777">
        <ele>140</ele>
        <time>2015-04-06T08:12:24Z</time>
      </trkpt>
      <trkpt lat="50.06091" lon="5.24782">
        <ele>140</ele>
        <time>2015-04-06T08:12:29Z</time>
      </trkpt>
      <trkpt lat="50.06086" lon="5.24788">
        <ele>139</ele>
        <time>2015-04-06T08:12:34Z</time>
      </trkpt>
      <trkpt lat="50.0608" lon="5.24793">
        <ele>139</ele>
        <time>2015-04-06T08:12:40Z</time>
      </trkpt>
      <trkpt lat="50.06075" lon="5.24796">
        <ele>139</ele>
        <time>2015-04-06T08:12:45Z</time>
      </trkpt>
      <trkpt lat="50.06071" lon="5.248">
        <ele>139</ele>
        <time>2015-04-06T08:12:50Z</time>
      </trkpt>
      <trkpt lat="50.06068" lon="5.24805">
        <ele>139</ele>
        <time>2015-04-06T08:12:55Z</time>
      </trkpt>
      <trkpt lat="50.06063" lon="5.24811">
        <ele>139</ele>
        <time>2015-04-06T08:13:01Z</time>
      </trkpt>
      <trkpt lat="50.06058" lon="5.24817">
        <ele>138</ele>
        <time>2015-04-06T08:13:07Z</time>
      </trkpt>
      <trkpt lat="50.06054" lon="5.24822">
        <ele>137</ele>
        <time>2015-04-06T08:13:12Z</time>
      </trkpt>
      <trkpt lat="50.06049" lon="5.24827">
        <ele>137</ele>
        <time>2015-04-06T08:13:17Z</time>
      </trkpt>
      <trkpt lat="50.06044" lon="5.24837">
        <ele>137</ele>
        <time>2015-04-06T08:13:23Z</time>
      </trkpt>
      <trkpt lat="50.06039" lon="5.24845">
        <ele>136</ele>
        <time>2015-04-06T08:13:28Z</time>
      </trkpt>
      <trkpt lat="50.06033" lon="5.24852">
        <ele>137</ele>
        <time>2015-04-06T08:13:33Z</time>
      </trkpt>
      <trkpt lat="50.06027" lon="5.24856">
        <ele>137</ele>
        <time>2015-04-06T08:13:38Z</time>
      </trkpt>
      <trkpt lat="50.06024" lon="5.24858">
        <ele>137</ele>
        <time>2015-04-06T08:13:43Z</time>
      </trkpt>
      <trkpt lat="50.06022" lon="5.24858">
        <ele>137</ele>
        <time>2015-04-06T08:13:49Z</time>
      </trkpt>
      <trkpt lat="50.06025" lon="5.24858">
        <ele>137</ele>
        <time>2015-04-06T08:13:55Z</time>
      </trkpt>
      <trkpt lat="50.06025" lon="5.24858">
        <ele>136</ele>
        <time>2015-04-06T08:14:00Z</time>
      </trkpt>
      <trkpt lat="50.06023" lon="5.24857">
        <ele>136</ele>
        <time>2015-04-06T08:14:05Z</time>
      </trkpt>
      <trkpt lat="50.06023" lon="5.24858">
        <ele>136</ele>
        <time>2015-04-06T08:14:11Z</time>
      </trkpt>
      <trkpt lat="50.06022" lon="5.24857">
        <ele>136</ele>
        <time>2015-04-06T08:14:17Z</time>
      </trkpt>
      <trkpt lat="50.06022" lon="5.24858">
        <ele>136</ele>
        <time>2015-04-06T08:14:22Z</time>
      </trkpt>
      <trkpt lat="50.06022" lon="5.24857">
        <ele>136</ele>
        <time>2015-04-06T08:14:28Z</time>
      </trkpt>
      <trkpt lat="50.06021" lon="5.24857">
        <ele>137</ele>
        <time>2015-04-06T08:14:33Z</time>
      </trkpt>
      <trkpt lat="50.0602" lon="5.24856">
        <ele>137</ele>
        <time>2015-04-06T08:14:39Z</time>
      </trkpt>
      <trkpt lat="50.06019" lon="5.24855">
        <ele>136</ele>
        <time>2015-04-06T08:14:44Z</time>
      </trkpt>
      <trkpt lat="50.06018" lon="5.24855">
        <ele>136</ele>
        <time>2015-04-06T08:14:50Z</time>
      </trkpt>
      <trkpt lat="50.06017" lon="5.24855">
        <ele>136</ele>
        <time>2015-04-06T08:14:55Z</time>
      </trkpt>
      <trkpt lat="50.06016" lon="5.24854">
        <ele>136</ele>
        <time>2015-04-06T08:15:00Z</time>
      </trkpt>
      <trkpt lat="50.06016" lon="5.24854">
        <ele>136</ele>
        <time>2015-04-06T08:15:05Z</time>
      </trkpt>
      <trkpt lat="50.06017" lon="5.24853">
        <ele>137</ele>
        <time>2015-04-06T08:15:11Z</time>
      </trkpt>
      <trkpt lat="50.06016" lon="5.24852">
        <ele>137</ele>
        <time>2015-04-06T08:15:16Z</time>
      </trkpt>
      <trkpt lat="50.06016" lon="5.2485">
        <ele>136</ele>
        <time>2015-04-06T08:15:21Z</time>
      </trkpt>
      <trkpt lat="50.06015" lon="5.24849">
        <ele>136</ele>
        <time>2015-04-06T08:15:27Z</time>
      </trkpt>
      <trkpt lat="50.06014" lon="5.24848">
        <ele>136</ele>
        <time>2015-04-06T08:15:32Z</time>
      </trkpt>
      <trkpt lat="50.06011" lon="5.24847">
        <ele>136</ele>
        <time>2015-04-06T08:15:38Z</time>
      </trkpt>
      <trkpt lat="50.0601" lon="5.24848">
        <ele>136</ele>
        <time>2015-04-06T08:15:43Z</time>
      </trkpt>
      <trkpt lat="50.06009" lon="5.24851">
        <ele>136</ele>
        <time>2015-04-06T08:15:48Z</time>
      </trkpt>
      <trkpt lat="50.06009" lon="5.24852">
        <ele>136</ele>
        <time>2015-04-06T08:15:54Z</time>
      </trkpt>
      <trkpt lat="50.0601" lon="5.2485">
        <ele>136</ele>
        <time>2015-04-06T08:15:59Z</time>
      </trkpt>
      <trkpt lat="50.06009" lon="5.24847">
        <ele>136</ele>
        <time>2015-04-06T08:16:05Z</time>
      </trkpt>
      <trkpt lat="50.06008" lon="5.24844">
        <ele>136</ele>
        <time>2015-04-06T08:16:11Z</time>
      </trkpt>
      <trkpt lat="50.06008" lon="5.24841">
        <ele>136</ele>
        <time>2015-04-06T08:16:17Z</time>
      </trkpt>
      <trkpt lat="50.06009" lon="5.24841">
        <ele>136</ele>
        <time>2015-04-06T08:16:23Z</time>
      </trkpt>
      <trkpt lat="50.06009" lon="5.24842">
        <ele>136</ele>
        <time>2015-04-06T08:16:28Z</time>
      </trkpt>
      <trkpt lat="50.06009" lon="5.24843">
        <ele>136</ele>
        <time>2015-04-06T08:16:33Z</time>
      </trkpt>
      <trkpt lat="50.06008" lon="5.24845">
        <ele>136</ele>
        <time>2015-04-06T08:16:38Z</time>
      </trkpt>
      <trkpt lat="50.06008" lon="5.24848">
        <ele>136</ele>
        <time>2015-04-06T08:16:44Z</time>
      </trkpt>
      <trkpt lat="50.06009" lon="5.2485">
        <ele>136</ele>
        <time>2015-04-06T08:16:50Z</time>
      </trkpt>
      <trkpt lat="50.0601" lon="5.24852">
        <ele>136</ele>
        <time>2015-04-06T08:16:56Z</time>
      </trkpt>
      <trkpt lat="50.06012" lon="5.24854">
        <ele>136</ele>
        <time>2015-04-06T08:17:01Z</time>
      </trkpt>
      <trkpt lat="50.06014" lon="5.24854">
        <ele>136</ele>
        <time>2015-04-06T08:17:07Z</time>
      </trkpt>
      <trkpt lat="50.06015" lon="5.24855">
        <ele>137</ele>
        <time>2015-04-06T08:17:12Z</time>
      </trkpt>
      <trkpt lat="50.06017" lon="5.24857">
        <ele>137</ele>
        <time>2015-04-06T08:17:18Z</time>
      </trkpt>
      <trkpt lat="50.06018" lon="5.24856">
        <ele>137</ele>
        <time>2015-04-06T08:17:23Z</time>
      </trkpt>
      <trkpt lat="50.06016" lon="5.24857">
        <ele>137</ele>
        <time>2015-04-06T08:17:28Z</time>
      </trkpt>
      <trkpt lat="50.06014" lon="5.24857">
        <ele>137</ele>
        <time>2015-04-06T08:17:34Z</time>
      </trkpt>
      <trkpt lat="50.06013" lon="5.24855">
        <ele>137</ele>
        <time>2015-04-06T08:17:40Z</time>
      </trkpt>
      <trkpt lat="50.06013" lon="5.24855">
        <ele>138</ele>
        <time>2015-04-06T08:17:45Z</time>
      </trkpt>
      <trkpt lat="50.06012" lon="5.24857">
        <ele>138</ele>
        <time>2015-04-06T08:17:50Z</time>
      </trkpt>
      <trkpt lat="50.06012" lon="5.24859">
        <ele>137</ele>
        <time>2015-04-06T08:17:56Z</time>
      </trkpt>
      <trkpt lat="50.06011" lon="5.24859">
        <ele>138</ele>
        <time>2015-04-06T08:18:01Z</time>
      </trkpt>
      <trkpt lat="50.06011" lon="5.24859">
        <ele>138</ele>
        <time>2015-04-06T08:18:06Z</time>
      </trkpt>
      <trkpt lat="50.06012" lon="5.24857">
        <ele>138</ele>
        <time>2015-04-06T08:18:11Z</time>
      </trkpt>
      <trkpt lat="50.0601" lon="5.24856">
        <ele>137</ele>
        <time>2015-04-06T08:18:16Z</time>
      </trkpt>
      <trkpt lat="50.0601" lon="5.24856">
        <ele>137</ele>
        <time>2015-04-06T08:18:22Z</time>
      </trkpt>
      <trkpt lat="50.06012" lon="5.24856">
        <ele>136</ele>
        <time>2015-04-06T08:18:28Z</time>
      </trkpt>
      <trkpt lat="50.06014" lon="5.24855">
        <ele>137</ele>
        <time>2015-04-06T08:18:33Z</time>
      </trkpt>
      <trkpt lat="50.06016" lon="5.24853">
        <ele>137</ele>
        <time>2015-04-06T08:18:39Z</time>
      </trkpt>
      <trkpt lat="50.06022" lon="5.24851">
        <ele>137</ele>
        <time>2015-04-06T08:18:45Z</time>
      </trkpt>
      <trkpt lat="50.06027" lon="5.24852">
        <ele>136</ele>
        <time>2015-04-06T08:18:51Z</time>
      </trkpt>
      <trkpt lat="50.06032" lon="5.24853">
        <ele>136</ele>
        <time>2015-04-06T08:18:57Z</time>
      </trkpt>
      <trkpt lat="50.06036" lon="5.24853">
        <ele>134</ele>
        <time>2015-04-06T08:19:02Z</time>
      </trkpt>
      <trkpt lat="50.0604" lon="5.24855">
        <ele>133</ele>
        <time>2015-04-06T08:19:07Z</time>
      </trkpt>
      <trkpt lat="50.06046" lon="5.24856">
        <ele>133</ele>
        <time>2015-04-06T08:19:13Z</time>
      </trkpt>
      <trkpt lat="50.06052" lon="5.24857">
        <ele>132</ele>
        <time>2015-04-06T08:19:19Z</time>
      </trkpt>
      <trkpt lat="50.06057" lon="5.24857">
        <ele>132</ele>
        <time>2015-04-06T08:19:24Z</time>
      </trkpt>
      <trkpt lat="50.06065" lon="5.24857">
        <ele>131</ele>
        <time>2015-04-06T08:19:30Z</time>
      </trkpt>
      <trkpt lat="50.06071" lon="5.24857">
        <ele>130</ele>
        <time>2015-04-06T08:19:35Z</time>
      </trkpt>
      <trkpt lat="50.06077" lon="5.24858">
        <ele>129</ele>
        <time>2015-04-06T08:19:41Z</time>
      </trkpt>
      <trkpt lat="50.06082" lon="5.24859">
        <ele>128</ele>
        <time>2015-04-06T08:19:46Z</time>
      </trkpt>
      <trkpt lat="50.06088" lon="5.24859">
        <ele>128</ele>
        <time>2015-04-06T08:19:52Z</time>
      </trkpt>
      <trkpt lat="50.06094" lon="5.24859">
        <ele>127</ele>
        <time>2015-04-06T08:19:57Z</time>
      </trkpt>
      <trkpt lat="50.061" lon="5.24859">
        <ele>126</ele>
        <time>2015-04-06T08:20:02Z</time>
      </trkpt>
      <trkpt lat="50.06107" lon="5.24859">
        <ele>125</ele>
        <time>2015-04-06T08:20:08Z</time>
      </trkpt>
      <trkpt lat="50.06115" lon="5.2486">
        <ele>125</ele>
        <time>2015-04-06T08:20:13Z</time>
      </trkpt>
      <trkpt lat="50.06121" lon="5.2486">
        <ele>124</ele>
        <time>2015-04-06T08:20:19Z</time>
      </trkpt>
      <trkpt lat="50.06127" lon="5.24861">
        <ele>123</ele>
        <time>2015-04-06T08:20:25Z</time>
      </trkpt>
      <trkpt lat="50.06133" lon="5.24864">
        <ele>123</ele>
        <time>2015-04-06T08:20:30Z</time>
      </trkpt>
      <trkpt lat="50.06139" lon="5.24866">
        <ele>122</ele>
        <time>2015-04-06T08:20:35Z</time>
      </trkpt>
      <trkpt lat="50.06146" lon="5.24871">
        <ele>121</ele>
        <time>2015-04-06T08:20:40Z</time>
      </trkpt>
      <trkpt lat="50.06151" lon="5.24875">
        <ele>120</ele>
        <time>2015-04-06T08:20:45Z</time>
      </trkpt>
      <trkpt lat="50.06158" lon="5.24881">
        <ele>119</ele>
        <time>2015-04-06T08:20:51Z</time>
      </trkpt>
      <trkpt lat="50.06164" lon="5.24887">
        <ele>119</ele>
        <time>2015-04-06T08:20:57Z</time>
      </trkpt>
      <trkpt lat="50.06168" lon="5.24894">
        <ele>118</ele>
        <time>2015-04-06T08:21:02Z</time>
      </trkpt>
      <trkpt lat="50.06173" lon="5.24903">
        <ele>117</ele>
        <time>2015-04-06T08:21:08Z</time>
      </trkpt>
      <trkpt lat="50.06178" lon="5.24911">
        <ele>117</ele>
        <time>2015-04-06T08:21:14Z</time>
      </trkpt>
      <trkpt lat="50.06181" lon="5.24917">
        <ele>117</ele>
        <time>2015-04-06T08:21:19Z</time>
      </trkpt>
      <trkpt lat="50.06183" lon="5.24923">
        <ele>117</ele>
        <time>2015-04-06T08:21:25Z</time>
      </trkpt>
      <trkpt lat="50.06185" lon="5.24929">
        <ele>117</ele>
        <time>2015-04-06T08:21:30Z</time>
      </trkpt>
      <trkpt lat="50.06187" lon="5.24936">
        <ele>117</ele>
        <time>2015-04-06T08:21:35Z</time>
      </trkpt>
      <trkpt lat="50.06189" lon="5.24943">
        <ele>118</ele>
        <time>2015-04-06T08:21:41Z</time>
      </trkpt>
      <trkpt lat="50.06194" lon="5.24946">
        <ele>118</ele>
        <time>2015-04-06T08:21:46Z</time>
      </trkpt>
      <trkpt lat="50.06197" lon="5.24947">
        <ele>119</ele>
        <time>2015-04-06T08:21:52Z</time>
      </trkpt>
      <trkpt lat="50.06203" lon="5.24948">
        <ele>118</ele>
        <time>2015-04-06T08:21:57Z</time>
      </trkpt>
      <trkpt lat="50.06205" lon="5.24946">
        <ele>118</ele>
        <time>2015-04-06T08:22:03Z</time>
      </trkpt>
      <trkpt lat="50.06209" lon="5.24943">
        <ele>119</ele>
        <time>2015-04-06T08:22:08Z</time>
      </trkpt>
      <trkpt lat="50.06212" lon="5.24938">
        <ele>118</ele>
        <time>2015-04-06T08:22:13Z</time>
      </trkpt>
      <trkpt lat="50.06217" lon="5.24931">
        <ele>118</ele>
        <time>2015-04-06T08:22:19Z</time>
      </trkpt>
      <trkpt lat="50.06221" lon="5.24923">
        <ele>118</ele>
        <time>2015-04-06T08:22:25Z</time>
      </trkpt>
      <trkpt lat="50.06226" lon="5.24915">
        <ele>118</ele>
        <time>2015-04-06T08:22:31Z</time>
      </trkpt>
      <trkpt lat="50.06227" lon="5.24909">
        <ele>118</ele>
        <time>2015-04-06T08:22:36Z</time>
      </trkpt>
      <trkpt lat="50.06224" lon="5.24902">
        <ele>119</ele>
        <time>2015-04-06T08:22:42Z</time>
      </trkpt>
      <trkpt lat="50.06226" lon="5.24895">
        <ele>119</ele>
        <time>2015-04-06T08:22:47Z</time>
      </trkpt>
      <trkpt lat="50.06228" lon="5.24889">
        <ele>119</ele>
        <time>2015-04-06T08:22:53Z</time>
      </trkpt>
      <trkpt lat="50.06232" lon="5.24884">
        <ele>120</ele>
        <time>2015-04-06T08:22:58Z</time>
      </trkpt>
      <trkpt lat="50.06236" lon="5.24879">
        <ele>120</ele>
        <time>2015-04-06T08:23:03Z</time>
      </trkpt>
      <trkpt lat="50.06241" lon="5.24872">
        <ele>121</ele>
        <time>2015-04-06T08:23:09Z</time>
      </trkpt>
      <trkpt lat="50.06245" lon="5.24866">
        <ele>121</ele>
        <time>2015-04-06T08:23:14Z</time>
      </trkpt>
      <trkpt lat="50.0625" lon="5.24858">
        <ele>121</ele>
        <time>2015-04-06T08:23:20Z</time>
      </trkpt>
      <trkpt lat="50.06253" lon="5.24852">
        <ele>121</ele>
        <time>2015-04-06T08:23:25Z</time>
      </trkpt>
      <trkpt lat="50.06258" lon="5.24845">
        <ele>121</ele>
        <time>2015-04-06T08:23:31Z</time>
      </trkpt>
      <trkpt lat="50.06263" lon="5.24837">
        <ele>122</ele>
        <time>2015-04-06T08:23:37Z</time>
      </trkpt>
      <trkpt lat="50.06267" lon="5.24829">
        <ele>122</ele>
        <time>2015-04-06T08:23:43Z</time>
      </trkpt>
      <trkpt lat="50.0627" lon="5.24824">
        <ele>122</ele>
        <time>2015-04-06T08:23:49Z</time>
      </trkpt>
      <trkpt lat="50.06273" lon="5.24819">
        <ele>122</ele>
        <time>2015-04-06T08:23:55Z</time>
      </trkpt>
      <trkpt lat="50.06278" lon="5.24813">
        <ele>122</ele>
        <time>2015-04-06T08:24:00Z</time>
      </trkpt>
      <trkpt lat="50.06282" lon="5.24808">
        <ele>122</ele>
        <time>2015-04-06T08:24:06Z</time>
      </trkpt>
      <trkpt lat="50.06287" lon="5.24801">
        <ele>123</ele>
        <time>2015-04-06T08:24:12Z</time>
      </trkpt>
      <trkpt lat="50.06291" lon="5.24796">
        <ele>123</ele>
        <time>2015-04-06T08:24:17Z</time>
      </trkpt>
      <trkpt lat="50.06296" lon="5.2479">
        <ele>123</ele>
        <time>2015-04-06T08:24:23Z</time>
      </trkpt>
      <trkpt lat="50.06301" lon="5.24784">
        <ele>122</ele>
        <time>2015-04-06T08:24:28Z</time>
      </trkpt>
      <trkpt lat="50.06305" lon="5.24777">
        <ele>122</ele>
        <time>2015-04-06T08:24:34Z</time>
      </trkpt>
      <trkpt lat="50.06309" lon="5.24771">
        <ele>123</ele>
        <time>2015-04-06T08:24:40Z</time>
      </trkpt>
      <trkpt lat="50.06313" lon="5.24767">
        <ele>123</ele>
        <time>2015-04-06T08:24:45Z</time>
      </trkpt>
      <trkpt lat="50.06319" lon="5.24763">
        <ele>124</ele>
        <time>2015-04-06T08:24:51Z</time>
      </trkpt>
      <trkpt lat="50.06324" lon="5.2476">
        <ele>124</ele>
        <time>2015-04-06T08:24:56Z</time>
      </trkpt>
      <trkpt lat="50.06329" lon="5.24756">
        <ele>124</ele>
        <time>2015-04-06T08:25:01Z</time>
      </trkpt>
      <trkpt lat="50.06335" lon="5.24754">
        <ele>125</ele>
        <time>2015-04-06T08:25:07Z</time>
      </trkpt>
      <trkpt lat="50.0634" lon="5.24752">
        <ele>126</ele>
        <time>2015-04-06T08:25:13Z</time>
      </trkpt>
      <trkpt lat="50.06345" lon="5.24749">
        <ele>126</ele>
        <time>2015-04-06T08:25:19Z</time>
      </trkpt>
      <trkpt lat="50.06348" lon="5.24744">
        <ele>125</ele>
        <time>2015-04-06T08:25:25Z</time>
      </trkpt>
      <trkpt lat="50.06351" lon="5.24739">
        <ele>126</ele>
        <time>2015-04-06T08:25:30Z</time>
      </trkpt>
      <trkpt lat="50.06355" lon="5.24734">
        <ele>127</ele>
        <time>2015-04-06T08:25:36Z</time>
      </trkpt>
      <trkpt lat="50.0636" lon="5.24727">
        <ele>127</ele>
        <time>2015-04-06T08:25:42Z</time>
      </trkpt>
      <trkpt lat="50.06363" lon="5.24722">
        <ele>128</ele>
        <time>2015-04-06T08:25:47Z</time>
      </trkpt>
      <trkpt lat="50.06367" lon="5.24715">
        <ele>128</ele>
        <time>2015-04-06T08:25:53Z</time>
      </trkpt>
      <trkpt lat="50.0637" lon="5.24707">
        <ele>129</ele>
        <time>2015-04-06T08:25:59Z</time>
      </trkpt>
      <trkpt lat="50.06373" lon="5.24699">
        <ele>129</ele>
        <time>2015-04-06T08:26:04Z</time>
      </trkpt>
      <trkpt lat="50.06376" lon="5.24691">
        <ele>129</ele>
        <time>2015-04-06T08:26:10Z</time>
      </trkpt>
      <trkpt lat="50.06378" lon="5.2468">
        <ele>130</ele>
        <time>2015-04-06T08:26:16Z</time>
      </trkpt>
      <trkpt lat="50.0638" lon="5.24672">
        <ele>130</ele>
        <time>2015-04-06T08:26:21Z</time>
      </trkpt>
      <trkpt lat="50.06382" lon="5.24663">
        <ele>130</ele>
        <time>2015-04-06T08:26:26Z</time>
      </trkpt>
      <trkpt lat="50.06384" lon="5.24654">
        <ele>130</ele>
        <time>2015-04-06T08:26:32Z</time>
      </trkpt>
      <trkpt lat="50.06386" lon="5.24645">
        <ele>130</ele>
        <time>2015-04-06T08:26:37Z</time>
      </trkpt>
      <trkpt lat="50.06388" lon="5.24638">
        <ele>130</ele>
        <time>2015-04-06T08:26:42Z</time>
      </trkpt>
      <trkpt lat="50.06389" lon="5.24628">
        <ele>131</ele>
        <time>2015-04-06T08:26:48Z</time>
      </trkpt>
      <trkpt lat="50.0639" lon="5.2462">
        <ele>131</ele>
        <time>2015-04-06T08:26:53Z</time>
      </trkpt>
      <trkpt lat="50.06392" lon="5.2461">
        <ele>131</ele>
        <time>2015-04-06T08:26:59Z</time>
      </trkpt>
      <trkpt lat="50.06394" lon="5.24602">
        <ele>131</ele>
        <time>2015-04-06T08:27:04Z</time>
      </trkpt>
      <trkpt lat="50.06397" lon="5.24593">
        <ele>131</ele>
        <time>2015-04-06T08:27:09Z</time>
      </trkpt>
      <trkpt lat="50.064" lon="5.2458">
        <ele>131</ele>
        <time>2015-04-06T08:27:15Z</time>
      </trkpt>
      <trkpt lat="50.06402" lon="5.24571">
        <ele>131</ele>
        <time>2015-04-06T08:27:20Z</time>
      </trkpt>
      <trkpt lat="50.06404" lon="5.24562">
        <ele>132</ele>
        <time>2015-04-06T08:27:26Z</time>
      </trkpt>
      <trkpt lat="50.06406" lon="5.24553">
        <ele>132</ele>
        <time>2015-04-06T08:27:32Z</time>
      </trkpt>
      <trkpt lat="50.06407" lon="5.24545">
        <ele>132</ele>
        <time>2015-04-06T08:27:37Z</time>
      </trkpt>
      <trkpt lat="50.06407" lon="5.24537">
        <ele>132</ele>
        <time>2015-04-06T08:27:42Z</time>
      </trkpt>
      <trkpt lat="50.06408" lon="5.24529">
        <ele>132</ele>
        <time>2015-04-06T08:27:48Z</time>
      </trkpt>
      <trkpt lat="50.0641" lon="5.24523">
        <ele>133</ele>
        <time>2015-04-06T08:27:54Z</time>
      </trkpt>
      <trkpt lat="50.06411" lon="5.2452">
        <ele>133</ele>
        <time>2015-04-06T08:27:59Z</time>
      </trkpt>
      <trkpt lat="50.06414" lon="5.24517">
        <ele>133</ele>
        <time>2015-04-06T08:28:05Z</time>
      </trkpt>
      <trkpt lat="50.06416" lon="5.2451">
        <ele>133</ele>
        <time>2015-04-06T08:28:11Z</time>
      </trkpt>
      <trkpt lat="50.06416" lon="5.24504">
        <ele>133</ele>
        <time>2015-04-06T08:28:16Z</time>
      </trkpt>
      <trkpt lat="50.06418" lon="5.24494">
        <ele>134</ele>
        <time>2015-04-06T08:28:22Z</time>
      </trkpt>
      <trkpt lat="50.06418" lon="5.24487">
        <ele>134</ele>
        <time>2015-04-06T08:28:27Z</time>
      </trkpt>
      <trkpt lat="50.06417" lon="5.24483">
        <ele>134</ele>
        <time>2015-04-06T08:28:33Z</time>
      </trkpt>
      <trkpt lat="50.06417" lon="5.24478">
        <ele>134</ele>
        <time>2015-04-06T08:28:38Z</time>
      </trkpt>
      <trkpt lat="50.06418" lon="5.24475">
        <ele>134</ele>
        <time>2015-04-06T08:28:44Z</time>
      </trkpt>
      <trkpt lat="50.06419" lon="5.24473">
        <ele>134</ele>
        <time>2015-04-06T08:28:49Z</time>
      </trkpt>
      <trkpt lat="50.0642" lon="5.24468">
        <ele>134</ele>
        <time>2015-04-06T08:28:55Z</time>
      </trkpt>
      <trkpt lat="50.0642" lon="5.2446">
        <ele>134</ele>
        <time>2015-04-06T08:29:01Z</time>
      </trkpt>
      <trkpt lat="50.06421" lon="5.24456">
        <ele>135</ele>
        <time>2015-04-06T08:29:06Z</time>
      </trkpt>
      <trkpt lat="50.06421" lon="5.24447">
        <ele>135</ele>
        <time>2015-04-06T08:29:12Z</time>
      </trkpt>
      <trkpt lat="50.06422" lon="5.24439">
        <ele>135</ele>
        <time>2015-04-06T08:29:17Z</time>
      </trkpt>
      <trkpt lat="50.06423" lon="5.24433">
        <ele>135</ele>
        <time>2015-04-06T08:29:22Z</time>
      </trkpt>
      <trkpt lat="50.06422" lon="5.24422">
        <ele>135</ele>
        <time>2015-04-06T08:29:28Z</time>
      </trkpt>
      <trkpt lat="50.06421" lon="5.2441">
        <ele>135</ele>
        <time>2015-04-06T08:29:34Z</time>
      </trkpt>
      <trkpt lat="50.06424" lon="5.24399">
        <ele>134</ele>
        <time>2015-04-06T08:29:40Z</time>
      </trkpt>
      <trkpt lat="50.06424" lon="5.24388">
        <ele>134</ele>
        <time>2015-04-06T08:29:46Z</time>
      </trkpt>
      <trkpt lat="50.06424" lon="5.24378">
        <ele>134</ele>
        <time>2015-04-06T08:29:51Z</time>
      </trkpt>
      <trkpt lat="50.06424" lon="5.24368">
        <ele>135</ele>
        <time>2015-04-06T08:29:57Z</time>
      </trkpt>
      <trkpt lat="50.06426" lon="5.2436">
        <ele>135</ele>
        <time>2015-04-06T08:30:03Z</time>
      </trkpt>
      <trkpt lat="50.06426" lon="5.24349">
        <ele>135</ele>
        <time>2015-04-06T08:30:09Z</time>
      </trkpt>
      <trkpt lat="50.06426" lon="5.24342">
        <ele>135</ele>
        <time>2015-04-06T08:30:14Z</time>
      </trkpt>
      <trkpt lat="50.06427" lon="5.24334">
        <ele>135</ele>
        <time>2015-04-06T08:30:20Z</time>
      </trkpt>
      <trkpt lat="50.06427" lon="5.24325">
        <ele>135</ele>
        <time>2015-04-06T08:30:25Z</time>
      </trkpt>
      <trkpt lat="50.06427" lon="5.24315">
        <ele>135</ele>
        <time>2015-04-06T08:30:31Z</time>
      </trkpt>
      <trkpt lat="50.06426" lon="5.24305">
        <ele>135</ele>
        <time>2015-04-06T08:30:36Z</time>
      </trkpt>
      <trkpt lat="50.06424" lon="5.24298">
        <ele>135</ele>
        <time>2015-04-06T08:30:42Z</time>
      </trkpt>
      <trkpt lat="50.06424" lon="5.24289">
        <ele>135</ele>
        <time>2015-04-06T08:30:48Z</time>
      </trkpt>
      <trkpt lat="50.06423" lon="5.24278">
        <ele>135</ele>
        <time>2015-04-06T08:30:54Z</time>
      </trkpt>
      <trkpt lat="50.06425" lon="5.24268">
        <ele>135</ele>
        <time>2015-04-06T08:31:00Z</time>
      </trkpt>
      <trkpt lat="50.06427" lon="5.24261">
        <ele>135</ele>
        <time>2015-04-06T08:31:05Z</time>
      </trkpt>
      <trkpt lat="50.0643" lon="5.24255">
        <ele>135</ele>
        <time>2015-04-06T08:31:10Z</time>
      </trkpt>
      <trkpt lat="50.06431" lon="5.24247">
        <ele>135</ele>
        <time>2015-04-06T08:31:15Z</time>
      </trkpt>
      <trkpt lat="50.06433" lon="5.24238">
        <ele>135</ele>
        <time>2015-04-06T08:31:21Z</time>
      </trkpt>
      <trkpt lat="50.06437" lon="5.24231">
        <ele>135</ele>
        <time>2015-04-06T08:31:26Z</time>
      </trkpt>
      <trkpt lat="50.0644" lon="5.24225">
        <ele>136</ele>
        <time>2015-04-06T08:31:31Z</time>
      </trkpt>
      <trkpt lat="50.06443" lon="5.24219">
        <ele>136</ele>
        <time>2015-04-06T08:31:37Z</time>
      </trkpt>
      <trkpt lat="50.06445" lon="5.24212">
        <ele>136</ele>
        <time>2015-04-06T08:31:42Z</time>
      </trkpt>
      <trkpt lat="50.06445" lon="5.24205">
        <ele>136</ele>
        <time>2015-04-06T08:31:47Z</time>
      </trkpt>
      <trkpt lat="50.06446" lon="5.24199">
        <ele>136</ele>
        <time>2015-04-06T08:31:52Z</time>
      </trkpt>
      <trkpt lat="50.06449" lon="5.24193">
        <ele>136</ele>
        <time>2015-04-06T08:31:57Z</time>
      </trkpt>
      <trkpt lat="50.06451" lon="5.24185">
        <ele>136</ele>
        <time>2015-04-06T08:32:02Z</time>
      </trkpt>
      <trkpt lat="50.06453" lon="5.24177">
        <ele>137</ele>
        <time>2015-04-06T08:32:08Z</time>
      </trkpt>
      <trkpt lat="50.06453" lon="5.24172">
        <ele>137</ele>
        <time>2015-04-06T08:32:13Z</time>
      </trkpt>
      <trkpt lat="50.06454" lon="5.24164">
        <ele>137</ele>
        <time>2015-04-06T08:32:19Z</time>
      </trkpt>
      <trkpt lat="50.06457" lon="5.24156">
        <ele>137</ele>
        <time>2015-04-06T08:32:25Z</time>
      </trkpt>
      <trkpt lat="50.06459" lon="5.24153">
        <ele>137</ele>
        <time>2015-04-06T08:32:30Z</time>
      </trkpt>
      <trkpt lat="50.06463" lon="5.24149">
        <ele>137</ele>
        <time>2015-04-06T08:32:35Z</time>
      </trkpt>
      <trkpt lat="50.06466" lon="5.24143">
        <ele>137</ele>
        <time>2015-04-06T08:32:40Z</time>
      </trkpt>
      <trkpt lat="50.06469" lon="5.24136">
        <ele>137</ele>
        <time>2015-04-06T08:32:46Z</time>
      </trkpt>
      <trkpt lat="50.0647" lon="5.2413">
        <ele>137</ele>
        <time>2015-04-06T08:32:51Z</time>
      </trkpt>
      <trkpt lat="50.06473" lon="5.24124">
        <ele>137</ele>
        <time>2015-04-06T08:32:56Z</time>
      </trkpt>
      <trkpt lat="50.06476" lon="5.24114">
        <ele>137</ele>
        <time>2015-04-06T08:33:02Z</time>
      </trkpt>
      <trkpt lat="50.06477" lon="5.24105">
        <ele>137</ele>
        <time>2015-04-06T08:33:07Z</time>
      </trkpt>
      <trkpt lat="50.06477" lon="5.24097">
        <ele>138</ele>
        <time>2015-04-06T08:33:12Z</time>
      </trkpt>
      <trkpt lat="50.06477" lon="5.2409">
        <ele>138</ele>
        <time>2015-04-06T08:33:17Z</time>
      </trkpt>
      <trkpt lat="50.06478" lon="5.24083">
        <ele>138</ele>
        <time>2015-04-06T08:33:23Z</time>
      </trkpt>
      <trkpt lat="50.06479" lon="5.24077">
        <ele>138</ele>
        <time>2015-04-06T08:33:29Z</time>
      </trkpt>
      <trkpt lat="50.06479" lon="5.2407">
        <ele>139</ele>
        <time>2015-04-06T08:33:34Z</time>
      </trkpt>
      <trkpt lat="50.0648" lon="5.24071">
        <ele>139</ele>
        <time>2015-04-06T08:33:40Z</time>
      </trkpt>
      <trkpt lat="50.0648" lon="5.24065">
        <ele>139</ele>
        <time>2015-04-06T08:33:46Z</time>
      </trkpt>
      <trkpt lat="50.06482" lon="5.24058">
        <ele>138</ele>
        <time>2015-04-06T08:33:51Z</time>
      </trkpt>
      <trkpt lat="50.06482" lon="5.2405">
        <ele>138</ele>
        <time>2015-04-06T08:33:56Z</time>
      </trkpt>
      <trkpt lat="50.06482" lon="5.24039">
        <ele>138</ele>
        <time>2015-04-06T08:34:02Z</time>
      </trkpt>
      <trkpt lat="50.06482" lon="5.24027">
        <ele>139</ele>
        <time>2015-04-06T08:34:08Z</time>
      </trkpt>
      <trkpt lat="50.06482" lon="5.24019">
        <ele>139</ele>
        <time>2015-04-06T08:34:13Z</time>
      </trkpt>
      <trkpt lat="50.06482" lon="5.24008">
        <ele>139</ele>
        <time>2015-04-06T08:34:19Z</time>
      </trkpt>
      <trkpt lat="50.06482" lon="5.23998">
        <ele>139</ele>
        <time>2015-04-06T08:34:24Z</time>
      </trkpt>
      <trkpt lat="50.06483" lon="5.23987">
        <ele>139</ele>
        <time>2015-04-06T08:34:30Z</time>
      </trkpt>
      <trkpt lat="50.06485" lon="5.23981">
        <ele>139</ele>
        <time>2015-04-06T08:34:35Z</time>
      </trkpt>
      <trkpt lat="50.06485" lon="5.23971">
        <ele>140</ele>
        <time>2015-04-06T08:34:41Z</time>
      </trkpt>
      <trkpt lat="50.06486" lon="5.23963">
        <ele>140</ele>
        <time>2015-04-06T08:34:47Z</time>
      </trkpt>
      <trkpt lat="50.06486" lon="5.23955">
        <ele>140</ele>
        <time>2015-04-06T08:34:52Z</time>
      </trkpt>
      <trkpt lat="50.06486" lon="5.23947">
        <ele>140</ele>
        <time>2015-04-06T08:34:57Z</time>
      </trkpt>
      <trkpt lat="50.06487" lon="5.23938">
        <ele>141</ele>
        <time>2015-04-06T08:35:03Z</time>
      </trkpt>
      <trkpt lat="50.06488" lon="5.23931">
        <ele>141</ele>
        <time>2015-04-06T08:35:08Z</time>
      </trkpt>
      <trkpt lat="50.06488" lon="5.23921">
        <ele>141</ele>
        <time>2015-04-06T08:35:13Z</time>
      </trkpt>
      <trkpt lat="50.06488" lon="5.2391">
        <ele>141</ele>
        <time>2015-04-06T08:35:18Z</time>
      </trkpt>
      <trkpt lat="50.06488" lon="5.23898">
        <ele>142</ele>
        <time>2015-04-06T08:35:24Z</time>
      </trkpt>
      <trkpt lat="50.06488" lon="5.23885">
        <ele>142</ele>
        <time>2015-04-06T08:35:30Z</time>
      </trkpt>
      <trkpt lat="50.06488" lon="5.23875">
        <ele>142</ele>
        <time>2015-04-06T08:35:35Z</time>
      </trkpt>
      <trkpt lat="50.06488" lon="5.23863">
        <ele>142</ele>
        <time>2015-04-06T08:35:41Z</time>
      </trkpt>
      <trkpt lat="50.06489" lon="5.23852">
        <ele>141</ele>
        <time>2015-04-06T08:35:47Z</time>
      </trkpt>
      <trkpt lat="50.0649" lon="5.2384">
        <ele>142</ele>
        <time>2015-04-06T08:35:53Z</time>
      </trkpt>
      <trkpt lat="50.06489" lon="5.23828">
        <ele>143</ele>
        <time>2015-04-06T08:35:58Z</time>
      </trkpt>
      <trkpt lat="50.0649" lon="5.23817">
        <ele>143</ele>
        <time>2015-04-06T08:36:04Z</time>
      </trkpt>
      <trkpt lat="50.0649" lon="5.23806">
        <ele>143</ele>
        <time>2015-04-06T08:36:10Z</time>
      </trkpt>
      <trkpt lat="50.0649" lon="5.23795">
        <ele>143</ele>
        <time>2015-04-06T08:36:15Z</time>
      </trkpt>
      <trkpt lat="50.0649" lon="5.23785">
        <ele>143</ele>
        <time>2015-04-06T08:36:20Z</time>
      </trkpt>
      <trkpt lat="50.06491" lon="5.23774">
        <ele>144</ele>
        <time>2015-04-06T08:36:26Z</time>
      </trkpt>
      <trkpt lat="50.06491" lon="5.23764">
        <ele>143</ele>
        <time>2015-04-06T08:36:31Z</time>
      </trkpt>
      <trkpt lat="50.06492" lon="5.23753">
        <ele>144</ele>
        <time>2015-04-06T08:36:37Z</time>
      </trkpt>
      <trkpt lat="50.06493" lon="5.23742">
        <ele>144</ele>
        <time>2015-04-06T08:36:43Z</time>
      </trkpt>
      <trkpt lat="50.06493" lon="5.23733">
        <ele>144</ele>
        <time>2015-04-06T08:36:48Z</time>
      </trkpt>
      <trkpt lat="50.06497" lon="5.23727">
        <ele>144</ele>
        <time>2015-04-06T08:36:53Z</time>
      </trkpt>
      <trkpt lat="50.06497" lon="5.23715">
        <ele>144</ele>
        <time>2015-04-06T08:36:59Z</time>
      </trkpt>
      <trkpt lat="50.06498" lon="5.23707">
        <ele>144</ele>
        <time>2015-04-06T08:37:04Z</time>
      </trkpt>
      <trkpt lat="50.06497" lon="5.23697">
        <ele>144</ele>
        <time>2015-04-06T08:37:10Z</time>
      </trkpt>
      <trkpt lat="50.06497" lon="5.23688">
        <ele>144</ele>
        <time>2015-04-06T08:37:16Z</time>
      </trkpt>
      <trkpt lat="50.06498" lon="5.23681">
        <ele>144</ele>
        <time>2015-04-06T08:37:21Z</time>
      </trkpt>
      <trkpt lat="50.06498" lon="5.23673">
        <ele>145</ele>
        <time>2015-04-06T08:37:27Z</time>
      </trkpt>
      <trkpt lat="50.06498" lon="5.23667">
        <ele>145</ele>
        <time>2015-04-06T08:37:32Z</time>
      </trkpt>
      <trkpt lat="50.06497" lon="5.23658">
        <ele>146</ele>
        <time>2015-04-06T08:37:38Z</time>
      </trkpt>
      <trkpt lat="50.06496" lon="5.2365">
        <ele>146</ele>
        <time>2015-04-06T08:37:43Z</time>
      </trkpt>
      <trkpt lat="50.06496" lon="5.23642">
        <ele>146</ele>
        <time>2015-04-06T08:37:48Z</time>
      </trkpt>
      <trkpt lat="50.06495" lon="5.23633">
        <ele>147</ele>
        <time>2015-04-06T08:37:53Z</time>
      </trkpt>
      <trkpt lat="50.06495" lon="5.23624">
        <ele>147</ele>
        <time>2015-04-06T08:37:59Z</time>
      </trkpt>
      <trkpt lat="50.06495" lon="5.23617">
        <ele>148</ele>
        <time>2015-04-06T08:38:04Z</time>
      </trkpt>
      <trkpt lat="50.06495" lon="5.23607">
        <ele>149</ele>
        <time>2015-04-06T08:38:10Z</time>
      </trkpt>
      <trkpt lat="50.06495" lon="5.23598">
        <ele>150</ele>
        <time>2015-04-06T08:38:15Z</time>
      </trkpt>
      <trkpt lat="50.06496" lon="5.2359">
        <ele>150</ele>
        <time>2015-04-06T08:38:20Z</time>
      </trkpt>
      <trkpt lat="50.06497" lon="5.2358">
        <ele>151</ele>
        <time>2015-04-06T08:38:26Z</time>
      </trkpt>
      <trkpt lat="50.06498" lon="5.23574">
        <ele>151</ele>
        <time>2015-04-06T08:38:31Z</time>
      </trkpt>
      <trkpt lat="50.065" lon="5.2357">
        <ele>151</ele>
        <time>2015-04-06T08:38:36Z</time>
      </trkpt>
      <trkpt lat="50.06503" lon="5.23564">
        <ele>152</ele>
        <time>2015-04-06T08:38:41Z</time>
      </trkpt>
      <trkpt lat="50.06504" lon="5.23559">
        <ele>152</ele>
        <time>2015-04-06T08:38:46Z</time>
      </trkpt>
      <trkpt lat="50.06504" lon="5.23552">
        <ele>153</ele>
        <time>2015-04-06T08:38:52Z</time>
      </trkpt>
      <trkpt lat="50.06506" lon="5.23547">
        <ele>153</ele>
        <time>2015-04-06T08:38:57Z</time>
      </trkpt>
      <trkpt lat="50.0651" lon="5.2354">
        <ele>153</ele>
        <time>2015-04-06T08:39:03Z</time>
      </trkpt>
      <trkpt lat="50.06512" lon="5.23534">
        <ele>154</ele>
        <time>2015-04-06T08:39:08Z</time>
      </trkpt>
      <trkpt lat="50.06515" lon="5.23526">
        <ele>154</ele>
        <time>2015-04-06T08:39:14Z</time>
      </trkpt>
      <trkpt lat="50.06516" lon="5.2352">
        <ele>155</ele>
        <time>2015-04-06T08:39:19Z</time>
      </trkpt>
      <trkpt lat="50.06518" lon="5.23512">
        <ele>155</ele>
        <time>2015-04-06T08:39:24Z</time>
      </trkpt>
      <trkpt lat="50.06521" lon="5.23503">
        <ele>156</ele>
        <time>2015-04-06T08:39:30Z</time>
      </trkpt>
      <trkpt lat="50.06521" lon="5.23496">
        <ele>157</ele>
        <time>2015-04-06T08:39:35Z</time>
      </trkpt>
      <trkpt lat="50.06523" lon="5.23487">
        <ele>157</ele>
        <time>2015-04-06T08:39:40Z</time>
      </trkpt>
      <trkpt lat="50.06527" lon="5.23477">
        <ele>158</ele>
        <time>2015-04-06T08:39:46Z</time>
      </trkpt>
      <trkpt lat="50.0653" lon="5.23469">
        <ele>159</ele>
        <time>2015-04-06T08:39:51Z</time>
      </trkpt>
      <trkpt lat="50.06532" lon="5.23459">
        <ele>159</ele>
        <time>2015-04-06T08:39:57Z</time>
      </trkpt>
      <trkpt lat="50.06535" lon="5.23451">
        <ele>160</ele>
        <time>2015-04-06T08:40:03Z</time>
      </trkpt>
      <trkpt lat="50.06536" lon="5.23443">
        <ele>161</ele>
        <time>2015-04-06T08:40:08Z</time>
      </trkpt>
      <trkpt lat="50.06538" lon="5.23436">
        <ele>161</ele>
        <time>2015-04-06T08:40:13Z</time>
      </trkpt>
      <trkpt lat="50.06541" lon="5.23428">
        <ele>161</ele>
        <time>2015-04-06T08:40:19Z</time>
      </trkpt>
      <trkpt lat="50.06545" lon="5.2342">
        <ele>162</ele>
        <time>2015-04-06T08:40:25Z</time>
      </trkpt>
      <trkpt lat="50.06548" lon="5.23411">
        <ele>162</ele>
        <time>2015-04-06T08:40:31Z</time>
      </trkpt>
      <trkpt lat="50.0655" lon="5.23403">
        <ele>162</ele>
        <time>2015-04-06T08:40:36Z</time>
      </trkpt>
      <trkpt lat="50.06554" lon="5.23394">
        <ele>163</ele>
        <time>2015-04-06T08:40:42Z</time>
      </trkpt>
      <trkpt lat="50.06557" lon="5.23385">
        <ele>163</ele>
        <time>2015-04-06T08:40:48Z</time>
      </trkpt>
      <trkpt lat="50.0656" lon="5.23375">
        <ele>163</ele>
        <time>2015-04-06T08:40:54Z</time>
      </trkpt>
      <trkpt lat="50.06563" lon="5.23365">
        <ele>163</ele>
        <time>2015-04-06T08:41:00Z</time>
      </trkpt>
      <trkpt lat="50.06566" lon="5.23357">
        <ele>164</ele>
        <time>2015-04-06T08:41:06Z</time>
      </trkpt>
      <trkpt lat="50.06568" lon="5.23348">
        <ele>165</ele>
        <time>2015-04-06T08:41:12Z</time>
      </trkpt>
      <trkpt lat="50.0657" lon="5.23339">
        <ele>165</ele>
        <time>2015-04-06T08:41:18Z</time>
      </trkpt>
      <trkpt lat="50.06571" lon="5.23333">
        <ele>166</ele>
        <time>2015-04-06T08:41:23Z</time>
      </trkpt>
      <trkpt lat="50.06574" lon="5.23323">
        <ele>166</ele>
        <time>2015-04-06T08:41:29Z</time>
      </trkpt>
      <trkpt lat="50.06577" lon="5.23316">
        <ele>167</ele>
        <time>2015-04-06T08:41:34Z</time>
      </trkpt>
      <trkpt lat="50.06579" lon="5.2331">
        <ele>168</ele>
        <time>2015-04-06T08:41:39Z</time>
      </trkpt>
      <trkpt lat="50.06584" lon="5.23302">
        <ele>169</ele>
        <time>2015-04-06T08:41:45Z</time>
      </trkpt>
      <trkpt lat="50.06588" lon="5.23296">
        <ele>169</ele>
        <time>2015-04-06T08:41:50Z</time>
      </trkpt>
      <trkpt lat="50.06592" lon="5.23291">
        <ele>170</ele>
        <time>2015-04-06T08:41:55Z</time>
      </trkpt>
      <trkpt lat="50.06595" lon="5.23287">
        <ele>171</ele>
        <time>2015-04-06T08:42:00Z</time>
      </trkpt>
      <trkpt lat="50.066" lon="5.23281">
        <ele>171</ele>
        <time>2015-04-06T08:42:05Z</time>
      </trkpt>
      <trkpt lat="50.06607" lon="5.23277">
        <ele>171</ele>
        <time>2015-04-06T08:42:11Z</time>
      </trkpt>
      <trkpt lat="50.06612" lon="5.23276">
        <ele>172</ele>
        <time>2015-04-06T08:42:17Z</time>
      </trkpt>
      <trkpt lat="50.06617" lon="5.23277">
        <ele>172</ele>
        <time>2015-04-06T08:42:22Z</time>
      </trkpt>
      <trkpt lat="50.06622" lon="5.2328">
        <ele>173</ele>
        <time>2015-04-06T08:42:27Z</time>
      </trkpt>
      <trkpt lat="50.06627" lon="5.23283">
        <ele>174</ele>
        <time>2015-04-06T08:42:33Z</time>
      </trkpt>
      <trkpt lat="50.06633" lon="5.23285">
        <ele>175</ele>
        <time>2015-04-06T08:42:39Z</time>
      </trkpt>
      <trkpt lat="50.06637" lon="5.23287">
        <ele>176</ele>
        <time>2015-04-06T08:42:44Z</time>
      </trkpt>
      <trkpt lat="50.06643" lon="5.2329">
        <ele>177</ele>
        <time>2015-04-06T08:42:50Z</time>
      </trkpt>
      <trkpt lat="50.06646" lon="5.23291">
        <ele>178</ele>
        <time>2015-04-06T08:42:55Z</time>
      </trkpt>
      <trkpt lat="50.06649" lon="5.23292">
        <ele>178</ele>
        <time>2015-04-06T08:43:00Z</time>
      </trkpt>
      <trkpt lat="50.06654" lon="5.23294">
        <ele>179</ele>
        <time>2015-04-06T08:43:06Z</time>
      </trkpt>
      <trkpt lat="50.06659" lon="5.23295">
        <ele>180</ele>
        <time>2015-04-06T08:43:11Z</time>
      </trkpt>
      <trkpt lat="50.06663" lon="5.23296">
        <ele>180</ele>
        <time>2015-04-06T08:43:17Z</time>
      </trkpt>
      <trkpt lat="50.06666" lon="5.23296">
        <ele>181</ele>
        <time>2015-04-06T08:43:22Z</time>
      </trkpt>
      <trkpt lat="50.06672" lon="5.23295">
        <ele>181</ele>
        <time>2015-04-06T08:43:28Z</time>
      </trkpt>
      <trkpt lat="50.06675" lon="5.23295">
        <ele>182</ele>
        <time>2015-04-06T08:43:34Z</time>
      </trkpt>
      <trkpt lat="50.06679" lon="5.23294">
        <ele>183</ele>
        <time>2015-04-06T08:43:39Z</time>
      </trkpt>
      <trkpt lat="50.06682" lon="5.23292">
        <ele>184</ele>
        <time>2015-04-06T08:43:45Z</time>
      </trkpt>
      <trkpt lat="50.06685" lon="5.23289">
        <ele>185</ele>
        <time>2015-04-06T08:43:50Z</time>
      </trkpt>
      <trkpt lat="50.06688" lon="5.23288">
        <ele>186</ele>
        <time>2015-04-06T08:43:55Z</time>
      </trkpt>
      <trkpt lat="50.06691" lon="5.23286">
        <ele>187</ele>
        <time>2015-04-06T08:44:01Z</time>
      </trkpt>
      <trkpt lat="50.06694" lon="5.23284">
        <ele>188</ele>
        <time>2015-04-06T08:44:06Z</time>
      </trkpt>
      <trkpt lat="50.06696" lon="5.23283">
        <ele>188</ele>
        <time>2015-04-06T08:44:11Z</time>
      </trkpt>
      <trkpt lat="50.067" lon="5.23282">
        <ele>189</ele>
        <time>2015-04-06T08:44:16Z</time>
      </trkpt>
      <trkpt lat="50.06703" lon="5.23281">
        <ele>190</ele>
        <time>2015-04-06T08:44:21Z</time>
      </trkpt>
      <trkpt lat="50.06707" lon="5.23278">
        <ele>191</ele>
        <time>2015-04-06T08:44:27Z</time>
      </trkpt>
      <trkpt lat="50.0671" lon="5.23276">
        <ele>192</ele>
        <time>2015-04-06T08:44:32Z</time>
      </trkpt>
      <trkpt lat="50.06713" lon="5.23274">
        <ele>192</ele>
        <time>2015-04-06T08:44:37Z</time>
      </trkpt>
      <trkpt lat="50.06717" lon="5.2327">
        <ele>193</ele>
        <time>2015-04-06T08:44:42Z</time>
      </trkpt>
      <trkpt lat="50.06721" lon="5.23269">
        <ele>194</ele>
        <time>2015-04-06T08:44:47Z</time>
      </trkpt>
      <trkpt lat="50.06726" lon="5.23268">
        <ele>194</ele>
        <time>2015-04-06T08:44:53Z</time>
      </trkpt>
      <trkpt lat="50.0673" lon="5.23266">
        <ele>196</ele>
        <time>2015-04-06T08:44:58Z</time>
      </trkpt>
      <trkpt lat="50.06736" lon="5.23263">
        <ele>197</ele>
        <time>2015-04-06T08:45:04Z</time>
      </trkpt>
      <trkpt lat="50.06739" lon="5.23259">
        <ele>197</ele>
        <time>2015-04-06T08:45:10Z</time>
      </trkpt>
      <trkpt lat="50.06742" lon="5.23257">
        <ele>198</ele>
        <time>2015-04-06T08:45:15Z</time>
      </trkpt>
      <trkpt lat="50.06745" lon="5.23254">
        <ele>198</ele>
        <time>2015-04-06T08:45:20Z</time>
      </trkpt>
      <trkpt lat="50.0675" lon="5.23254">
        <ele>199</ele>
        <time>2015-04-06T08:45:25Z</time>
      </trkpt>
      <trkpt lat="50.06754" lon="5.23252">
        <ele>200</ele>
        <time>2015-04-06T08:45:31Z</time>
      </trkpt>
      <trkpt lat="50.06757" lon="5.2325">
        <ele>201</ele>
        <time>2015-04-06T08:45:37Z</time>
      </trkpt>
      <trkpt lat="50.06762" lon="5.2325">
        <ele>201</ele>
        <time>2015-04-06T08:45:43Z</time>
      </trkpt>
      <trkpt lat="50.06767" lon="5.23249">
        <ele>202</ele>
        <time>2015-04-06T08:45:48Z</time>
      </trkpt>
      <trkpt lat="50.06772" lon="5.23248">
        <ele>203</ele>
        <time>2015-04-06T08:45:54Z</time>
      </trkpt>
      <trkpt lat="50.06777" lon="5.23247">
        <ele>205</ele>
        <time>2015-04-06T08:46:00Z</time>
      </trkpt>
      <trkpt lat="50.06781" lon="5.23247">
        <ele>206</ele>
        <time>2015-04-06T08:46:05Z</time>
      </trkpt>
      <trkpt lat="50.06784" lon="5.23246">
        <ele>206</ele>
        <time>2015-04-06T08:46:10Z</time>
      </trkpt>
      <trkpt lat="50.06789" lon="5.23246">
        <ele>207</ele>
        <time>2015-04-06T08:46:16Z</time>
      </trkpt>
      <trkpt lat="50.06794" lon="5.23247">
        <ele>208</ele>
        <time>2015-04-06T08:46:21Z</time>
      </trkpt>
      <trkpt lat="50.068" lon="5.23246">
        <ele>209</ele>
        <time>2015-04-06T08:46:26Z</time>
      </trkpt>
      <trkpt lat="50.06805" lon="5.23247">
        <ele>210</ele>
        <time>2015-04-06T08:46:32Z</time>
      </trkpt>
      <trkpt lat="50.06808" lon="5.23248">
        <ele>211</ele>
        <time>2015-04-06T08:46:37Z</time>
      </trkpt>
      <trkpt lat="50.06812" lon="5.23248">
        <ele>212</ele>
        <time>2015-04-06T08:46:43Z</time>
      </trkpt>
      <trkpt lat="50.06815" lon="5.23248">
        <ele>213</ele>
        <time>2015-04-06T08:46:48Z</time>
      </trkpt>
      <trkpt lat="50.0682" lon="5.23248">
        <ele>214</ele>
        <time>2015-04-06T08:46:54Z</time>
      </trkpt>
      <trkpt lat="50.06826" lon="5.23248">
        <ele>215</ele>
        <time>2015-04-06T08:47:00Z</time>
      </trkpt>
      <trkpt lat="50.06829" lon="5.23248">
        <ele>216</ele>
        <time>2015-04-06T08:47:06Z</time>
      </trkpt>
      <trkpt lat="50.06832" lon="5.23249">
        <ele>217</ele>
        <time>2015-04-06T08:47:11Z</time>
      </trkpt>
      <trkpt lat="50.06835" lon="5.23251">
        <ele>218</ele>
        <time>2015-04-06T08:47:16Z</time>
      </trkpt>
      <trkpt lat="50.06842" lon="5.23251">
        <ele>219</ele>
        <time>2015-04-06T08:47:22Z</time>
      </trkpt>
      <trkpt lat="50.06847" lon="5.23251">
        <ele>220</ele>
        <time>2015-04-06T08:47:28Z</time>
      </trkpt>
      <trkpt lat="50.06851" lon="5.23253">
        <ele>221</ele>
        <time>2015-04-06T08:47:33Z</time>
      </trkpt>
      <trkpt lat="50.06856" lon="5.23252">
        <ele>222</ele>
        <time>2015-04-06T08:47:39Z</time>
      </trkpt>
      <trkpt lat="50.0686" lon="5.23253">
        <ele>223</ele>
        <time>2015-04-06T08:47:45Z</time>
      </trkpt>
      <trkpt lat="50.06865" lon="5.23253">
        <ele>224</ele>
        <time>2015-04-06T08:47:50Z</time>
      </trkpt>
      <trkpt lat="50.0687" lon="5.23253">
        <ele>225</ele>
        <time>2015-04-06T08:47:55Z</time>
      </trkpt>
      <trkpt lat="50.06875" lon="5.23252">
        <ele>226</ele>
        <time>2015-04-06T08:48:01Z</time>
      </trkpt>
      <trkpt lat="50.0688" lon="5.23251">
        <ele>227</ele>
        <time>2015-04-06T08:48:07Z</time>
      </trkpt>
      <trkpt lat="50.06885" lon="5.2325">
        <ele>228</ele>
        <time>2015-04-06T08:48:13Z</time>
      </trkpt>
      <trkpt lat="50.0689" lon="5.2325">
        <ele>229</ele>
        <time>2015-04-06T08:48:18Z</time>
      </trkpt>
      <trkpt lat="50.06895" lon="5.23249">
        <ele>230</ele>
        <time>2015-04-06T08:48:23Z</time>
      </trkpt>
      <trkpt lat="50.069" lon="5.23248">
        <ele>231</ele>
        <time>2015-04-06T08:48:29Z</time>
      </trkpt>
      <trkpt lat="50.06905" lon="5.23247">
        <ele>232</ele>
        <time>2015-04-06T08:48:34Z</time>
      </trkpt>
      <trkpt lat="50.06911" lon="5.23246">
        <ele>233</ele>
        <time>2015-04-06T08:48:40Z</time>
      </trkpt>
      <trkpt lat="50.06916" lon="5.23244">
        <ele>233</ele>
        <time>2015-04-06T08:48:45Z</time>
      </trkpt>
      <trkpt lat="50.06924" lon="5.23242">
        <ele>235</ele>
        <time>2015-04-06T08:48:51Z</time>
      </trkpt>
      <trkpt lat="50.06931" lon="5.23241">
        <ele>235</ele>
        <time>2015-04-06T08:48:57Z</time>
      </trkpt>
      <trkpt lat="50.06936" lon="5.2324">
        <ele>236</ele>
        <time>2015-04-06T08:49:02Z</time>
      </trkpt>
      <trkpt lat="50.06941" lon="5.23239">
        <ele>237</ele>
        <time>2015-04-06T08:49:07Z</time>
      </trkpt>
      <trkpt lat="50.0695" lon="5.23236">
        <ele>237</ele>
        <time>2015-04-06T08:49:13Z</time>
      </trkpt>
      <trkpt lat="50.06957" lon="5.23235">
        <ele>238</ele>
        <time>2015-04-06T08:49:18Z</time>
      </trkpt>
      <trkpt lat="50.06963" lon="5.23234">
        <ele>239</ele>
        <time>2015-04-06T08:49:23Z</time>
      </trkpt>
      <trkpt lat="50.06972" lon="5.23234">
        <ele>240</ele>
        <time>2015-04-06T08:49:29Z</time>
      </trkpt>
      <trkpt lat="50.06979" lon="5.2323">
        <ele>240</ele>
        <time>2015-04-06T08:49:35Z</time>
      </trkpt>
      <trkpt lat="50.06986" lon="5.23229">
        <ele>240</ele>
        <time>2015-04-06T08:49:41Z</time>
      </trkpt>
      <trkpt lat="50.06993" lon="5.23226">
        <ele>240</ele>
        <time>2015-04-06T08:49:46Z</time>
      </trkpt>
      <trkpt lat="50.07" lon="5.23223">
        <ele>240</ele>
        <time>2015-04-06T08:49:51Z</time>
      </trkpt>
      <trkpt lat="50.07009" lon="5.23217">
        <ele>241</ele>
        <time>2015-04-06T08:49:56Z</time>
      </trkpt>
      <trkpt lat="50.07015" lon="5.23214">
        <ele>242</ele>
        <time>2015-04-06T08:50:02Z</time>
      </trkpt>
      <trkpt lat="50.07022" lon="5.23211">
        <ele>241</ele>
        <time>2015-04-06T08:50:07Z</time>
      </trkpt>
      <trkpt lat="50.07027" lon="5.23209">
        <ele>242</ele>
        <time>2015-04-06T08:50:13Z</time>
      </trkpt>
      <trkpt lat="50.07034" lon="5.23207">
        <ele>242</ele>
        <time>2015-04-06T08:50:18Z</time>
      </trkpt>
      <trkpt lat="50.07041" lon="5.23206">
        <ele>242</ele>
        <time>2015-04-06T08:50:24Z</time>
      </trkpt>
      <trkpt lat="50.0705" lon="5.23205">
        <ele>242</ele>
        <time>2015-04-06T08:50:30Z</time>
      </trkpt>
      <trkpt lat="50.07058" lon="5.23203">
        <ele>242</ele>
        <time>2015-04-06T08:50:36Z</time>
      </trkpt>
      <trkpt lat="50.07065" lon="5.23202">
        <ele>243</ele>
        <time>2015-04-06T08:50:41Z</time>
      </trkpt>
      <trkpt lat="50.07069" lon="5.23198">
        <ele>243</ele>
        <time>2015-04-06T08:50:46Z</time>
      </trkpt>
      <trkpt lat="50.07073" lon="5.23189">
        <ele>243</ele>
        <time>2015-04-06T08:50:52Z</time>
      </trkpt>
      <trkpt lat="50.07076" lon="5.23187">
        <ele>243</ele>
        <time>2015-04-06T08:50:57Z</time>
      </trkpt>
      <trkpt lat="50.07076" lon="5.23187">
        <ele>243</ele>
        <time>2015-04-06T08:51:03Z</time>
      </trkpt>
      <trkpt lat="50.07074" lon="5.23187">
        <ele>243</ele>
        <time>2015-04-06T08:51:09Z</time>
      </trkpt>
      <trkpt lat="50.07074" lon="5.23187">
        <ele>243</ele>
        <time>2015-04-06T08:51:14Z</time>
      </trkpt>
      <trkpt lat="50.07072" lon="5.23187">
        <ele>243</ele>
        <time>2015-04-06T08:51:20Z</time>
      </trkpt>
      <trkpt lat="50.07072" lon="5.23188">
        <ele>243</ele>
        <time>2015-04-06T08:51:25Z</time>
      </trkpt>
      <trkpt lat="50.0707" lon="5.2319">
        <ele>243</ele>
        <time>2015-04-06T08:51:31Z</time>
      </trkpt>
      <trkpt lat="50.07069" lon="5.23192">
        <ele>243</ele>
        <time>2015-04-06T08:51:37Z</time>
      </trkpt>
      <trkpt lat="50.07071" lon="5.23191">
        <ele>243</ele>
        <time>2015-04-06T08:51:43Z</time>
      </trkpt>
      <trkpt lat="50.07073" lon="5.23194">
        <ele>242</ele>
        <time>2015-04-06T08:51:48Z</time>
      </trkpt>
      <trkpt lat="50.07079" lon="5.23198">
        <ele>242</ele>
        <time>2015-04-06T08:51:54Z</time>
      </trkpt>
      <trkpt lat="50.07087" lon="5.23199">
        <ele>242</ele>
        <time>2015-04-06T08:52:00Z</time>
      </trkpt>
      <trkpt lat="50.07094" lon="5.23198">
        <ele>242</ele>
        <time>2015-04-06T08:52:05Z</time>
      </trkpt>
      <trkpt lat="50.07096" lon="5.23196">
        <ele>242</ele>
        <time>2015-04-06T08:52:12Z</time>
      </trkpt>
      <trkpt lat="50.07096" lon="5.23194">
        <ele>242</ele>
        <time>2015-04-06T08:52:18Z</time>
      </trkpt>
      <trkpt lat="50.07103" lon="5.23192">
        <ele>242</ele>
        <time>2015-04-06T08:52:23Z</time>
      </trkpt>
      <trkpt lat="50.07109" lon="5.2319">
        <ele>241</ele>
        <time>2015-04-06T08:52:29Z</time>
      </trkpt>
      <trkpt lat="50.07113" lon="5.23189">
        <ele>241</ele>
        <time>2015-04-06T08:52:35Z</time>
      </trkpt>
      <trkpt lat="50.07114" lon="5.23187">
        <ele>241</ele>
        <time>2015-04-06T08:52:40Z</time>
      </trkpt>
      <trkpt lat="50.07118" lon="5.23185">
        <ele>241</ele>
        <time>2015-04-06T08:52:45Z</time>
      </trkpt>
      <trkpt lat="50.0712" lon="5.23184">
        <ele>240</ele>
        <time>2015-04-06T08:52:51Z</time>
      </trkpt>
      <trkpt lat="50.07121" lon="5.23185">
        <ele>240</ele>
        <time>2015-04-06T08:52:57Z</time>
      </trkpt>
      <trkpt lat="50.07124" lon="5.23184">
        <ele>240</ele>
        <time>2015-04-06T08:53:02Z</time>
      </trkpt>
      <trkpt lat="50.07128" lon="5.23182">
        <ele>240</ele>
        <time>2015-04-06T08:53:08Z</time>
      </trkpt>
      <trkpt lat="50.07133" lon="5.2318">
        <ele>240</ele>
        <time>2015-04-06T08:53:13Z</time>
      </trkpt>
      <trkpt lat="50.0714" lon="5.23177">
        <ele>239</ele>
        <time>2015-04-06T08:53:18Z</time>
      </trkpt>
      <trkpt lat="50.07146" lon="5.23175">
        <ele>238</ele>
        <time>2015-04-06T08:53:23Z</time>
      </trkpt>
      <trkpt lat="50.07153" lon="5.23175">
        <ele>237</ele>
        <time>2015-04-06T08:53:30Z</time>
      </trkpt>
      <trkpt lat="50.07161" lon="5.23172">
        <ele>236</ele>
        <time>2015-04-06T08:53:35Z</time>
      </trkpt>
      <trkpt lat="50.07167" lon="5.23169">
        <ele>236</ele>
        <time>2015-04-06T08:53:41Z</time>
      </trkpt>
      <trkpt lat="50.07174" lon="5.23165">
        <ele>236</ele>
        <time>2015-04-06T08:53:46Z</time>
      </trkpt>
      <trkpt lat="50.0718" lon="5.23161">
        <ele>235</ele>
        <time>2015-04-06T08:53:51Z</time>
      </trkpt>
      <trkpt lat="50.07188" lon="5.23156">
        <ele>234</ele>
        <time>2015-04-06T08:53:57Z</time>
      </trkpt>
      <trkpt lat="50.07194" lon="5.23152">
        <ele>234</ele>
        <time>2015-04-06T08:54:02Z</time>
      </trkpt>
      <trkpt lat="50.07202" lon="5.23148">
        <ele>233</ele>
        <time>2015-04-06T08:54:08Z</time>
      </trkpt>
      <trkpt lat="50.07211" lon="5.23143">
        <ele>232</ele>
        <time>2015-04-06T08:54:13Z</time>
      </trkpt>
      <trkpt lat="50.07217" lon="5.23139">
        <ele>231</ele>
        <time>2015-04-06T08:54:19Z</time>
      </trkpt>
      <trkpt lat="50.07224" lon="5.23134">
        <ele>231</ele>
        <time>2015-04-06T08:54:24Z</time>
      </trkpt>
      <trkpt lat="50.0723" lon="5.2313">
        <ele>230</ele>
        <time>2015-04-06T08:54:31Z</time>
      </trkpt>
      <trkpt lat="50.07234" lon="5.23125">
        <ele>229</ele>
        <time>2015-04-06T08:54:36Z</time>
      </trkpt>
      <trkpt lat="50.0724" lon="5.23121">
        <ele>229</ele>
        <time>2015-04-06T08:54:42Z</time>
      </trkpt>
      <trkpt lat="50.07247" lon="5.23115">
        <ele>228</ele>
        <time>2015-04-06T08:54:48Z</time>
      </trkpt>
      <trkpt lat="50.07252" lon="5.2311">
        <ele>228</ele>
        <time>2015-04-06T08:54:53Z</time>
      </trkpt>
      <trkpt lat="50.07255" lon="5.23106">
        <ele>228</ele>
        <time>2015-04-06T08:54:58Z</time>
      </trkpt>
      <trkpt lat="50.0726" lon="5.23101">
        <ele>227</ele>
        <time>2015-04-06T08:55:04Z</time>
      </trkpt>
      <trkpt lat="50.07266" lon="5.23096">
        <ele>226</ele>
        <time>2015-04-06T08:55:09Z</time>
      </trkpt>
      <trkpt lat="50.07271" lon="5.23092">
        <ele>226</ele>
        <time>2015-04-06T08:55:15Z</time>
      </trkpt>
      <trkpt lat="50.07278" lon="5.23088">
        <ele>225</ele>
        <time>2015-04-06T08:55:20Z</time>
      </trkpt>
      <trkpt lat="50.07284" lon="5.23084">
        <ele>224</ele>
        <time>2015-04-06T08:55:27Z</time>
      </trkpt>
      <trkpt lat="50.0729" lon="5.2308">
        <ele>224</ele>
        <time>2015-04-06T08:55:32Z</time>
      </trkpt>
      <trkpt lat="50.07296" lon="5.23075">
        <ele>224</ele>
        <time>2015-04-06T08:55:37Z</time>
      </trkpt>
      <trkpt lat="50.07302" lon="5.23071">
        <ele>223</ele>
        <time>2015-04-06T08:55:43Z</time>
      </trkpt>
      <trkpt lat="50.0731" lon="5.23068">
        <ele>222</ele>
        <time>2015-04-06T08:55:48Z</time>
      </trkpt>
      <trkpt lat="50.07315" lon="5.23065">
        <ele>221</ele>
        <time>2015-04-06T08:55:53Z</time>
      </trkpt>
      <trkpt lat="50.0732" lon="5.23061">
        <ele>220</ele>
        <time>2015-04-06T08:56:00Z</time>
      </trkpt>
      <trkpt lat="50.07325" lon="5.23056">
        <ele>220</ele>
        <time>2015-04-06T08:56:06Z</time>
      </trkpt>
      <trkpt lat="50.07332" lon="5.23049">
        <ele>220</ele>
        <time>2015-04-06T08:56:12Z</time>
      </trkpt>
      <trkpt lat="50.07338" lon="5.23043">
        <ele>219</ele>
        <time>2015-04-06T08:56:18Z</time>
      </trkpt>
      <trkpt lat="50.07343" lon="5.2304">
        <ele>218</ele>
        <time>2015-04-06T08:56:23Z</time>
      </trkpt>
      <trkpt lat="50.07344" lon="5.23038">
        <ele>218</ele>
        <time>2015-04-06T08:56:29Z</time>
      </trkpt>
      <trkpt lat="50.07348" lon="5.23035">
        <ele>218</ele>
        <time>2015-04-06T08:56:34Z</time>
      </trkpt>
      <trkpt lat="50.07349" lon="5.23034">
        <ele>218</ele>
        <time>2015-04-06T08:56:40Z</time>
      </trkpt>
      <trkpt lat="50.07354" lon="5.23032">
        <ele>217</ele>
        <time>2015-04-06T08:56:45Z</time>
      </trkpt>
      <trkpt lat="50.07355" lon="5.23035">
        <ele>217</ele>
        <time>2015-04-06T08:56:51Z</time>
      </trkpt>
      <trkpt lat="50.07358" lon="5.23039">
        <ele>217</ele>
        <time>2015-04-06T08:56:56Z</time>
      </trkpt>
      <trkpt lat="50.0736" lon="5.23039">
        <ele>216</ele>
        <time>2015-04-06T08:57:03Z</time>
      </trkpt>
      <trkpt lat="50.07362" lon="5.23037">
        <ele>217</ele>
        <time>2015-04-06T08:57:09Z</time>
      </trkpt>
      <trkpt lat="50.07362" lon="5.23036">
        <ele>216</ele>
        <time>2015-04-06T08:57:14Z</time>
      </trkpt>
      <trkpt lat="50.07363" lon="5.23037">
        <ele>216</ele>
        <time>2015-04-06T08:57:19Z</time>
      </trkpt>
      <trkpt lat="50.07366" lon="5.2304">
        <ele>216</ele>
        <time>2015-04-06T08:57:25Z</time>
      </trkpt>
      <trkpt lat="50.07367" lon="5.2304">
        <ele>216</ele>
        <time>2015-04-06T08:57:30Z</time>
      </trkpt>
      <trkpt lat="50.07369" lon="5.23042">
        <ele>216</ele>
        <time>2015-04-06T08:57:35Z</time>
      </trkpt>
      <trkpt lat="50.07373" lon="5.23047">
        <ele>215</ele>
        <time>2015-04-06T08:57:41Z</time>
      </trkpt>
      <trkpt lat="50.07376" lon="5.23051">
        <ele>215</ele>
        <time>2015-04-06T08:57:46Z</time>
      </trkpt>
      <trkpt lat="50.07381" lon="5.23054">
        <ele>214</ele>
        <time>2015-04-06T08:57:52Z</time>
      </trkpt>
      <trkpt lat="50.07386" lon="5.23058">
        <ele>214</ele>
        <time>2015-04-06T08:57:57Z</time>
      </trkpt>
      <trkpt lat="50.07389" lon="5.2306">
        <ele>213</ele>
        <time>2015-04-06T08:58:02Z</time>
      </trkpt>
      <trkpt lat="50.07395" lon="5.23063">
        <ele>212</ele>
        <time>2015-04-06T08:58:09Z</time>
      </trkpt>
      <trkpt lat="50.07401" lon="5.23064">
        <ele>211</ele>
        <time>2015-04-06T08:58:14Z</time>
      </trkpt>
      <trkpt lat="50.07407" lon="5.23066">
        <ele>211</ele>
        <time>2015-04-06T08:58:20Z</time>
      </trkpt>
      <trkpt lat="50.07412" lon="5.23066">
        <ele>210</ele>
        <time>2015-04-06T08:58:25Z</time>
      </trkpt>
      <trkpt lat="50.0742" lon="5.23065">
        <ele>210</ele>
        <time>2015-04-06T08:58:31Z</time>
      </trkpt>
      <trkpt lat="50.07427" lon="5.23063">
        <ele>209</ele>
        <time>2015-04-06T08:58:36Z</time>
      </trkpt>
      <trkpt lat="50.07434" lon="5.23061">
        <ele>209</ele>
        <time>2015-04-06T08:58:42Z</time>
      </trkpt>
      <trkpt lat="50.07443" lon="5.2306">
        <ele>208</ele>
        <time>2015-04-06T08:58:47Z</time>
      </trkpt>
      <trkpt lat="50.0745" lon="5.23059">
        <ele>208</ele>
        <time>2015-04-06T08:58:53Z</time>
      </trkpt>
      <trkpt lat="50.07457" lon="5.23056">
        <ele>207</ele>
        <time>2015-04-06T08:58:58Z</time>
      </trkpt>
      <trkpt lat="50.07463" lon="5.23053">
        <ele>207</ele>
        <time>2015-04-06T08:59:03Z</time>
      </trkpt>
      <trkpt lat="50.0747" lon="5.2305">
        <ele>207</ele>
        <time>2015-04-06T08:59:08Z</time>
      </trkpt>
      <trkpt lat="50.07476" lon="5.23049">
        <ele>207</ele>
        <time>2015-04-06T08:59:13Z</time>
      </trkpt>
      <trkpt lat="50.07483" lon="5.23047">
        <ele>206</ele>
        <time>2015-04-06T08:59:18Z</time>
      </trkpt>
      <trkpt lat="50.07489" lon="5.23045">
        <ele>206</ele>
        <time>2015-04-06T08:59:23Z</time>
      </trkpt>
      <trkpt lat="50.07496" lon="5.23042">
        <ele>206</ele>
        <time>2015-04-06T08:59:28Z</time>
      </trkpt>
      <trkpt lat="50.07503" lon="5.2304">
        <ele>206</ele>
        <time>2015-04-06T08:59:33Z</time>
      </trkpt>
      <trkpt lat="50.07509" lon="5.23037">
        <ele>206</ele>
        <time>2015-04-06T08:59:38Z</time>
      </trkpt>
      <trkpt lat="50.07515" lon="5.23034">
        <ele>206</ele>
        <time>2015-04-06T08:59:43Z</time>
      </trkpt>
      <trkpt lat="50.07523" lon="5.23032">
        <ele>206</ele>
        <time>2015-04-06T08:59:48Z</time>
      </trkpt>
      <trkpt lat="50.07529" lon="5.2303">
        <ele>205</ele>
        <time>2015-04-06T08:59:54Z</time>
      </trkpt>
      <trkpt lat="50.07539" lon="5.23027">
        <ele>205</ele>
        <time>2015-04-06T08:59:59Z</time>
      </trkpt>
      <trkpt lat="50.07546" lon="5.23025">
        <ele>205</ele>
        <time>2015-04-06T09:00:05Z</time>
      </trkpt>
      <trkpt lat="50.07554" lon="5.23022">
        <ele>205</ele>
        <time>2015-04-06T09:00:10Z</time>
      </trkpt>
      <trkpt lat="50.07563" lon="5.2302">
        <ele>204</ele>
        <time>2015-04-06T09:00:17Z</time>
      </trkpt>
      <trkpt lat="50.0757" lon="5.23017">
        <ele>204</ele>
        <time>2015-04-06T09:00:22Z</time>
      </trkpt>
      <trkpt lat="50.07579" lon="5.23013">
        <ele>204</ele>
        <time>2015-04-06T09:00:27Z</time>
      </trkpt>
      <trkpt lat="50.07587" lon="5.2301">
        <ele>203</ele>
        <time>2015-04-06T09:00:33Z</time>
      </trkpt>
      <trkpt lat="50.07593" lon="5.23006">
        <ele>203</ele>
        <time>2015-04-06T09:00:38Z</time>
      </trkpt>
      <trkpt lat="50.07597" lon="5.23004">
        <ele>204</ele>
        <time>2015-04-06T09:00:44Z</time>
      </trkpt>
      <trkpt lat="50.07603" lon="5.23001">
        <ele>203</ele>
        <time>2015-04-06T09:00:49Z</time>
      </trkpt>
      <trkpt lat="50.07611" lon="5.22998">
        <ele>203</ele>
        <time>2015-04-06T09:00:56Z</time>
      </trkpt>
      <trkpt lat="50.07618" lon="5.22995">
        <ele>203</ele>
        <time>2015-04-06T09:01:01Z</time>
      </trkpt>
      <trkpt lat="50.07626" lon="5.22991">
        <ele>203</ele>
        <time>2015-04-06T09:01:07Z</time>
      </trkpt>
      <trkpt lat="50.07632" lon="5.22985">
        <ele>202</ele>
        <time>2015-04-06T09:01:13Z</time>
      </trkpt>
      <trkpt lat="50.07638" lon="5.2298">
        <ele>202</ele>
        <time>2015-04-06T09:01:19Z</time>
      </trkpt>
      <trkpt lat="50.07642" lon="5.22976">
        <ele>202</ele>
        <time>2015-04-06T09:01:24Z</time>
      </trkpt>
      <trkpt lat="50.07642" lon="5.22974">
        <ele>202</ele>
        <time>2015-04-06T09:01:30Z</time>
      </trkpt>
      <trkpt lat="50.07647" lon="5.22969">
        <ele>201</ele>
        <time>2015-04-06T09:01:35Z</time>
      </trkpt>
      <trkpt lat="50.07653" lon="5.22964">
        <ele>201</ele>
        <time>2015-04-06T09:01:41Z</time>
      </trkpt>
      <trkpt lat="50.07659" lon="5.22957">
        <ele>201</ele>
        <time>2015-04-06T09:01:46Z</time>
      </trkpt>
      <trkpt lat="50.07664" lon="5.2295">
        <ele>201</ele>
        <time>2015-04-06T09:01:51Z</time>
      </trkpt>
      <trkpt lat="50.07669" lon="5.22944">
        <ele>200</ele>
        <time>2015-04-06T09:01:57Z</time>
      </trkpt>
      <trkpt lat="50.07674" lon="5.22938">
        <ele>199</ele>
        <time>2015-04-06T09:02:02Z</time>
      </trkpt>
      <trkpt lat="50.0768" lon="5.2293">
        <ele>199</ele>
        <time>2015-04-06T09:02:07Z</time>
      </trkpt>
      <trkpt lat="50.07685" lon="5.22925">
        <ele>198</ele>
        <time>2015-04-06T09:02:12Z</time>
      </trkpt>
      <trkpt lat="50.0769" lon="5.22918">
        <ele>198</ele>
        <time>2015-04-06T09:02:18Z</time>
      </trkpt>
      <trkpt lat="50.07696" lon="5.2291">
        <ele>197</ele>
        <time>2015-04-06T09:02:23Z</time>
      </trkpt>
      <trkpt lat="50.07701" lon="5.22902">
        <ele>196</ele>
        <time>2015-04-06T09:02:29Z</time>
      </trkpt>
      <trkpt lat="50.07705" lon="5.22895">
        <ele>195</ele>
        <time>2015-04-06T09:02:34Z</time>
      </trkpt>
      <trkpt lat="50.07711" lon="5.22886">
        <ele>194</ele>
        <time>2015-04-06T09:02:40Z</time>
      </trkpt>
      <trkpt lat="50.07714" lon="5.22878">
        <ele>194</ele>
        <time>2015-04-06T09:02:45Z</time>
      </trkpt>
      <trkpt lat="50.07719" lon="5.22869">
        <ele>193</ele>
        <time>2015-04-06T09:02:51Z</time>
      </trkpt>
      <trkpt lat="50.07721" lon="5.22861">
        <ele>193</ele>
        <time>2015-04-06T09:02:56Z</time>
      </trkpt>
      <trkpt lat="50.07726" lon="5.22851">
        <ele>192</ele>
        <time>2015-04-06T09:03:02Z</time>
      </trkpt>
      <trkpt lat="50.0773" lon="5.22843">
        <ele>191</ele>
        <time>2015-04-06T09:03:07Z</time>
      </trkpt>
      <trkpt lat="50.07735" lon="5.22833">
        <ele>190</ele>
        <time>2015-04-06T09:03:14Z</time>
      </trkpt>
      <trkpt lat="50.0774" lon="5.22821">
        <ele>189</ele>
        <time>2015-04-06T09:03:19Z</time>
      </trkpt>
      <trkpt lat="50.07744" lon="5.22812">
        <ele>188</ele>
        <time>2015-04-06T09:03:24Z</time>
      </trkpt>
      <trkpt lat="50.07747" lon="5.22802">
        <ele>188</ele>
        <time>2015-04-06T09:03:29Z</time>
      </trkpt>
      <trkpt lat="50.0775" lon="5.22792">
        <ele>187</ele>
        <time>2015-04-06T09:03:35Z</time>
      </trkpt>
      <trkpt lat="50.07754" lon="5.22781">
        <ele>187</ele>
        <time>2015-04-06T09:03:40Z</time>
      </trkpt>
      <trkpt lat="50.07758" lon="5.22771">
        <ele>186</ele>
        <time>2015-04-06T09:03:46Z</time>
      </trkpt>
      <trkpt lat="50.07761" lon="5.22762">
        <ele>185</ele>
        <time>2015-04-06T09:03:51Z</time>
      </trkpt>
      <trkpt lat="50.07766" lon="5.22753">
        <ele>184</ele>
        <time>2015-04-06T09:03:57Z</time>
      </trkpt>
      <trkpt lat="50.07769" lon="5.22746">
        <ele>183</ele>
        <time>2015-04-06T09:04:02Z</time>
      </trkpt>
      <trkpt lat="50.07772" lon="5.22738">
        <ele>183</ele>
        <time>2015-04-06T09:04:07Z</time>
      </trkpt>
      <trkpt lat="50.07774" lon="5.22733">
        <ele>182</ele>
        <time>2015-04-06T09:04:13Z</time>
      </trkpt>
      <trkpt lat="50.07778" lon="5.22726">
        <ele>182</ele>
        <time>2015-04-06T09:04:18Z</time>
      </trkpt>
      <trkpt lat="50.07782" lon="5.22719">
        <ele>181</ele>
        <time>2015-04-06T09:04:23Z</time>
      </trkpt>
      <trkpt lat="50.07788" lon="5.22713">
        <ele>180</ele>
        <time>2015-04-06T09:04:29Z</time>
      </trkpt>
      <trkpt lat="50.07793" lon="5.22707">
        <ele>179</ele>
        <time>2015-04-06T09:04:35Z</time>
      </trkpt>
      <trkpt lat="50.07797" lon="5.22701">
        <ele>178</ele>
        <time>2015-04-06T09:04:40Z</time>
      </trkpt>
      <trkpt lat="50.07801" lon="5.22697">
        <ele>177</ele>
        <time>2015-04-06T09:04:45Z</time>
      </trkpt>
      <trkpt lat="50.07805" lon="5.22692">
        <ele>176</ele>
        <time>2015-04-06T09:04:51Z</time>
      </trkpt>
      <trkpt lat="50.0781" lon="5.22686">
        <ele>176</ele>
        <time>2015-04-06T09:04:56Z</time>
      </trkpt>
      <trkpt lat="50.07815" lon="5.22682">
        <ele>175</ele>
        <time>2015-04-06T09:05:01Z</time>
      </trkpt>
      <trkpt lat="50.07819" lon="5.22678">
        <ele>174</ele>
        <time>2015-04-06T09:05:06Z</time>
      </trkpt>
      <trkpt lat="50.07826" lon="5.22674">
        <ele>173</ele>
        <time>2015-04-06T09:05:12Z</time>
      </trkpt>
      <trkpt lat="50.07829" lon="5.22671">
        <ele>172</ele>
        <time>2015-04-06T09:05:17Z</time>
      </trkpt>
      <trkpt lat="50.0783" lon="5.22668">
        <ele>172</ele>
        <time>2015-04-06T09:05:23Z</time>
      </trkpt>
      <trkpt lat="50.07833" lon="5.22665">
        <ele>173</ele>
        <time>2015-04-06T09:05:29Z</time>
      </trkpt>
      <trkpt lat="50.07836" lon="5.22661">
        <ele>172</ele>
        <time>2015-04-06T09:05:35Z</time>
      </trkpt>
      <trkpt lat="50.07843" lon="5.22658">
        <ele>171</ele>
        <time>2015-04-06T09:05:40Z</time>
      </trkpt>
      <trkpt lat="50.07846" lon="5.22656">
        <ele>170</ele>
        <time>2015-04-06T09:05:46Z</time>
      </trkpt>
      <trkpt lat="50.0785" lon="5.22653">
        <ele>170</ele>
        <time>2015-04-06T09:05:51Z</time>
      </trkpt>
      <trkpt lat="50.07854" lon="5.2265">
        <ele>169</ele>
        <time>2015-04-06T09:05:56Z</time>
      </trkpt>
      <trkpt lat="50.07859" lon="5.22647">
        <ele>168</ele>
        <time>2015-04-06T09:06:02Z</time>
      </trkpt>
      <trkpt lat="50.07866" lon="5.22644">
        <ele>167</ele>
        <time>2015-04-06T09:06:08Z</time>
      </trkpt>
      <trkpt lat="50.07873" lon="5.22639">
        <ele>166</ele>
        <time>2015-04-06T09:06:14Z</time>
      </trkpt>
      <trkpt lat="50.0788" lon="5.22637">
        <ele>166</ele>
        <time>2015-04-06T09:06:20Z</time>
      </trkpt>
      <trkpt lat="50.07888" lon="5.22633">
        <ele>166</ele>
        <time>2015-04-06T09:06:25Z</time>
      </trkpt>
      <trkpt lat="50.07895" lon="5.22628">
        <ele>166</ele>
        <time>2015-04-06T09:06:31Z</time>
      </trkpt>
      <trkpt lat="50.079" lon="5.22624">
        <ele>166</ele>
        <time>2015-04-06T09:06:36Z</time>
      </trkpt>
      <trkpt lat="50.07906" lon="5.22621">
        <ele>165</ele>
        <time>2015-04-06T09:06:41Z</time>
      </trkpt>
      <trkpt lat="50.07912" lon="5.22619">
        <ele>165</ele>
        <time>2015-04-06T09:06:46Z</time>
      </trkpt>
      <trkpt lat="50.07918" lon="5.22617">
        <ele>165</ele>
        <time>2015-04-06T09:06:52Z</time>
      </trkpt>
      <trkpt lat="50.07924" lon="5.22616">
        <ele>165</ele>
        <time>2015-04-06T09:06:58Z</time>
      </trkpt>
      <trkpt lat="50.0793" lon="5.22616">
        <ele>165</ele>
        <time>2015-04-06T09:07:04Z</time>
      </trkpt>
      <trkpt lat="50.07938" lon="5.22617">
        <ele>165</ele>
        <time>2015-04-06T09:07:09Z</time>
      </trkpt>
      <trkpt lat="50.07946" lon="5.22619">
        <ele>164</ele>
        <time>2015-04-06T09:07:15Z</time>
      </trkpt>
      <trkpt lat="50.07953" lon="5.22622">
        <ele>163</ele>
        <time>2015-04-06T09:07:20Z</time>
      </trkpt>
      <trkpt lat="50.07961" lon="5.22625">
        <ele>163</ele>
        <time>2015-04-06T09:07:26Z</time>
      </trkpt>
      <trkpt lat="50.07966" lon="5.22626">
        <ele>163</ele>
        <time>2015-04-06T09:07:31Z</time>
      </trkpt>
      <trkpt lat="50.07971" lon="5.2263">
        <ele>163</ele>
        <time>2015-04-06T09:07:37Z</time>
      </trkpt>
      <trkpt lat="50.07977" lon="5.22632">
        <ele>162</ele>
        <time>2015-04-06T09:07:42Z</time>
      </trkpt>
      <trkpt lat="50.07983" lon="5.22633">
        <ele>161</ele>
        <time>2015-04-06T09:07:49Z</time>
      </trkpt>
      <trkpt lat="50.07988" lon="5.22633">
        <ele>160</ele>
        <time>2015-04-06T09:07:54Z</time>
      </trkpt>
      <trkpt lat="50.07994" lon="5.22632">
        <ele>160</ele>
        <time>2015-04-06T09:08:00Z</time>
      </trkpt>
      <trkpt lat="50.08" lon="5.22634">
        <ele>159</ele>
        <time>2015-04-06T09:08:05Z</time>
      </trkpt>
      <trkpt lat="50.08007" lon="5.22632">
        <ele>158</ele>
        <time>2015-04-06T09:08:11Z</time>
      </trkpt>
      <trkpt lat="50.08016" lon="5.22629">
        <ele>158</ele>
        <time>2015-04-06T09:08:17Z</time>
      </trkpt>
      <trkpt lat="50.08024" lon="5.22625">
        <ele>157</ele>
        <time>2015-04-06T09:08:23Z</time>
      </trkpt>
      <trkpt lat="50.08031" lon="5.22624">
        <ele>156</ele>
        <time>2015-04-06T09:08:28Z</time>
      </trkpt>
      <trkpt lat="50.08036" lon="5.2262">
        <ele>155</ele>
        <time>2015-04-06T09:08:33Z</time>
      </trkpt>
      <trkpt lat="50.08044" lon="5.22618">
        <ele>154</ele>
        <time>2015-04-06T09:08:39Z</time>
      </trkpt>
      <trkpt lat="50.0805" lon="5.22615">
        <ele>153</ele>
        <time>2015-04-06T09:08:44Z</time>
      </trkpt>
      <trkpt lat="50.08055" lon="5.22612">
        <ele>153</ele>
        <time>2015-04-06T09:08:49Z</time>
      </trkpt>
      <trkpt lat="50.08062" lon="5.2261">
        <ele>152</ele>
        <time>2015-04-06T09:08:54Z</time>
      </trkpt>
      <trkpt lat="50.08069" lon="5.22606">
        <ele>151</ele>
        <time>2015-04-06T09:08:59Z</time>
      </trkpt>
      <trkpt lat="50.08077" lon="5.22601">
        <ele>150</ele>
        <time>2015-04-06T09:09:05Z</time>
      </trkpt>
      <trkpt lat="50.08084" lon="5.22593">
        <ele>149</ele>
        <time>2015-04-06T09:09:11Z</time>
      </trkpt>
      <trkpt lat="50.08089" lon="5.22585">
        <ele>149</ele>
        <time>2015-04-06T09:09:16Z</time>
      </trkpt>
      <trkpt lat="50.08093" lon="5.22574">
        <ele>147</ele>
        <time>2015-04-06T09:09:22Z</time>
      </trkpt>
      <trkpt lat="50.08097" lon="5.22564">
        <ele>147</ele>
        <time>2015-04-06T09:09:28Z</time>
      </trkpt>
      <trkpt lat="50.08102" lon="5.22555">
        <ele>146</ele>
        <time>2015-04-06T09:09:33Z</time>
      </trkpt>
      <trkpt lat="50.08107" lon="5.22544">
        <ele>145</ele>
        <time>2015-04-06T09:09:39Z</time>
      </trkpt>
      <trkpt lat="50.08112" lon="5.22537">
        <ele>144</ele>
        <time>2015-04-06T09:09:44Z</time>
      </trkpt>
      <trkpt lat="50.08119" lon="5.2253">
        <ele>144</ele>
        <time>2015-04-06T09:09:50Z</time>
      </trkpt>
      <trkpt lat="50.08124" lon="5.22523">
        <ele>143</ele>
        <time>2015-04-06T09:09:55Z</time>
      </trkpt>
      <trkpt lat="50.08128" lon="5.22516">
        <ele>142</ele>
        <time>2015-04-06T09:10:00Z</time>
      </trkpt>
      <trkpt lat="50.08133" lon="5.22507">
        <ele>140</ele>
        <time>2015-04-06T09:10:06Z</time>
      </trkpt>
      <trkpt lat="50.08138" lon="5.22499">
        <ele>139</ele>
        <time>2015-04-06T09:10:12Z</time>
      </trkpt>
      <trkpt lat="50.08144" lon="5.2249">
        <ele>137</ele>
        <time>2015-04-06T09:10:18Z</time>
      </trkpt>
      <trkpt lat="50.08151" lon="5.22481">
        <ele>136</ele>
        <time>2015-04-06T09:10:24Z</time>
      </trkpt>
      <trkpt lat="50.08157" lon="5.22474">
        <ele>134</ele>
        <time>2015-04-06T09:10:30Z</time>
      </trkpt>
      <trkpt lat="50.08163" lon="5.22468">
        <ele>133</ele>
        <time>2015-04-06T09:10:36Z</time>
      </trkpt>
      <trkpt lat="50.08167" lon="5.22461">
        <ele>131</ele>
        <time>2015-04-06T09:10:41Z</time>
      </trkpt>
      <trkpt lat="50.08171" lon="5.22457">
        <ele>130</ele>
        <time>2015-04-06T09:10:46Z</time>
      </trkpt>
      <trkpt lat="50.08176" lon="5.2245">
        <ele>129</ele>
        <time>2015-04-06T09:10:52Z</time>
      </trkpt>
      <trkpt lat="50.08181" lon="5.22446">
        <ele>128</ele>
        <time>2015-04-06T09:10:57Z</time>
      </trkpt>
      <trkpt lat="50.08186" lon="5.22441">
        <ele>127</ele>
        <time>2015-04-06T09:11:02Z</time>
      </trkpt>
      <trkpt lat="50.08191" lon="5.22438">
        <ele>125</ele>
        <time>2015-04-06T09:11:08Z</time>
      </trkpt>
      <trkpt lat="50.08196" lon="5.22431">
        <ele>124</ele>
        <time>2015-04-06T09:11:14Z</time>
      </trkpt>
      <trkpt lat="50.082" lon="5.22427">
        <ele>122</ele>
        <time>2015-04-06T09:11:19Z</time>
      </trkpt>
      <trkpt lat="50.08207" lon="5.22423">
        <ele>121</ele>
        <time>2015-04-06T09:11:25Z</time>
      </trkpt>
      <trkpt lat="50.08213" lon="5.22418">
        <ele>120</ele>
        <time>2015-04-06T09:11:30Z</time>
      </trkpt>
      <trkpt lat="50.08219" lon="5.22414">
        <ele>119</ele>
        <time>2015-04-06T09:11:35Z</time>
      </trkpt>
      <trkpt lat="50.08226" lon="5.22407">
        <ele>119</ele>
        <time>2015-04-06T09:11:41Z</time>
      </trkpt>
      <trkpt lat="50.08232" lon="5.22402">
        <ele>117</ele>
        <time>2015-04-06T09:11:47Z</time>
      </trkpt>
      <trkpt lat="50.08234" lon="5.22401">
        <ele>117</ele>
        <time>2015-04-06T09:11:52Z</time>
      </trkpt>
      <trkpt lat="50.08235" lon="5.224">
        <ele>116</ele>
        <time>2015-04-06T09:11:58Z</time>
      </trkpt>
      <trkpt lat="50.08236" lon="5.22399">
        <ele>116</ele>
        <time>2015-04-06T09:12:03Z</time>
      </trkpt>
      <trkpt lat="50.08237" lon="5.22398">
        <ele>117</ele>
        <time>2015-04-06T09:12:09Z</time>
      </trkpt>
      <trkpt lat="50.08241" lon="5.22396">
        <ele>116</ele>
        <time>2015-04-06T09:12:14Z</time>
      </trkpt>
      <trkpt lat="50.08247" lon="5.22393">
        <ele>115</ele>
        <time>2015-04-06T09:12:20Z</time>
      </trkpt>
      <trkpt lat="50.08249" lon="5.2239">
        <ele>114</ele>
        <time>2015-04-06T09:12:26Z</time>
      </trkpt>
      <trkpt lat="50.0825" lon="5.22387">
        <ele>114</ele>
        <time>2015-04-06T09:12:31Z</time>
      </trkpt>
      <trkpt lat="50.08251" lon="5.22384">
        <ele>114</ele>
        <time>2015-04-06T09:12:36Z</time>
      </trkpt>
      <trkpt lat="50.08252" lon="5.22381">
        <ele>114</ele>
        <time>2015-04-06T09:12:41Z</time>
      </trkpt>
      <trkpt lat="50.08253" lon="5.2238">
        <ele>114</ele>
        <time>2015-04-06T09:12:47Z</time>
      </trkpt>
      <trkpt lat="50.08255" lon="5.22378">
        <ele>114</ele>
        <time>2015-04-06T09:12:53Z</time>
      </trkpt>
      <trkpt lat="50.08259" lon="5.22375">
        <ele>113</ele>
        <time>2015-04-06T09:12:59Z</time>
      </trkpt>
      <trkpt lat="50.0826" lon="5.22371">
        <ele>111</ele>
        <time>2015-04-06T09:13:04Z</time>
      </trkpt>
      <trkpt lat="50.08261" lon="5.22366">
        <ele>110</ele>
        <time>2015-04-06T09:13:09Z</time>
      </trkpt>
      <trkpt lat="50.08261" lon="5.22359">
        <ele>109</ele>
        <time>2015-04-06T09:13:15Z</time>
      </trkpt>
      <trkpt lat="50.08263" lon="5.22352">
        <ele>108</ele>
        <time>2015-04-06T09:13:21Z</time>
      </trkpt>
      <trkpt lat="50.08264" lon="5.22346">
        <ele>106</ele>
        <time>2015-04-06T09:13:26Z</time>
      </trkpt>
      <trkpt lat="50.08266" lon="5.22341">
        <ele>106</ele>
        <time>2015-04-06T09:13:31Z</time>
      </trkpt>
      <trkpt lat="50.08266" lon="5.22333">
        <ele>105</ele>
        <time>2015-04-06T09:13:36Z</time>
      </trkpt>
      <trkpt lat="50.08268" lon="5.22326">
        <ele>104</ele>
        <time>2015-04-06T09:13:41Z</time>
      </trkpt>
      <trkpt lat="50.0827" lon="5.22318">
        <ele>104</ele>
        <time>2015-04-06T09:13:46Z</time>
      </trkpt>
      <trkpt lat="50.08271" lon="5.22307">
        <ele>103</ele>
        <time>2015-04-06T09:13:52Z</time>
      </trkpt>
      <trkpt lat="50.08275" lon="5.22298">
        <ele>103</ele>
        <time>2015-04-06T09:13:58Z</time>
      </trkpt>
      <trkpt lat="50.08277" lon="5.22291">
        <ele>102</ele>
        <time>2015-04-06T09:14:03Z</time>
      </trkpt>
      <trkpt lat="50.08279" lon="5.22284">
        <ele>101</ele>
        <time>2015-04-06T09:14:08Z</time>
      </trkpt>
      <trkpt lat="50.08279" lon="5.22275">
        <ele>101</ele>
        <time>2015-04-06T09:14:13Z</time>
      </trkpt>
      <trkpt lat="50.08279" lon="5.22264">
        <ele>100</ele>
        <time>2015-04-06T09:14:19Z</time>
      </trkpt>
      <trkpt lat="50.08277" lon="5.22254">
        <ele>100</ele>
        <time>2015-04-06T09:14:24Z</time>
      </trkpt>
      <trkpt lat="50.08276" lon="5.22244">
        <ele>99</ele>
        <time>2015-04-06T09:14:30Z</time>
      </trkpt>
      <trkpt lat="50.08274" lon="5.22237">
        <ele>99</ele>
        <time>2015-04-06T09:14:35Z</time>
      </trkpt>
      <trkpt lat="50.0827" lon="5.22226">
        <ele>99</ele>
        <time>2015-04-06T09:14:41Z</time>
      </trkpt>
      <trkpt lat="50.08266" lon="5.22216">
        <ele>99</ele>
        <time>2015-04-06T09:14:47Z</time>
      </trkpt>
      <trkpt lat="50.08264" lon="5.22211">
        <ele>98</ele>
        <time>2015-04-06T09:14:53Z</time>
      </trkpt>
      <trkpt lat="50.08263" lon="5.22204">
        <ele>98</ele>
        <time>2015-04-06T09:14:58Z</time>
      </trkpt>
      <trkpt lat="50.08263" lon="5.22193">
        <ele>98</ele>
        <time>2015-04-06T09:15:03Z</time>
      </trkpt>
      <trkpt lat="50.08262" lon="5.22188">
        <ele>98</ele>
        <time>2015-04-06T09:15:08Z</time>
      </trkpt>
      <trkpt lat="50.08261" lon="5.22176">
        <ele>97</ele>
        <time>2015-04-06T09:15:14Z</time>
      </trkpt>
      <trkpt lat="50.08258" lon="5.22163">
        <ele>97</ele>
        <time>2015-04-06T09:15:20Z</time>
      </trkpt>
      <trkpt lat="50.08255" lon="5.22156">
        <ele>98</ele>
        <time>2015-04-06T09:15:25Z</time>
      </trkpt>
      <trkpt lat="50.08257" lon="5.22149">
        <ele>98</ele>
        <time>2015-04-06T09:15:30Z</time>
      </trkpt>
      <trkpt lat="50.08261" lon="5.22145">
        <ele>97</ele>
        <time>2015-04-06T09:15:36Z</time>
      </trkpt>
      <trkpt lat="50.08264" lon="5.22146">
        <ele>97</ele>
        <time>2015-04-06T09:15:41Z</time>
      </trkpt>
      <trkpt lat="50.08268" lon="5.22148">
        <ele>97</ele>
        <time>2015-04-06T09:15:47Z</time>
      </trkpt>
      <trkpt lat="50.08274" lon="5.2215">
        <ele>96</ele>
        <time>2015-04-06T09:15:53Z</time>
      </trkpt>
      <trkpt lat="50.08282" lon="5.22152">
        <ele>96</ele>
        <time>2015-04-06T09:15:59Z</time>
      </trkpt>
      <trkpt lat="50.08287" lon="5.22152">
        <ele>96</ele>
        <time>2015-04-06T09:16:04Z</time>
      </trkpt>
      <trkpt lat="50.0829" lon="5.22153">
        <ele>96</ele>
        <time>2015-04-06T09:16:09Z</time>
      </trkpt>
      <trkpt lat="50.08292" lon="5.22151">
        <ele>96</ele>
        <time>2015-04-06T09:16:15Z</time>
      </trkpt>
      <trkpt lat="50.08299" lon="5.22148">
        <ele>96</ele>
        <time>2015-04-06T09:16:20Z</time>
      </trkpt>
      <trkpt lat="50.08303" lon="5.2215">
        <ele>95</ele>
        <time>2015-04-06T09:16:25Z</time>
      </trkpt>
      <trkpt lat="50.08307" lon="5.22153">
        <ele>95</ele>
        <time>2015-04-06T09:16:30Z</time>
      </trkpt>
      <trkpt lat="50.0831" lon="5.22156">
        <ele>95</ele>
        <time>2015-04-06T09:16:36Z</time>
      </trkpt>
      <trkpt lat="50.08316" lon="5.2216">
        <ele>95</ele>
        <time>2015-04-06T09:16:42Z</time>
      </trkpt>
      <trkpt lat="50.08322" lon="5.22162">
        <ele>95</ele>
        <time>2015-04-06T09:16:47Z</time>
      </trkpt>
      <trkpt lat="50.08328" lon="5.22165">
        <ele>94</ele>
        <time>2015-04-06T09:16:52Z</time>
      </trkpt>
      <trkpt lat="50.08334" lon="5.22169">
        <ele>94</ele>
        <time>2015-04-06T09:16:57Z</time>
      </trkpt>
      <trkpt lat="50.08339" lon="5.2217">
        <ele>94</ele>
        <time>2015-04-06T09:17:02Z</time>
      </trkpt>
      <trkpt lat="50.08344" lon="5.22173">
        <ele>94</ele>
        <time>2015-04-06T09:17:08Z</time>
      </trkpt>
      <trkpt lat="50.08349" lon="5.22178">
        <ele>94</ele>
        <time>2015-04-06T09:17:13Z</time>
      </trkpt>
      <trkpt lat="50.08354" lon="5.2218">
        <ele>94</ele>
        <time>2015-04-06T09:17:18Z</time>
      </trkpt>
      <trkpt lat="50.08362" lon="5.22182">
        <ele>93</ele>
        <time>2015-04-06T09:17:24Z</time>
      </trkpt>
      <trkpt lat="50.08369" lon="5.22187">
        <ele>93</ele>
        <time>2015-04-06T09:17:30Z</time>
      </trkpt>
      <trkpt lat="50.08375" lon="5.22193">
        <ele>93</ele>
        <time>2015-04-06T09:17:35Z</time>
      </trkpt>
      <trkpt lat="50.08382" lon="5.22198">
        <ele>93</ele>
        <time>2015-04-06T09:17:41Z</time>
      </trkpt>
      <trkpt lat="50.08385" lon="5.22202">
        <ele>92</ele>
        <time>2015-04-06T09:17:47Z</time>
      </trkpt>
      <trkpt lat="50.0839" lon="5.22207">
        <ele>93</ele>
        <time>2015-04-06T09:17:52Z</time>
      </trkpt>
      <trkpt lat="50.08396" lon="5.22211">
        <ele>92</ele>
        <time>2015-04-06T09:17:58Z</time>
      </trkpt>
      <trkpt lat="50.08401" lon="5.22216">
        <ele>92</ele>
        <time>2015-04-06T09:18:03Z</time>
      </trkpt>
      <trkpt lat="50.08406" lon="5.22219">
        <ele>92</ele>
        <time>2015-04-06T09:18:08Z</time>
      </trkpt>
      <trkpt lat="50.0841" lon="5.22223">
        <ele>92</ele>
        <time>2015-04-06T09:18:13Z</time>
      </trkpt>
      <trkpt lat="50.08417" lon="5.22226">
        <ele>92</ele>
        <time>2015-04-06T09:18:19Z</time>
      </trkpt>
      <trkpt lat="50.08424" lon="5.22231">
        <ele>91</ele>
        <time>2015-04-06T09:18:25Z</time>
      </trkpt>
      <trkpt lat="50.08431" lon="5.22235">
        <ele>91</ele>
        <time>2015-04-06T09:18:31Z</time>
      </trkpt>
      <trkpt lat="50.08438" lon="5.2224">
        <ele>91</ele>
        <time>2015-04-06T09:18:37Z</time>
      </trkpt>
      <trkpt lat="50.08443" lon="5.22242">
        <ele>90</ele>
        <time>2015-04-06T09:18:42Z</time>
      </trkpt>
      <trkpt lat="50.08448" lon="5.22245">
        <ele>90</ele>
        <time>2015-04-06T09:18:48Z</time>
      </trkpt>
      <trkpt lat="50.08451" lon="5.2225">
        <ele>90</ele>
        <time>2015-04-06T09:18:53Z</time>
      </trkpt>
      <trkpt lat="50.08457" lon="5.22254">
        <ele>90</ele>
        <time>2015-04-06T09:18:58Z</time>
      </trkpt>
      <trkpt lat="50.08465" lon="5.22255">
        <ele>90</ele>
        <time>2015-04-06T09:19:04Z</time>
      </trkpt>
      <trkpt lat="50.08472" lon="5.22256">
        <ele>90</ele>
        <time>2015-04-06T09:19:09Z</time>
      </trkpt>
      <trkpt lat="50.08479" lon="5.22259">
        <ele>90</ele>
        <time>2015-04-06T09:19:14Z</time>
      </trkpt>
      <trkpt lat="50.08484" lon="5.2226">
        <ele>90</ele>
        <time>2015-04-06T09:19:20Z</time>
      </trkpt>
      <trkpt lat="50.08491" lon="5.22262">
        <ele>89</ele>
        <time>2015-04-06T09:19:25Z</time>
      </trkpt>
      <trkpt lat="50.08498" lon="5.22264">
        <ele>90</ele>
        <time>2015-04-06T09:19:31Z</time>
      </trkpt>
      <trkpt lat="50.085" lon="5.22266">
        <ele>90</ele>
        <time>2015-04-06T09:19:36Z</time>
      </trkpt>
      <trkpt lat="50.08502" lon="5.22268">
        <ele>89</ele>
        <time>2015-04-06T09:19:42Z</time>
      </trkpt>
      <trkpt lat="50.08504" lon="5.22268">
        <ele>89</ele>
        <time>2015-04-06T09:19:47Z</time>
      </trkpt>
      <trkpt lat="50.08508" lon="5.22269">
        <ele>89</ele>
        <time>2015-04-06T09:19:53Z</time>
      </trkpt>
      <trkpt lat="50.08514" lon="5.22272">
        <ele>89</ele>
        <time>2015-04-06T09:19:59Z</time>
      </trkpt>
      <trkpt lat="50.08519" lon="5.22275">
        <ele>89</ele>
        <time>2015-04-06T09:20:04Z</time>
      </trkpt>
      <trkpt lat="50.08524" lon="5.22278">
        <ele>89</ele>
        <time>2015-04-06T09:20:10Z</time>
      </trkpt>
      <trkpt lat="50.08529" lon="5.22281">
        <ele>89</ele>
        <time>2015-04-06T09:20:16Z</time>
      </trkpt>
      <trkpt lat="50.08537" lon="5.22285">
        <ele>88</ele>
        <time>2015-04-06T09:20:22Z</time>
      </trkpt>
      <trkpt lat="50.08544" lon="5.22289">
        <ele>88</ele>
        <time>2015-04-06T09:20:28Z</time>
      </trkpt>
      <trkpt lat="50.08547" lon="5.22292">
        <ele>88</ele>
        <time>2015-04-06T09:20:34Z</time>
      </trkpt>
      <trkpt lat="50.08553" lon="5.22292">
        <ele>87</ele>
        <time>2015-04-06T09:20:40Z</time>
      </trkpt>
      <trkpt lat="50.08557" lon="5.22291">
        <ele>88</ele>
        <time>2015-04-06T09:20:46Z</time>
      </trkpt>
      <trkpt lat="50.08561" lon="5.22291">
        <ele>88</ele>
        <time>2015-04-06T09:20:51Z</time>
      </trkpt>
      <trkpt lat="50.08563" lon="5.22291">
        <ele>87</ele>
        <time>2015-04-06T09:20:56Z</time>
      </trkpt>
      <trkpt lat="50.08568" lon="5.22293">
        <ele>87</ele>
        <time>2015-04-06T09:21:01Z</time>
      </trkpt>
      <trkpt lat="50.08575" lon="5.22296">
        <ele>87</ele>
        <time>2015-04-06T09:21:07Z</time>
      </trkpt>
      <trkpt lat="50.08581" lon="5.22296">
        <ele>87</ele>
        <time>2015-04-06T09:21:12Z</time>
      </trkpt>
      <trkpt lat="50.08588" lon="5.22295">
        <ele>87</ele>
        <time>2015-04-06T09:21:17Z</time>
      </trkpt>
      <trkpt lat="50.08596" lon="5.22296">
        <ele>87</ele>
        <time>2015-04-06T09:21:23Z</time>
      </trkpt>
      <trkpt lat="50.08602" lon="5.22296">
        <ele>87</ele>
        <time>2015-04-06T09:21:28Z</time>
      </trkpt>
      <trkpt lat="50.08609" lon="5.22296">
        <ele>86</ele>
        <time>2015-04-06T09:21:34Z</time>
      </trkpt>
      <trkpt lat="50.08614" lon="5.22296">
        <ele>86</ele>
        <time>2015-04-06T09:21:39Z</time>
      </trkpt>
      <trkpt lat="50.0862" lon="5.22296">
        <ele>86</ele>
        <time>2015-04-06T09:21:44Z</time>
      </trkpt>
      <trkpt lat="50.08625" lon="5.22296">
        <ele>86</ele>
        <time>2015-04-06T09:21:49Z</time>
      </trkpt>
      <trkpt lat="50.08632" lon="5.22296">
        <ele>86</ele>
        <time>2015-04-06T09:21:55Z</time>
      </trkpt>
      <trkpt lat="50.08639" lon="5.22295">
        <ele>85</ele>
        <time>2015-04-06T09:22:01Z</time>
      </trkpt>
      <trkpt lat="50.08644" lon="5.22295">
        <ele>85</ele>
        <time>2015-04-06T09:22:06Z</time>
      </trkpt>
      <trkpt lat="50.08652" lon="5.22295">
        <ele>85</ele>
        <time>2015-04-06T09:22:12Z</time>
      </trkpt>
      <trkpt lat="50.08659" lon="5.22293">
        <ele>85</ele>
        <time>2015-04-06T09:22:18Z</time>
      </trkpt>
      <trkpt lat="50.08664" lon="5.22286">
        <ele>85</ele>
        <time>2015-04-06T09:22:24Z</time>
      </trkpt>
      <trkpt lat="50.08669" lon="5.22279">
        <ele>85</ele>
        <time>2015-04-06T09:22:29Z</time>
      </trkpt>
      <trkpt lat="50.08673" lon="5.22274">
        <ele>85</ele>
        <time>2015-04-06T09:22:34Z</time>
      </trkpt>
      <trkpt lat="50.08674" lon="5.22267">
        <ele>84</ele>
        <time>2015-04-06T09:22:39Z</time>
      </trkpt>
      <trkpt lat="50.08676" lon="5.22262">
        <ele>84</ele>
        <time>2015-04-06T09:22:44Z</time>
      </trkpt>
      <trkpt lat="50.08678" lon="5.22254">
        <ele>84</ele>
        <time>2015-04-06T09:22:49Z</time>
      </trkpt>
      <trkpt lat="50.08679" lon="5.22246">
        <ele>84</ele>
        <time>2015-04-06T09:22:54Z</time>
      </trkpt>
      <trkpt lat="50.08683" lon="5.22239">
        <ele>84</ele>
        <time>2015-04-06T09:22:59Z</time>
      </trkpt>
      <trkpt lat="50.08688" lon="5.22231">
        <ele>83</ele>
        <time>2015-04-06T09:23:05Z</time>
      </trkpt>
      <trkpt lat="50.08692" lon="5.22225">
        <ele>83</ele>
        <time>2015-04-06T09:23:10Z</time>
      </trkpt>
      <trkpt lat="50.08696" lon="5.22221">
        <ele>84</ele>
        <time>2015-04-06T09:23:15Z</time>
      </trkpt>
      <trkpt lat="50.08696" lon="5.22219">
        <ele>83</ele>
        <time>2015-04-06T09:23:21Z</time>
      </trkpt>
      <trkpt lat="50.08701" lon="5.22217">
        <ele>83</ele>
        <time>2015-04-06T09:23:26Z</time>
      </trkpt>
      <trkpt lat="50.08706" lon="5.22216">
        <ele>83</ele>
        <time>2015-04-06T09:23:31Z</time>
      </trkpt>
      <trkpt lat="50.08711" lon="5.22215">
        <ele>83</ele>
        <time>2015-04-06T09:23:36Z</time>
      </trkpt>
      <trkpt lat="50.08716" lon="5.22214">
        <ele>83</ele>
        <time>2015-04-06T09:23:41Z</time>
      </trkpt>
      <trkpt lat="50.08723" lon="5.22214">
        <ele>83</ele>
        <time>2015-04-06T09:23:47Z</time>
      </trkpt>
      <trkpt lat="50.08727" lon="5.22214">
        <ele>83</ele>
        <time>2015-04-06T09:23:53Z</time>
      </trkpt>
      <trkpt lat="50.08732" lon="5.22215">
        <ele>83</ele>
        <time>2015-04-06T09:23:59Z</time>
      </trkpt>
      <trkpt lat="50.08737" lon="5.22213">
        <ele>83</ele>
        <time>2015-04-06T09:24:04Z</time>
      </trkpt>
      <trkpt lat="50.08739" lon="5.22214">
        <ele>83</ele>
        <time>2015-04-06T09:24:09Z</time>
      </trkpt>
      <trkpt lat="50.08742" lon="5.22216">
        <ele>83</ele>
        <time>2015-04-06T09:24:15Z</time>
      </trkpt>
      <trkpt lat="50.08749" lon="5.22216">
        <ele>83</ele>
        <time>2015-04-06T09:24:21Z</time>
      </trkpt>
      <trkpt lat="50.08753" lon="5.22216">
        <ele>82</ele>
        <time>2015-04-06T09:24:26Z</time>
      </trkpt>
      <trkpt lat="50.08754" lon="5.22217">
        <ele>82</ele>
        <time>2015-04-06T09:24:31Z</time>
      </trkpt>
    </trkseg>
  </trk>
</gpx>